GFSWCAN_prec_cloud_003.txt.gz
Cloud_Cover
100 100 100 100 100 100 100 100 100 100 100 100 100 100 100 100 100 100 100 100 100 100 92 65 23 50 62 49 12 5 5 5 88 100 96 99 21 23 20 42 6 5 87 41 82 93 57 62 100 100 94 100 100 75
100 100 100 100 100 100 100 100 100 100 100 100 100 100 100 100 100 100 100 100 100 100 100 93 56 6 5 5 13 19 5 5 5 71 50 90 98 91 50 25 34 31 9 96 100 33 76 92 100 90 100 100 100 100
100 100 100 100 100 100 100 100 100 100 100 100 100 100 100 100 100 100 100 100 100 100 100 99 58 6 5 8 5 5 2 0 0 6 8 40 7 76 90 81 17 5 30 47 96 59 84 98 88 100 99 83 85 100
100 100 100 100 100 100 100 100 100 100 100 100 100 100 100 100 100 100 100 100 100 100 100 100 82 5 5 5 7 35 56 5 34 18 100 100 100 5 84 29 62 88 100 48 90 48 56 99 100 100 98 100 94 23
100 100 100 100 100 100 100 100 100 100 100 100 100 100 100 100 100 100 100 98 80 64 45 64 6 5 5 26 79 47 24 50 100 100 100 98 74 72 100 88 100 97 85 100 95 100 98 100 100 100 100 97 96 100
100 100 100 100 100 100 100 100 100 100 100 100 100 100 100 100 100 100 99 84 89 98 87 55 70 76 79 99 97 100 100 84 98 100 100 98 100 99 100 100 100 100 100 100 100 99 100 100 100 42 7 5 5 56
100 100 100 100 100 100 100 100 100 100 100 100 100 100 100 100 100 100 100 100 100 100 100 100 99 100 100 100 100 100 100 27 68 100 100 94 100 98 100 100 99 100 100 78 100 99 87 98 62 53 5 5 63 7
100 100 100 100 100 100 100 100 100 100 100 100 100 100 100 100 100 100 100 100 100 100 100 94 93 69 100 100 100 100 100 100 100 96 100 100 92 100 100 100 93 84 90 100 100 90 88 99 40 6 5 36 72 18
100 100 100 100 100 100 100 100 100 100 100 100 100 100 100 100 100 100 100 100 100 100 100 100 100 100 100 100 100 100 100 100 91 100 100 100 100 100 100 99 96 91 95 100 100 82 96 100 95 28 90 100 56 6
98 100 100 100 100 100 100 100 100 100 100 100 100 100 100 100 100 100 100 100 100 100 100 100 100 100 100 100 100 100 100 100 100 100 100 100 100 100 100 99 100 100 82 82 100 100 87 12 66 100 99 71 50 11
100 98 88 94 100 100 100 100 100 100 100 100 100 100 100 100 100 100 100 100 100 100 100 100 100 100 100 100 100 100 100 100 100 89 99 100 98 100 100 100 100 100 100 100 96 49 67 98 12 5 25 97 48 8
100 100 100 72 100 100 100 100 100 100 100 100 100 100 100 100 100 100 100 100 100 100 100 100 100 100 100 100 100 100 100 95 87 83 90 91 95 94 55 30 42 100 96 44 50 95 97 36 13 20 7 4 2 4
100 100 100 100 100 100 100 100 100 100 100 100 100 100 100 100 100 100 100 100 100 99 100 100 100 100 100 100 100 99 92 93 77 84 55 93 73 74 84 82 100 67 36 34 99 36 12 5 5 5 2 5 5 5
100 100 100 100 100 100 100 100 100 100 100 100 100 100 100 100 100 98 75 100 100 100 100 100 100 100 100 100 100 98 92 88 100 100 100 94 28 50 100 100 100 99 100 100 94 14 5 5 76 1 4 5 5 5
100 100 100 100 100 99 100 100 100 100 100 100 100 100 100 100 100 100 100 100 100 100 100 100 100 100 100 100 100 100 100 100 100 100 100 100 100 100 100 100 100 100 100 88 28 11 52 53 5 1 5 5 5 5
100 100 98 100 100 100 100 100 100 100 100 100 100 100 100 100 100 100 100 100 100 100 100 100 100 100 100 100 100 100 100 100 100 100 82 83 100 100 100 100 100 98 49 19 55 32 23 5 0 5 5 5 5 5
100 100 10 82 100 100 100 100 100 100 100 100 100 100 100 100 100 100 100 100 100 100 100 100 100 100 100 100 100 100 100 100 100 99 99 100 100 100 100 100 100 100 100 98 76 11 5 0 5 5 5 5 5 5
100 100 90 42 96 100 100 100 100 100 100 100 100 100 100 100 100 100 100 100 100 100 100 100 100 100 100 100 100 100 100 100 100 100 100 100 100 100 100 100 100 100 85 12 5 1 0 4 10 14 37 7 11 84
100 100 100 100 95 100 100 100 100 100 100 100 100 100 100 100 100 100 100 100 100 100 100 100 100 100 100 100 100 100 100 100 100 99 92 100 97 86 100 100 99 11 5 5 2 0 4 6 27 60 82 81 100 100
100 100 100 100 100 99 100 99 100 100 98 100 100 100 100 100 100 100 100 100 100 100 100 100 100 100 100 100 100 100 100 90 90 96 100 100 100 100 100 14 0 2 5 4 3 67 9 5 5 8 99 100 100 100
100 100 100 100 99 74 88 62 66 37 76 66 100 100 100 100 100 100 100 100 100 100 100 100 100 100 100 100 100 100 100 100 100 100 100 28 3 5 0 2 5 5 5 5 50 18 36 5 5 34 99 100 100 100
100 100 100 100 99 98 73 56 23 43 8 17 24 63 84 93 100 99 95 100 100 76 66 60 75 78 95 100 100 100 96 100 80 24 5 5 5 5 5 5 5 5 5 6 6 7 5 5 69 100 100 99 90 100
100 100 100 100 100 77 97 69 48 49 45 51 51 33 39 76 73 98 100 100 53 12 5 5 2 0 3 4 5 4 5 5 5 5 5 5 5 5 5 5 6 5 19 14 5 5 5 14 100 100 100 100 100 100
100 100 100 100 68 91 72 72 80 81 91 87 72 98 39 68 96 100 100 96 18 5 5 4 5 5 5 4 5 5 5 5 5 5 5 5 5 5 15 5 85 87 28 5 5 7 9 73 95 100 100 100 100 100
98 96 39 64 53 78 99 100 98 94 96 95 100 100 66 91 86 100 100 22 5 5 5 2 5 5 5 5 5 5 5 6 5 5 1 5 5 5 5 5 5 80 100 69 70 86 65 93 100 100 100 100 100 100
92 88 46 37 92 14 88 100 100 98 100 100 100 94 65 72 74 36 5 6 5 5 5 5 5 3 4 5 5 11 92 85 69 5 4 5 5 5 5 5 6 98 100 100 98 88 97 94 100 98 95 93 95 100
100 100 100 64 12 27 86 96 99 83 100 99 88 100 64 58 49 5 5 5 5 5 5 20 8 5 4 5 5 5 5 5 5 6 32 46 73 83 83 89 88 91 90 88 96 96 92 100 100 99 87 100 100 100
76 84 42 96 93 57 55 86 88 90 41 38 19 43 13 6 5 52 97 96 94 54 27 65 98 90 10 5 5 17 12 66 100 96 100 100 100 94 100 100 100 100 95 92 99 99 100 100 96 97 99 99 100 93
100 85 62 98 100 100 50 83 83 46 49 24 8 20 83 92 99 100 90 87 76 99 93 91 69 22 6 63 94 96 100 100 100 100 100 100 100 100 100 98 91 89 90 94 100 100 100 100 100 100 92 96 82 58
69 76 66 100 83 88 97 80 34 95 95 86 85 77 58 70 99 68 50 30 67 98 94 98 98 89 94 89 69 90 97 96 100 100 100 100 100 100 97 100 100 100 100 100 100 100 100 96 77 89 90 80 93 86
79 99 85 89 79 81 77 89 69 68 65 57 78 18 5 89 97 91 91 77 28 53 37 52 93 96 96 98 96 100 100 99 100 100 100 100 100 100 100 99 98 96 99 100 100 95 100 100 94 88 83 71 88 83
99 85 84 100 44 5 82 86 86 67 81 52 8 90 65 93 97 97 97 83 29 44 84 100 100 100 100 100 100 100 100 100 100 100 100 100 100 100 100 100 100 100 100 100 91 78 90 90 78 77 82 86 85 90
100 100 100 100 98 51 36 25 40 50 76 76 38 98 100 75 91 100 100 98 100 100 100 100 100 100 98 100 100 100 100 100 100 100 100 100 100 100 100 100 100 100 100 84 56 35 14 36 71 71 75 79 89 88

GFSWCAN_prec_cloud_006.txt.gz
Cloud_Cover
100 100 100 100 100 100 100 100 100 100 100 100 100 100 100 100 100 100 100 100 100 100 100 100 100 100 100 99 24 18 5 5 52 100 100 75 98 41 24 43 5 12 8 75 86 100 84 45 100 97 37 7 100 77
100 100 100 100 100 100 100 100 100 100 100 100 100 100 100 100 100 100 100 100 100 100 100 100 100 100 100 100 77 21 5 5 5 41 81 96 100 93 91 6 94 9 7 28 24 5 89 100 97 8 20 91 100 100
100 100 100 100 100 100 100 100 100 100 92 38 87 100 100 100 100 100 100 100 100 100 100 100 100 100 100 100 83 8 5 5 5 5 6 89 100 6 100 48 80 29 10 6 66 5 68 90 52 38 81 92 100 99
100 100 100 100 100 100 100 100 100 100 100 99 57 5 94 100 100 100 100 100 100 100 100 100 100 100 100 100 67 24 16 5 5 5 100 100 100 36 96 5 7 11 55 15 71 89 82 34 63 72 100 100 100 96
100 100 100 100 100 100 100 100 100 100 100 100 100 100 92 52 100 100 100 100 100 100 98 100 100 100 100 100 100 72 74 49 13 100 100 100 50 32 74 79 61 32 14 100 98 94 89 95 97 100 99 69 45 7
100 100 98 100 100 100 100 100 100 100 100 100 100 100 100 72 100 99 100 100 100 100 100 100 100 98 96 100 80 55 75 93 6 52 90 64 5 6 100 100 100 19 11 54 95 100 100 100 76 17 44 80 10 60
100 100 100 100 100 100 100 100 100 100 100 100 100 100 100 100 100 86 95 100 100 100 100 100 58 98 100 100 98 100 100 97 71 79 98 48 24 90 100 100 98 53 91 100 100 100 100 99 74 10 14 5 5 5
100 100 100 100 100 100 100 100 100 100 100 100 100 100 100 100 100 99 100 100 100 100 99 100 96 100 100 100 100 100 100 100 100 90 100 98 76 100 100 96 73 60 93 100 97 84 100 62 5 34 43 5 5 5
100 100 100 100 100 100 100 100 100 100 100 100 100 100 100 100 100 100 100 100 100 100 100 100 100 100 100 100 100 100 100 100 95 100 100 99 100 100 99 82 47 92 100 100 78 55 11 14 16 10 5 5 27 80
100 100 100 100 100 100 100 100 100 100 100 100 100 100 100 100 100 100 100 100 100 100 100 100 100 100 100 100 100 100 100 100 100 100 100 100 100 100 100 100 100 100 100 100 62 57 25 62 97 61 43 84 79 43
100 100 100 100 100 99 100 100 100 100 100 100 100 100 100 100 100 100 100 100 100 100 100 100 100 100 100 100 100 100 100 100 100 98 100 100 100 100 100 100 100 100 100 76 70 86 64 10 11 80 41 43 15 60
100 100 100 100 100 100 100 100 100 100 100 100 100 100 100 100 100 100 100 100 100 100 100 100 100 100 100 100 100 100 100 100 100 69 100 97 100 100 100 100 100 96 90 14 5 10 26 73 77 59 22 29 5 91
100 100 100 100 100 96 100 100 100 100 100 100 100 100 100 100 100 100 100 100 100 100 100 100 100 100 100 100 100 100 100 100 77 100 62 79 63 38 34 85 100 65 12 17 84 77 97 100 99 97 57 46 5 19
92 47 100 100 99 100 100 100 100 100 100 100 100 100 100 100 100 100 100 100 95 100 100 100 100 100 100 100 100 100 100 100 99 98 79 89 30 60 89 100 100 85 46 92 92 66 84 32 55 88 100 21 16 48
68 31 100 100 100 100 100 100 100 100 100 100 100 100 100 100 100 100 100 100 100 100 100 100 100 100 100 100 97 100 100 94 89 100 63 21 53 98 100 99 47 5 15 32 72 24 84 67 49 80 65 55 61 22
70 98 94 42 99 100 100 100 100 100 100 100 100 100 100 100 100 100 100 100 100 100 100 100 100 99 100 100 87 100 100 100 100 100 68 68 99 100 94 8 41 75 92 100 98 100 100 79 77 100 100 83 7 13
91 100 98 15 71 100 100 100 100 100 100 100 100 100 100 100 100 100 100 100 100 100 100 100 100 100 100 100 100 100 100 97 74 70 98 100 100 90 98 100 100 100 100 100 100 100 100 100 81 65 60 5 6 46
83 100 100 63 97 99 100 96 100 100 100 100 100 100 100 100 100 100 100 100 100 100 100 100 100 100 100 100 100 100 93 89 100 100 100 100 100 100 100 100 100 100 100 100 100 100 100 100 93 11 5 5 33 91
100 100 100 100 96 100 100 100 100 100 100 100 100 100 100 100 100 100 100 100 100 100 100 100 100 100 100 100 100 80 97 100 100 100 100 100 100 100 100 100 100 100 100 100 100 34 32 5 5 5 6 26 99 97
100 100 100 100 99 92 100 100 100 95 99 100 100 100 100 100 100 100 100 100 100 100 100 100 100 100 100 100 100 100 100 100 100 100 100 100 100 100 100 100 100 100 67 7 5 5 5 5 5 13 42 61 97 73
100 100 100 100 100 99 92 100 100 100 100 91 95 94 100 100 100 100 100 100 100 100 100 100 100 100 100 100 100 100 100 100 100 100 100 100 100 100 100 99 5 5 5 5 10 5 5 10 5 18 74 91 100 99
100 100 100 100 100 100 100 84 28 52 97 99 100 100 100 100 100 100 99 100 100 100 100 100 100 100 100 100 100 100 100 100 100 100 99 77 32 5 4 5 5 8 5 53 5 55 19 5 14 31 27 82 100 100
100 100 100 100 100 100 100 64 16 79 48 61 22 23 54 83 80 81 100 87 23 5 13 21 7 1 2 2 1 0 1 5 1 0 2 2 0 2 5 5 5 49 27 7 5 15 35 7 19 96 83 100 100 100
100 100 100 100 100 100 100 100 83 74 67 63 7 5 5 55 84 100 94 72 5 5 3 2 0 0 3 4 5 0 4 5 5 3 5 5 5 0 4 5 5 5 6 5 17 46 60 99 72 92 92 100 100 100
100 100 100 100 100 100 100 100 96 82 89 88 91 60 73 88 93 92 71 5 5 2 13 0 0 0 0 0 0 0 0 1 5 5 3 5 5 7 5 5 14 13 9 97 100 82 100 100 99 97 97 100 100 100
100 100 100 100 98 97 98 88 95 96 92 92 84 89 92 84 43 4 2 3 5 6 78 67 3 0 0 0 1 4 5 53 6 5 4 5 5 62 99 100 100 94 86 85 97 98 100 100 100 93 100 100 100 100
95 95 100 100 82 75 67 96 86 89 98 90 69 90 85 7 5 0 0 4 5 16 9 5 6 4 5 22 40 65 56 45 22 14 35 81 98 98 99 99 100 100 100 100 100 100 100 100 100 100 99 100 100 100
69 64 27 85 65 38 5 42 42 64 7 5 23 45 5 5 2 23 56 80 93 95 99 100 99 97 77 81 88 100 100 100 100 100 100 100 95 100 100 100 100 100 100 100 100 98 97 100 100 100 100 100 100 100
77 66 100 100 100 91 32 5 5 5 5 5 5 12 67 18 96 85 84 97 98 87 59 50 68 96 94 89 94 99 99 98 99 89 96 100 100 100 100 100 100 100 100 100 100 96 99 100 100 96 100 100 100 100
94 90 72 100 99 44 5 5 19 43 59 86 91 85 92 100 100 100 100 99 95 99 99 100 100 100 100 100 100 100 100 100 100 100 100 100 100 100 100 100 100 100 100 100 100 100 100 100 98 97 95 97 100 100
82 100 93 88 69 15 67 85 79 78 15 12 39 24 57 100 100 100 100 100 100 100 100 100 100 100 100 100 100 100 100 100 100 100 100 100 100 100 100 100 100 100 100 100 100 100 100 99 100 100 100 100 100 100
96 97 98 99 45 60 66 67 65 56 40 9 33 91 100 100 100 100 100 100 100 100 100 100 100 100 100 100 100 100 100 100 100 100 100 100 100 100 100 100 100 100 100 100 100 100 100 100 100 100 100 100 100 100
100 100 100 99 88 91 46 20 5 5 14 6 77 100 100 99 100 100 100 99 100 100 100 100 100 100 100 100 100 100 100 100 100 100 100 100 100 100 100 100 100 100 100 100 100 100 100 100 100 100 100 100 100 100

GFSWCAN_prec_cloud_009.txt.gz
Cloud_Cover
100 100 100 100 100 100 100 100 100 50 100 100 100 100 100 100 100 100 100 100 100 99 100 100 100 43 21 36 100 100 100 100 100 99 96 50 97 5 5 5 7 30 28 77 76 78 70 24 63 59 75 55 55 23
100 100 100 100 100 100 100 100 100 100 100 100 100 100 100 100 100 100 100 100 100 100 100 100 100 100 100 96 100 100 100 100 100 100 100 77 98 88 25 5 5 5 7 24 58 28 90 100 100 100 100 95 98 98
100 100 100 100 100 100 100 100 100 100 100 100 100 100 100 100 100 100 100 100 100 100 100 100 100 100 100 100 100 44 15 61 15 6 8 83 100 6 98 5 10 27 4 29 44 58 97 60 100 100 81 100 13 80
100 100 100 100 100 100 100 100 100 100 100 100 100 100 100 100 100 100 100 99 83 100 100 100 100 100 100 100 100 42 84 94 92 96 97 100 100 5 74 5 41 81 5 10 70 33 56 73 51 99 86 56 99 97
100 100 100 100 100 100 100 100 100 100 100 100 100 100 100 100 100 100 100 100 98 99 89 100 100 100 100 100 96 98 100 100 100 100 100 81 5 9 73 44 98 100 10 26 41 98 29 90 98 100 100 94 74 31
100 100 100 98 100 100 100 100 100 100 100 100 100 100 100 100 100 100 100 100 100 100 100 100 100 100 100 100 100 100 100 100 100 97 88 26 42 19 100 67 100 100 88 6 82 31 36 68 97 100 100 66 5 5
98 84 100 85 80 98 100 99 100 100 100 100 100 100 100 100 100 82 89 100 100 100 100 100 89 93 100 100 100 100 100 100 100 62 82 74 38 16 100 86 100 75 59 70 76 44 48 100 100 68 91 74 13 5
92 100 99 97 76 98 90 98 100 100 100 100 100 100 100 100 100 100 95 100 82 98 100 98 93 88 100 100 100 100 100 100 99 51 87 100 83 100 100 100 100 58 32 32 12 64 100 100 100 89 63 6 5 18
69 100 74 37 71 66 83 97 95 100 100 100 100 100 100 100 100 100 100 100 100 98 60 100 100 93 92 100 100 100 100 100 100 100 100 85 100 98 100 98 63 37 16 68 98 92 99 81 46 29 51 42 13 5
100 92 100 44 82 86 89 47 95 100 100 100 100 100 100 100 100 100 100 100 100 100 95 100 100 100 100 100 100 100 100 100 100 100 100 100 100 81 100 100 100 71 71 70 79 60 28 88 100 100 100 52 20 5
100 100 72 100 66 100 99 100 99 100 100 100 100 100 100 100 100 100 100 100 100 100 100 100 100 100 99 100 100 100 100 100 100 100 100 100 72 100 100 100 100 100 98 97 78 98 100 100 100 97 49 29 5 6
12 97 100 73 100 100 84 100 100 100 100 100 100 100 100 100 100 100 100 100 100 99 100 100 100 99 100 98 97 100 100 100 100 85 100 94 99 100 98 100 100 84 93 96 93 72 98 100 65 5 5 10 26 21
10 55 100 100 100 100 100 100 100 100 100 100 100 100 100 100 100 100 100 100 100 100 100 100 100 100 100 100 100 100 100 100 100 100 77 46 92 100 100 98 86 70 50 8 5 38 100 86 92 37 9 9 36 5
8 28 70 100 100 100 100 100 100 100 100 100 100 100 100 100 100 100 100 100 100 100 100 100 100 100 100 100 100 100 100 100 100 100 81 100 100 96 100 87 99 84 38 21 80 97 68 41 30 35 96 18 20 10
2 5 18 18 92 100 100 100 100 100 100 100 100 100 100 100 100 100 100 100 100 100 100 100 100 100 100 100 100 100 100 100 82 92 100 100 100 100 100 100 98 35 60 82 22 6 45 61 48 6 31 30 38 92
5 9 41 33 79 100 100 100 100 100 100 100 100 100 100 100 100 100 100 100 100 100 100 100 100 100 100 100 100 100 100 100 100 100 100 100 100 100 100 61 14 50 89 76 92 94 90 53 37 38 62 74 100 100
5 87 15 5 14 100 100 100 100 100 100 100 100 100 100 100 100 100 100 100 100 100 100 100 100 100 100 100 100 100 100 100 100 100 100 100 100 96 33 96 100 100 99 70 21 40 85 82 60 84 97 66 100 16
90 88 63 9 52 100 100 98 95 100 100 100 100 100 100 100 100 100 100 100 100 100 100 100 100 100 100 100 100 100 82 100 100 100 100 100 100 99 100 96 84 99 68 60 98 100 100 98 87 82 24 7 5 10
82 97 100 100 98 100 100 100 98 85 91 100 100 100 100 100 100 100 100 100 100 100 100 100 100 100 100 100 100 100 100 100 100 100 100 100 100 95 81 98 100 100 100 100 100 100 100 97 17 5 5 8 9 62
100 100 100 100 100 98 100 97 100 100 92 96 100 100 100 100 100 100 100 100 100 100 100 100 100 100 100 100 100 100 100 100 100 100 100 100 100 100 100 100 100 100 100 100 100 80 8 6 5 5 8 5 17 54
100 100 100 100 100 100 98 87 100 100 93 80 100 86 100 100 100 100 100 100 100 100 100 100 100 100 100 100 100 100 100 100 100 100 100 100 100 100 100 100 100 100 100 60 5 5 5 5 5 5 91 90 100 96
100 100 100 100 100 94 82 21 88 100 100 100 79 82 89 100 100 100 100 100 95 97 100 100 100 100 100 100 100 100 100 100 100 100 100 100 99 78 29 4 4 1 1 22 5 39 33 23 12 29 93 100 96 98
100 100 100 100 100 95 100 81 79 41 87 96 100 97 98 100 90 71 94 49 15 2 4 5 5 5 4 1 3 2 15 20 32 17 4 4 5 3 5 5 5 45 25 5 6 5 5 29 98 100 100 100 94 94
100 100 100 100 100 100 86 100 96 82 67 74 72 53 50 80 70 84 52 5 2 2 3 0 0 0 2 0 0 0 0 0 0 2 5 5 5 5 5 5 5 5 12 43 29 48 61 96 100 100 100 100 100 100
100 100 100 100 100 100 100 100 100 100 100 100 99 52 75 66 59 20 5 2 6 24 30 5 0 0 1 5 5 26 22 6 5 5 30 8 6 5 5 5 11 15 49 87 100 98 100 100 100 100 100 100 100 100
100 100 100 100 100 100 100 100 100 100 100 100 88 84 78 93 68 19 5 61 88 58 82 70 38 44 37 91 53 32 24 17 21 20 59 73 67 85 90 100 82 31 66 79 100 100 100 99 100 100 98 100 100 100
100 100 100 100 100 100 100 100 100 100 100 100 92 87 78 20 5 24 53 64 95 96 98 96 76 60 66 69 79 98 100 100 100 100 100 100 100 100 100 100 100 100 99 100 100 100 100 97 100 100 100 100 100 100
100 100 100 100 100 100 100 100 75 26 25 10 44 55 5 5 39 94 97 96 93 94 96 100 100 100 98 100 100 100 100 100 97 79 80 79 100 100 100 100 100 100 100 100 100 100 100 100 100 100 100 100 100 100
100 100 87 83 73 44 6 5 5 6 5 5 30 11 73 63 100 100 98 98 100 100 95 94 93 95 96 100 100 100 100 100 100 97 100 100 100 99 100 100 100 100 100 100 100 100 100 100 100 100 100 100 100 100
99 100 82 87 32 7 81 11 79 90 9 10 31 36 16 100 100 100 100 100 100 100 100 100 100 100 100 100 100 100 100 100 100 100 100 100 100 100 100 100 100 100 100 100 100 100 100 100 100 100 100 100 100 100
100 100 100 95 83 94 100 87 88 68 60 84 88 91 100 100 100 100 100 100 100 100 100 100 100 100 100 100 100 100 98 100 100 100 100 100 100 100 100 100 100 100 100 100 100 100 100 100 100 100 100 100 100 100
100 100 100 100 100 98 82 100 100 100 99 99 95 100 100 100 100 100 100 100 100 100 100 100 100 100 100 100 100 100 100 100 100 100 100 100 100 100 100 100 100 100 100 100 100 100 100 100 100 100 100 100 100 100
100 100 100 100 99 100 92 57 27 29 48 84 97 98 100 100 99 100 100 100 100 100 100 100 100 100 100 100 100 100 100 100 100 100 100 100 100 100 100 100 100 100 100 100 100 100 100 100 100 100 100 100 100 100

GFSWCAN_prec_cloud_012.txt.gz
Cloud_Cover
100 100 100 100 100 100 100 100 100 100 100 100 100 100 100 100 100 100 100 100 100 100 100 94 91 46 95 54 91 42 5 24 61 95 100 100 89 100 92 32 26 32 26 73 74 84 33 5 30 13 36 8 63 57
100 100 100 100 100 100 100 100 100 100 100 100 100 100 100 100 100 100 100 100 100 100 100 100 100 100 100 100 100 100 62 94 96 100 100 74 90 77 72 27 19 3 7 5 4 5 4 68 82 5 5 5 48 96
100 100 100 100 100 100 100 100 100 100 100 100 100 100 100 100 100 100 100 100 100 100 100 100 100 100 100 100 100 100 100 100 100 100 96 89 100 70 100 100 100 28 100 6 5 2 4 18 96 79 24 82 31 100
100 100 100 100 100 100 100 100 100 100 100 100 100 100 100 100 100 100 98 70 99 100 100 100 100 100 100 100 100 100 100 100 100 100 100 100 97 100 100 100 100 100 100 94 5 3 28 72 5 5 18 100 100 99
100 100 100 100 100 100 100 100 100 100 100 100 100 99 100 100 100 100 100 100 100 64 97 100 100 100 100 90 94 94 100 100 100 100 100 100 36 99 38 55 100 100 100 57 5 52 100 92 68 68 51 100 100 100
100 100 100 100 100 100 100 100 100 100 100 100 100 100 100 100 100 100 100 94 100 100 100 100 100 75 33 48 100 100 100 100 100 100 100 100 100 100 100 100 100 100 100 99 99 100 75 51 66 84 100 100 100 100
100 100 100 100 100 100 100 100 100 100 100 100 100 100 100 100 100 100 100 100 100 100 100 100 100 100 100 100 100 100 100 100 100 100 83 100 100 84 100 87 100 100 100 100 100 78 25 15 34 90 100 100 100 98
100 100 96 100 100 100 100 100 100 100 100 100 100 100 100 100 100 100 100 100 100 100 100 97 100 100 100 100 100 100 100 100 100 100 61 100 100 90 100 100 100 100 100 100 6 12 40 72 100 100 100 100 70 30
100 100 100 100 99 100 55 100 100 100 100 100 100 100 100 100 100 100 100 100 100 100 100 100 100 100 100 100 100 100 100 100 94 100 100 80 100 94 100 100 100 88 93 10 9 63 92 98 80 70 50 9 5 18
100 100 100 100 100 100 100 100 90 100 100 100 100 100 100 100 100 100 100 100 100 100 82 100 100 100 100 100 100 100 100 100 100 88 89 100 100 100 100 100 100 59 99 65 98 49 99 82 42 30 16 78 75 100
100 100 100 100 99 36 70 100 100 100 100 100 100 100 100 100 100 100 100 100 100 100 100 100 90 100 100 100 100 100 100 100 100 91 100 100 100 100 100 100 100 96 100 100 100 100 86 96 72 81 86 98 82 28
100 100 100 100 99 99 72 86 100 100 100 100 100 100 100 100 100 100 100 100 100 100 100 100 100 100 100 100 100 100 100 100 100 90 100 96 73 77 100 100 100 100 100 100 96 92 75 72 61 78 60 66 59 55
100 100 100 100 100 100 100 94 100 100 100 100 100 100 100 100 100 100 100 100 100 100 100 100 100 100 100 100 100 100 100 100 100 98 95 86 100 100 100 100 100 100 100 97 99 99 100 100 100 97 93 90 63 79
100 100 96 100 100 100 100 100 100 99 99 100 100 100 100 100 100 100 100 100 100 100 100 100 100 100 100 100 100 100 100 100 100 100 88 100 100 100 97 100 100 93 100 90 100 100 100 100 100 100 100 100 83 90
7 71 100 100 100 100 96 100 100 99 100 99 100 100 100 100 100 100 100 100 100 100 100 100 100 100 100 100 100 100 100 100 100 100 100 100 100 100 100 100 100 97 97 100 100 100 100 100 100 100 100 100 92 93
1 9 89 29 26 52 100 100 100 100 93 100 100 100 100 100 100 100 100 100 100 100 100 100 100 100 100 100 100 100 100 100 100 100 100 100 100 100 100 100 100 100 100 100 100 100 100 100 100 100 94 80 69 98
7 91 42 5 61 90 96 97 100 100 98 91 99 100 100 100 100 100 100 100 100 100 100 100 100 100 100 100 100 100 100 100 100 100 100 100 100 100 100 100 100 100 100 100 100 100 100 100 100 100 100 100 100 100
83 79 90 100 92 91 96 100 86 79 98 100 91 98 100 100 100 100 100 100 100 100 100 100 100 100 100 100 100 100 100 100 100 100 100 100 100 100 100 100 100 100 100 100 100 100 100 100 100 100 100 100 77 3
91 86 30 100 98 100 100 88 80 68 94 98 100 100 100 100 100 100 100 100 100 100 100 100 100 100 100 100 100 100 100 100 100 100 100 100 100 100 100 100 100 100 100 98 100 100 100 100 100 35 5 5 5 5
40 40 97 100 100 92 95 64 41 97 79 72 92 100 100 100 100 100 100 100 100 100 100 100 100 100 100 100 100 100 100 100 100 100 100 100 100 100 100 100 100 100 100 100 100 100 100 18 1 1 0 10 15 86
100 100 100 100 100 98 52 90 86 63 69 100 100 95 100 100 100 100 100 100 100 100 100 100 100 100 100 100 100 100 100 100 100 100 100 100 100 100 100 100 100 100 87 94 66 4 3 4 2 5 89 98 100 100
100 100 100 100 100 66 37 31 71 58 84 100 100 100 100 100 100 100 96 79 67 96 100 100 100 100 100 100 100 100 100 100 100 100 100 100 100 100 100 93 8 1 0 1 9 8 15 5 5 5 90 100 100 100
100 100 100 100 100 92 90 63 89 88 84 100 100 100 100 100 100 75 98 58 30 5 5 24 63 94 72 47 4 0 0 2 0 0 2 2 3 5 5 6 43 58 61 34 5 5 5 11 18 98 100 100 100 100
100 100 100 100 100 100 89 94 63 59 83 99 100 90 78 98 49 78 74 26 19 5 4 4 4 2 2 0 0 26 5 5 1 5 5 5 8 5 8 5 7 47 76 35 33 69 47 39 18 88 100 100 96 98
100 100 100 100 100 84 100 100 95 85 98 97 68 80 66 65 86 63 8 54 90 100 100 72 5 5 49 70 42 98 48 6 21 8 5 5 11 14 50 18 5 5 7 29 92 100 100 99 96 97 99 99 92 98
100 100 100 100 100 100 100 100 100 100 100 100 99 89 87 92 100 68 71 97 100 100 100 100 81 79 96 74 71 69 88 61 93 88 32 78 67 80 89 100 97 82 78 99 100 100 100 100 98 100 100 100 100 100
100 100 99 100 100 100 100 100 100 100 100 100 100 100 100 98 87 70 88 98 100 100 100 100 100 97 90 92 98 100 100 100 98 98 78 88 100 100 100 100 100 100 85 82 96 100 100 100 100 100 100 100 100 100
100 100 100 100 100 100 100 100 100 100 100 100 100 97 66 42 69 97 100 100 100 100 100 100 99 92 100 100 98 98 92 97 77 33 13 100 100 94 51 100 100 100 100 98 100 100 100 100 96 100 100 100 100 100
100 100 100 100 100 100 100 100 100 95 63 20 74 80 83 98 100 100 100 100 100 100 100 100 98 98 93 97 99 99 100 100 97 81 92 87 69 52 78 92 90 99 95 86 95 100 100 100 100 100 100 100 100 100
100 100 100 100 100 100 100 100 96 94 13 48 38 10 59 100 100 100 100 100 100 100 100 100 100 100 100 100 99 100 100 100 100 100 100 100 100 100 99 100 100 100 100 99 99 95 100 100 100 100 100 100 100 100
100 100 99 94 100 100 100 100 100 99 100 82 77 91 100 100 100 100 100 100 100 100 100 100 100 100 100 100 100 100 100 98 100 98 100 100 100 100 100 100 100 100 100 100 100 100 100 100 100 100 100 100 100 100
100 100 100 94 98 97 100 100 100 100 80 100 89 100 100 100 100 100 100 100 100 100 100 100 100 100 100 100 100 100 100 100 100 100 100 100 100 100 100 100 99 100 100 100 100 100 100 100 100 100 100 100 100 100
93 84 81 80 59 46 83 8 5 5 53 69 96 99 98 99 100 100 100 100 100 100 100 100 100 100 100 99 45 100 100 98 98 100 100 100 90 100 100 100 100 100 99 100 100 100 100 100 100 100 100 100 100 100

GFSWCAN_prec_cloud_015.txt.gz
Cloud_Cover
100 100 100 100 100 100 100 100 100 100 100 100 100 100 100 100 100 100 100 100 100 100 98 12 70 16 5 5 10 54 36 16 83 46 70 81 32 5 51 64 100 5 31 56 62 39 49 0 1 5 5 3 5 5
100 100 100 100 100 100 100 100 100 100 100 100 100 100 100 100 100 100 100 100 100 100 100 100 99 74 85 61 98 62 49 99 86 99 100 100 100 100 100 97 97 20 20 97 100 50 16 0 3 5 2 5 39 6
100 100 100 100 100 100 100 100 100 100 100 100 100 100 100 78 99 100 99 100 100 100 100 100 100 100 100 100 100 100 100 100 100 100 100 100 100 100 100 100 100 100 100 100 63 6 5 5 5 5 5 5 8 60
100 100 100 100 100 100 100 100 100 100 100 100 100 100 100 100 100 92 72 73 100 100 100 100 100 100 100 100 100 100 100 100 100 100 100 100 100 100 100 100 100 100 100 97 5 5 8 5 5 5 5 17 100 99
100 100 100 100 100 100 100 100 100 100 100 100 100 100 100 100 100 100 40 64 90 59 98 100 100 100 100 98 100 100 100 100 100 100 100 95 80 96 91 98 100 100 100 100 43 52 93 5 85 33 78 100 97 100
100 100 100 100 100 100 100 100 100 100 100 100 100 100 100 100 100 100 100 100 100 100 99 88 78 43 34 45 100 100 100 100 100 100 100 80 100 100 100 100 100 100 100 100 85 80 42 52 99 100 100 84 55 88
100 100 100 100 100 100 100 100 100 100 100 100 100 100 100 100 100 100 100 100 100 100 99 88 86 87 76 34 98 100 100 100 100 100 99 100 100 96 100 100 100 100 100 100 100 100 92 100 100 100 98 54 82 100
100 100 100 100 100 100 86 100 100 100 100 100 100 100 100 89 100 100 100 100 100 100 100 83 98 100 100 100 100 100 100 100 100 100 100 100 100 100 100 100 100 100 100 100 100 100 100 99 100 100 97 91 100 63
100 100 100 99 100 100 100 100 93 100 100 100 100 100 100 100 100 100 100 100 100 100 100 100 100 100 100 100 100 100 100 100 100 100 100 82 100 94 100 100 100 100 100 100 100 100 100 100 100 99 100 100 59 42
100 100 100 100 100 100 100 100 100 100 100 100 99 100 100 100 100 100 100 100 99 73 68 100 100 100 100 100 100 100 100 100 100 100 100 100 100 100 100 100 100 100 100 100 100 100 100 100 100 100 100 100 100 100
100 100 100 100 92 100 100 100 100 100 100 100 100 100 100 100 100 100 100 100 100 100 100 99 100 100 100 100 100 100 100 100 100 41 97 71 86 100 100 100 100 100 100 100 100 100 100 100 100 100 100 98 100 76
100 100 100 100 100 100 100 100 100 100 100 100 100 100 100 100 100 100 100 100 100 100 100 100 100 100 100 100 100 100 100 100 100 91 100 100 100 100 100 100 100 100 100 100 100 100 100 100 100 98 100 95 95 100
100 100 100 100 100 100 100 100 100 99 100 100 100 100 100 100 100 100 100 100 100 100 100 100 100 100 100 100 100 100 100 100 100 100 100 100 100 100 100 100 100 100 100 100 100 100 100 100 98 98 100 100 93 54
100 100 100 100 100 100 99 100 100 100 100 100 100 100 100 100 100 100 100 100 100 100 100 100 100 100 100 100 100 100 100 100 100 100 82 100 100 100 100 100 100 100 100 100 100 100 100 100 100 100 100 86 100 100
100 100 100 100 100 100 100 100 100 100 100 100 100 100 100 100 100 100 100 100 100 100 100 100 100 100 100 100 100 100 100 100 100 100 100 100 100 100 100 100 100 100 100 100 100 100 100 100 100 100 100 100 100 100
100 100 100 100 100 100 100 100 100 100 100 100 100 100 100 100 100 100 100 100 100 100 100 100 100 100 100 100 100 100 100 100 100 100 100 100 100 100 100 100 100 100 100 100 100 100 100 100 100 100 100 100 100 100
96 99 62 100 100 100 100 100 100 100 100 100 100 100 100 100 100 100 100 100 100 100 100 100 100 100 100 100 100 100 100 100 100 100 100 100 100 100 100 100 100 100 100 100 100 100 100 100 100 100 100 100 100 100
92 88 98 100 98 96 61 100 98 100 100 100 100 100 100 100 100 100 100 100 100 100 100 100 100 100 100 100 100 100 100 100 100 100 100 100 100 100 100 100 100 100 99 100 100 100 100 100 100 100 100 100 100 100
100 100 68 100 74 97 95 68 57 62 80 100 100 100 100 100 100 100 100 100 96 98 100 100 100 100 100 100 100 100 100 100 100 100 100 100 100 100 100 100 100 100 100 100 100 100 100 100 100 100 100 100 58 3
93 18 66 100 70 42 72 13 18 10 93 46 99 100 91 75 100 100 100 100 100 100 94 84 100 100 100 100 100 100 100 100 100 100 100 100 100 100 100 100 100 100 100 100 100 100 100 100 100 56 5 24 82 93
86 100 100 91 100 89 49 81 100 99 58 94 99 100 100 100 100 100 99 100 100 32 9 5 26 16 91 100 100 100 100 100 100 100 100 100 100 100 100 100 100 100 100 100 100 100 100 24 6 10 96 100 59 27
100 98 100 100 100 92 44 76 64 12 89 57 100 96 100 99 100 100 96 76 85 5 5 5 5 5 5 5 5 2 44 80 95 100 100 100 100 100 100 96 93 80 80 75 68 34 5 18 54 52 57 68 100 100
100 100 100 100 100 100 100 94 80 78 62 94 98 91 98 100 100 96 95 90 53 11 5 17 14 5 4 3 5 0 0 0 2 4 3 5 5 5 4 5 5 5 9 11 74 96 85 88 49 22 66 84 100 100
96 100 96 100 100 100 91 100 84 92 100 100 100 100 97 100 42 81 78 91 72 34 24 6 5 5 1 0 53 76 55 8 5 5 5 15 65 76 54 40 10 7 70 71 62 70 85 96 100 99 100 100 100 100
100 45 88 100 100 100 61 100 100 76 96 99 100 91 45 38 73 25 11 73 100 59 61 5 5 5 77 36 78 78 61 8 59 71 5 10 6 8 7 64 28 100 100 99 95 91 88 92 92 86 77 82 100 98
74 97 57 90 99 97 87 96 100 88 96 85 84 49 40 72 74 40 79 100 100 85 91 82 78 69 28 60 55 85 91 50 24 68 91 42 97 99 98 95 99 52 42 98 100 100 100 87 96 76 78 80 91 100
100 100 100 100 100 100 100 100 100 100 100 96 99 100 100 100 98 96 100 100 100 100 100 100 100 86 99 92 49 100 91 95 76 68 12 100 100 100 98 99 99 99 74 98 100 100 100 99 96 95 100 95 100 100
100 100 100 100 100 100 100 100 100 100 100 100 100 100 100 100 100 100 100 100 100 100 100 100 91 66 92 98 96 85 35 7 5 5 70 100 72 5 6 54 95 27 12 95 100 100 100 100 100 100 99 99 100 100
100 100 100 100 100 100 100 100 100 100 100 100 100 100 100 100 100 100 100 100 100 100 97 84 86 98 100 91 98 69 52 9 5 10 47 60 36 33 80 89 96 81 96 100 90 100 100 100 100 100 100 100 100 100
100 100 100 100 100 100 100 100 100 100 100 100 100 99 96 100 100 100 100 99 95 98 100 99 99 82 62 62 46 44 100 83 64 68 99 98 100 94 68 99 100 100 100 100 100 73 95 100 100 100 100 100 100 100
100 100 100 100 100 100 100 100 100 100 99 98 52 94 96 99 99 99 97 99 75 38 75 73 87 69 65 78 97 72 61 41 65 100 99 86 99 68 52 58 48 98 99 56 84 95 99 90 100 100 100 100 100 100
100 100 100 100 97 78 100 100 92 93 70 100 93 100 99 94 93 84 89 98 92 64 71 62 80 96 46 100 96 80 100 96 63 12 97 100 88 78 31 5 55 90 100 14 68 90 100 91 100 100 100 100 100 100
72 41 61 34 88 98 77 5 8 54 56 63 100 100 100 98 94 100 100 99 48 52 63 52 20 58 100 100 68 85 67 23 30 94 98 100 99 41 10 51 96 99 78 8 83 100 100 99 100 100 100 100 100 100

GFSWCAN_prec_cloud_018.txt.gz
Cloud_Cover
100 100 100 100 100 100 100 100 100 100 100 100 100 100 100 100 100 100 100 100 100 100 36 10 27 97 83 66 5 6 23 96 85 56 71 83 34 33 17 67 98 100 100 100 100 100 100 32 5 9 12 51 6 71
100 100 100 100 100 100 100 100 100 100 100 100 100 100 100 100 100 100 100 100 100 99 43 95 100 72 26 9 7 5 42 31 5 40 54 84 40 97 100 100 100 100 100 100 100 100 100 100 79 42 5 82 100 100
100 100 100 100 100 100 100 100 100 100 100 100 100 100 100 100 100 100 100 100 100 100 100 100 100 100 93 94 89 64 41 61 99 100 100 100 100 100 100 100 100 100 100 100 93 100 100 26 56 56 54 97 99 19
100 100 100 100 100 100 100 100 100 100 100 100 100 100 100 100 100 100 100 100 100 100 100 100 100 100 100 100 100 100 100 100 100 100 100 100 100 100 100 100 100 100 100 78 6 78 6 95 86 5 12 99 90 100
100 100 100 100 100 100 100 100 100 100 100 100 100 100 100 100 98 60 94 100 100 100 100 100 100 100 100 100 100 100 100 100 100 100 100 100 91 100 100 100 100 100 100 81 6 12 8 61 12 5 93 100 100 100
100 100 100 100 100 100 100 100 100 100 100 100 100 100 100 100 100 100 100 100 100 100 100 97 98 99 68 22 29 80 100 100 100 100 100 99 100 100 100 100 100 100 100 100 82 100 100 100 67 100 100 100 100 98
100 100 100 100 100 100 100 100 100 100 100 100 100 100 100 100 100 100 97 100 99 54 46 97 79 92 80 96 100 100 51 5 11 81 100 98 100 100 100 100 100 100 100 100 100 100 100 100 100 100 100 100 91 75
100 100 100 100 100 100 100 100 100 100 100 100 100 100 100 100 100 100 100 100 100 100 89 82 100 100 100 100 100 100 100 100 84 72 94 100 97 100 100 100 100 100 100 100 100 100 100 100 100 100 100 100 100 72
100 100 100 100 100 100 100 100 100 100 100 100 68 100 94 100 94 94 98 100 100 100 99 100 100 100 100 100 100 100 100 100 73 95 100 53 100 82 100 100 100 100 100 100 100 100 100 100 100 100 100 100 100 90
100 100 100 100 100 100 100 100 100 100 100 90 37 71 97 99 100 92 82 72 100 70 99 100 100 100 100 100 100 100 100 100 100 56 98 100 100 100 100 100 100 100 100 100 100 100 100 100 100 100 100 100 100 100
100 100 100 96 100 100 100 100 100 100 100 99 93 100 100 100 100 100 100 100 100 100 100 100 100 100 100 100 100 100 100 100 100 76 99 59 100 100 100 100 100 100 100 100 100 100 100 100 100 100 100 100 100 100
100 100 100 100 100 100 100 99 100 100 100 100 99 100 100 100 100 100 98 100 100 100 100 100 100 100 100 100 100 100 100 100 100 100 100 100 100 100 100 100 100 100 100 100 100 100 100 100 100 100 100 93 100 100
100 100 100 100 100 100 100 100 100 100 100 100 100 100 100 100 100 100 100 100 100 100 100 100 100 100 100 100 100 100 100 100 97 100 97 100 100 100 100 100 100 100 100 100 100 100 100 100 100 100 100 100 98 86
99 100 99 100 100 100 100 100 100 100 100 100 100 100 100 100 100 100 100 100 100 100 100 100 100 100 100 100 100 100 100 100 100 100 91 100 100 100 100 100 100 100 100 100 100 100 100 100 100 100 100 100 100 100
100 100 100 100 100 100 100 100 99 100 100 100 100 100 97 100 100 100 100 100 100 100 100 100 100 100 100 100 100 100 100 100 100 100 100 100 100 100 100 100 100 100 100 100 100 100 100 100 100 100 100 100 100 100
100 100 100 100 100 97 100 100 100 100 100 100 100 100 100 100 100 100 100 100 100 100 100 100 100 100 100 100 100 100 100 100 100 100 100 100 100 100 100 100 100 100 100 100 100 100 100 100 100 100 100 100 100 100
100 100 100 100 100 100 100 100 100 100 100 100 100 100 100 100 100 100 100 100 100 100 100 100 98 100 100 100 100 100 100 100 100 100 100 100 100 100 100 100 100 100 100 100 100 100 100 100 100 100 100 100 100 100
100 97 99 100 100 100 100 100 100 100 100 100 100 100 100 100 100 100 100 100 100 100 100 100 100 100 100 100 100 100 100 100 100 100 100 100 100 100 100 100 100 100 100 100 100 100 100 100 100 100 100 100 100 100
100 100 100 100 100 100 93 92 100 100 100 100 100 100 100 100 100 100 100 100 100 100 100 100 100 100 100 100 100 100 100 100 100 100 100 100 100 100 100 100 100 100 100 100 100 100 100 100 100 100 100 100 100 100
100 99 74 100 98 100 100 98 100 85 94 100 100 100 100 100 100 100 100 100 100 100 98 87 70 100 100 99 83 45 32 47 48 90 64 99 100 100 100 100 100 100 100 100 100 100 100 100 100 100 65 55 99 100
56 20 99 98 86 88 87 95 100 100 100 96 100 100 100 100 100 100 100 100 31 68 28 12 26 7 5 5 5 5 5 5 5 1 0 5 2 0 3 0 2 5 6 5 8 5 7 21 5 9 95 100 99 66
83 95 90 96 98 95 31 90 81 80 100 99 100 100 100 100 100 100 93 80 79 5 7 6 10 12 6 13 27 61 4 0 0 2 5 4 10 24 36 50 6 22 14 76 100 99 82 67 46 70 94 80 98 100
87 93 100 100 39 83 52 99 94 84 94 99 100 99 98 100 100 90 98 98 74 73 64 45 82 78 88 45 6 38 18 4 22 42 32 27 49 32 6 6 18 80 100 99 92 87 84 23 23 56 81 86 94 100
68 95 100 98 94 74 89 100 99 100 100 100 100 100 97 100 96 90 56 94 98 82 87 46 18 54 52 84 100 100 42 5 7 13 24 5 13 6 5 55 94 97 96 97 86 78 67 87 30 64 95 88 77 97
99 68 78 75 70 94 100 85 90 92 100 100 100 97 90 82 24 96 42 98 100 100 93 25 56 88 100 100 97 100 80 10 63 67 35 64 90 44 8 6 42 95 80 100 100 100 100 90 100 100 100 95 86 93
96 60 67 64 46 74 100 100 98 100 96 100 100 96 100 86 75 46 96 100 98 100 93 100 99 99 98 96 94 97 96 95 94 73 96 87 90 87 99 96 92 50 61 70 100 100 100 100 100 100 100 80 94 100
90 76 52 72 80 83 100 100 100 100 100 100 100 100 100 95 99 100 99 100 98 100 100 100 100 100 99 92 98 86 25 87 45 29 99 100 94 86 67 99 100 98 56 74 100 100 100 100 100 100 100 100 92 100
85 100 100 100 100 100 100 100 100 100 100 100 100 100 100 100 100 100 100 100 100 100 100 100 100 77 96 100 96 79 100 99 56 100 97 90 84 44 13 59 47 10 11 27 100 100 100 100 100 100 100 100 100 100
100 100 100 100 100 100 100 100 100 100 100 100 100 100 100 100 100 100 100 100 100 100 99 99 95 99 98 94 84 54 16 5 5 44 97 100 62 34 98 18 50 13 6 98 83 5 83 98 99 100 100 100 100 100
100 100 100 100 100 100 100 100 100 100 100 100 100 100 100 100 100 100 100 86 82 90 97 100 100 93 100 86 84 86 100 89 34 55 100 100 100 99 75 71 5 6 86 100 100 38 6 19 44 93 98 100 100 100
100 100 100 100 100 100 100 100 100 100 100 100 100 100 100 99 97 92 93 98 97 81 90 95 94 100 97 86 89 100 89 91 92 98 100 97 99 100 89 6 5 48 97 100 60 68 97 93 74 83 83 87 100 100
100 100 100 100 100 100 91 90 89 71 77 97 92 99 100 87 94 89 100 98 76 93 100 100 100 93 100 100 100 100 100 100 100 98 92 98 85 46 30 29 66 98 91 11 8 77 98 86 69 60 80 81 96 100
38 68 76 84 85 87 49 12 45 66 96 100 100 100 100 99 91 96 100 89 26 71 90 73 70 98 85 93 49 5 20 36 94 54 83 83 48 86 12 79 85 51 35 8 50 86 86 60 39 54 69 72 94 100

GFSWCAN_prec_cloud_021.txt.gz
Cloud_Cover
100 100 100 100 100 100 100 100 100 100 100 100 100 100 100 100 100 100 100 99 60 86 90 100 100 100 100 54 5 5 28 72 48 65 77 49 43 56 100 78 78 33 59 98 100 100 100 100 98 85 94 35 21 51
100 100 100 82 98 100 100 100 100 100 100 100 100 100 100 100 100 100 100 100 100 99 100 97 100 100 100 78 8 17 64 32 5 9 36 51 56 78 45 83 38 98 100 100 100 100 100 44 14 100 76 5 60 83
87 100 100 100 100 100 100 100 100 100 100 100 100 100 100 100 100 100 100 100 100 100 100 100 100 100 100 96 82 60 99 91 5 5 15 93 56 53 91 100 100 100 100 100 100 100 100 17 100 100 90 25 69 100
100 100 99 100 100 100 100 100 100 100 100 100 100 100 100 100 100 100 100 100 100 100 100 99 98 100 100 100 100 100 100 100 89 98 100 100 94 100 100 100 100 100 100 95 43 93 13 96 100 99 66 58 100 100
100 100 100 100 100 100 100 100 100 100 100 100 100 100 100 100 100 100 100 100 100 100 100 100 100 100 100 100 100 100 100 100 100 100 100 100 100 100 99 96 100 100 100 6 5 77 78 100 92 22 22 74 74 100
100 100 100 100 100 100 100 100 100 100 100 100 100 100 100 100 100 100 100 100 100 100 100 100 100 100 100 100 100 100 100 100 100 100 100 97 100 22 100 100 100 100 65 5 10 86 25 6 5 34 91 99 100 100
100 100 100 100 100 100 100 100 100 100 100 100 100 100 100 100 100 100 100 100 100 100 100 99 96 92 100 100 100 100 100 100 100 100 99 100 100 91 98 100 100 100 100 100 100 97 96 100 99 100 100 100 100 100
100 100 100 100 100 100 100 100 100 100 100 100 100 100 100 100 100 100 100 100 100 100 75 81 100 100 100 100 100 100 100 99 88 75 100 98 98 100 100 100 100 100 100 100 100 100 100 100 100 100 100 100 100 100
100 100 100 100 100 100 100 100 100 100 100 100 100 100 100 98 91 100 100 100 100 100 100 100 100 100 100 100 100 97 100 100 90 99 100 64 100 100 100 100 100 100 100 100 100 100 100 100 100 100 100 100 100 100
100 100 100 100 100 100 100 100 100 100 100 100 100 100 100 100 100 100 100 100 96 89 96 100 100 100 100 100 100 100 100 84 100 66 100 100 100 100 100 100 100 100 100 100 100 100 100 100 100 100 100 100 100 100
100 100 100 100 100 100 100 100 100 100 100 100 100 100 100 100 100 100 100 75 84 99 100 100 100 100 100 100 100 78 99 100 100 88 100 100 100 100 100 100 100 100 100 100 100 100 100 100 100 100 100 100 100 100
100 100 100 100 100 100 100 100 100 100 100 100 100 92 100 99 95 97 76 100 100 100 100 100 100 100 100 100 100 100 100 100 100 100 100 100 100 100 100 100 100 100 100 100 100 100 100 100 100 100 100 100 100 100
100 100 100 100 100 100 100 100 100 100 100 100 100 100 100 100 94 100 100 100 100 100 100 100 100 100 100 100 100 100 100 100 100 100 100 100 100 100 100 100 100 100 100 100 100 100 100 100 100 100 100 100 100 100
100 100 100 100 100 100 100 100 100 100 100 100 100 100 100 97 100 100 100 100 100 100 100 100 100 100 100 100 100 100 100 100 100 94 98 100 100 100 100 100 100 100 100 100 100 100 100 100 100 100 100 100 100 100
100 100 100 100 100 100 99 100 100 100 100 100 100 100 100 100 100 100 100 100 100 100 100 100 100 100 100 100 100 98 100 100 100 97 100 100 100 100 98 100 100 100 100 100 98 100 100 100 100 100 100 100 100 100
100 98 89 100 100 100 100 100 100 100 100 100 95 100 100 100 100 100 100 100 100 100 100 100 100 99 100 100 100 100 100 100 100 100 100 100 100 100 100 100 100 97 100 100 100 99 99 100 100 100 100 97 96 100
100 100 100 100 100 100 100 96 94 100 100 100 100 100 98 100 100 100 100 100 100 100 100 100 98 100 96 100 100 100 100 100 100 100 100 100 100 100 100 100 100 100 100 100 100 100 100 100 100 100 100 100 100 100
100 100 100 100 100 100 100 100 100 93 100 100 100 100 100 100 100 100 100 100 100 100 90 100 87 83 98 99 100 100 100 100 100 100 100 100 100 100 100 100 100 100 100 100 100 100 100 100 100 100 100 100 94 83
100 100 100 100 100 76 100 100 100 100 100 100 100 100 100 100 100 100 100 100 100 100 100 100 100 100 100 100 100 100 100 100 100 100 100 100 100 100 100 100 100 100 100 100 90 65 47 6 5 5 5 5 36 64
100 100 100 100 100 100 100 100 100 100 100 100 100 100 100 100 100 100 100 100 100 100 100 100 100 100 100 99 100 100 95 82 74 30 63 99 74 58 41 4 1 5 5 5 21 43 61 19 9 25 53 94 100 100
78 100 100 100 99 84 100 100 100 100 100 100 100 100 100 100 100 100 100 100 100 100 24 47 16 19 10 77 99 60 5 5 5 5 5 5 8 16 25 5 5 5 24 76 100 100 100 100 100 100 100 100 97 99
86 68 97 100 100 99 87 96 100 98 100 100 100 100 100 100 100 100 98 84 94 54 13 24 27 68 89 71 40 22 5 5 6 16 35 28 58 9 15 70 56 97 99 92 85 100 100 99 78 50 76 96 84 74
91 78 72 89 44 58 60 97 96 100 99 100 100 99 100 100 100 97 98 100 96 83 72 86 78 98 100 100 87 78 69 6 56 46 23 38 20 59 92 100 95 90 88 77 92 90 79 49 46 79 80 89 87 86
24 79 97 100 95 68 42 66 82 80 68 81 98 100 99 100 99 99 90 99 100 96 86 85 58 82 87 100 100 61 5 5 51 81 38 49 94 100 100 99 100 98 59 57 58 75 19 59 39 91 88 100 94 99
89 95 100 80 95 79 76 79 63 94 71 91 100 100 97 98 91 100 95 99 100 100 100 98 98 58 99 99 100 92 8 30 68 94 100 100 100 96 14 9 75 100 53 83 96 100 100 80 89 100 100 94 96 100
82 68 91 80 86 93 68 63 99 93 92 100 100 92 100 100 100 96 98 100 100 100 100 100 100 100 100 100 99 100 100 100 100 100 100 13 5 54 84 81 75 27 68 81 100 100 100 100 100 100 100 79 98 100
82 83 89 92 89 87 96 90 100 100 100 100 100 100 100 100 98 96 99 100 100 100 100 100 100 100 100 100 100 100 100 100 63 94 73 73 66 31 12 59 83 52 64 40 97 100 100 100 100 100 100 100 100 100
73 73 86 88 100 100 100 100 100 100 100 100 100 100 100 100 100 100 100 100 100 100 100 100 99 99 100 100 100 100 90 79 100 97 100 73 33 73 55 45 21 42 41 12 92 100 100 100 100 100 100 100 99 85
100 100 100 100 100 100 100 100 100 100 100 100 100 100 100 100 100 100 100 100 100 100 98 100 100 100 99 82 89 97 92 25 5 7 39 100 91 47 82 11 11 5 45 92 74 54 94 99 98 100 100 100 96 79
97 93 94 96 99 100 100 100 100 100 100 100 100 100 100 100 100 100 100 100 100 100 100 100 100 92 100 93 98 89 96 79 69 75 100 100 100 96 94 41 67 94 100 100 90 7 75 39 68 44 8 26 67 94
88 98 100 100 100 100 100 100 100 100 100 100 98 100 98 97 100 100 100 98 99 97 96 92 98 100 88 100 100 100 92 44 99 98 100 100 100 100 93 66 81 100 100 74 34 92 100 91 72 66 40 21 23 54
100 100 100 100 100 100 100 99 98 82 99 100 100 99 91 82 96 100 100 100 95 87 100 100 100 100 91 94 95 93 69 91 100 100 84 100 92 93 85 73 100 98 49 13 42 94 100 91 78 98 100 88 71 61
73 93 82 91 69 88 77 30 51 61 98 100 100 100 100 96 89 100 100 86 19 66 44 57 85 99 86 62 7 9 59 72 95 100 100 100 100 100 100 97 100 84 41 59 57 93 100 94 90 73 74 83 74 51

GFSWCAN_prec_cloud_024.txt.gz
Cloud_Cover
100 100 100 100 100 100 100 100 100 100 100 100 100 100 99 100 100 99 26 6 25 97 100 98 95 92 100 5 16 5 52 88 89 97 69 29 7 42 90 65 44 5 47 30 60 32 69 100 97 80 11 96 100 100
100 100 100 100 100 100 100 100 100 100 100 100 100 100 100 100 100 92 27 33 58 71 98 100 100 100 100 40 5 5 15 5 7 46 82 96 99 100 79 95 39 5 5 5 32 64 54 100 98 25 100 100 100 100
100 100 100 100 100 100 100 100 100 100 100 100 100 100 100 100 100 100 94 42 45 76 65 78 70 100 100 100 100 99 88 18 6 12 63 81 84 100 100 100 99 100 90 100 100 100 100 99 100 100 44 91 98 100
100 100 100 100 100 100 100 100 100 100 100 100 100 100 100 100 100 100 100 100 100 100 100 100 95 100 100 100 100 100 100 100 34 12 80 97 76 90 97 90 100 100 100 100 86 91 27 100 100 88 36 23 93 100
100 100 100 100 100 100 100 100 100 100 100 100 100 100 100 100 100 100 100 100 100 100 100 100 97 100 100 99 100 100 100 100 100 100 100 100 100 100 100 100 100 100 97 6 5 5 7 82 77 71 75 100 100 100
100 100 100 100 100 100 100 100 100 100 100 100 100 100 100 100 100 100 100 100 100 100 100 100 100 100 100 99 96 100 100 100 100 100 100 100 100 93 94 83 100 94 5 5 5 5 12 92 59 53 34 64 66 35
100 100 100 100 100 100 100 100 100 100 100 100 100 100 100 100 100 100 100 100 100 100 100 100 100 100 100 100 100 100 100 100 100 100 100 100 100 81 73 100 100 87 43 83 26 22 33 25 56 94 88 94 100 100
99 100 100 100 100 100 100 100 100 100 100 100 100 100 100 100 100 100 100 100 100 100 100 100 100 100 100 100 100 100 100 100 100 100 100 100 99 100 100 100 100 100 99 85 75 51 34 94 100 100 100 100 100 100
100 100 100 100 100 100 100 100 100 100 100 100 100 100 100 100 100 100 100 100 100 99 84 100 100 100 100 100 100 100 100 100 100 100 100 89 100 100 100 100 100 100 100 100 100 100 100 100 100 100 100 100 100 100
100 100 100 100 100 100 100 100 100 100 100 100 100 100 100 100 100 100 100 100 99 100 100 100 100 100 100 100 100 100 100 94 98 91 100 100 100 100 100 100 100 100 100 100 100 100 92 100 97 100 100 100 100 100
100 100 100 100 100 100 100 100 100 100 100 100 100 100 100 100 98 89 92 61 61 86 100 100 100 100 100 100 100 99 99 98 100 62 100 98 100 100 100 100 100 100 100 100 69 83 97 100 100 100 100 100 100 100
100 100 100 100 100 100 100 100 100 100 100 100 100 100 100 99 100 85 81 100 94 100 100 100 100 100 100 98 100 100 100 100 100 60 100 100 100 100 100 100 100 100 100 100 100 100 100 100 100 100 100 100 100 100
100 100 100 100 100 100 100 100 100 100 100 100 100 100 100 100 100 100 100 100 100 100 100 100 100 100 100 100 100 100 100 100 100 100 100 100 100 100 100 100 100 100 100 100 100 100 100 100 100 100 100 100 100 100
100 100 100 100 100 100 100 100 100 100 100 100 100 100 99 100 100 100 100 100 100 100 100 100 100 100 100 100 100 100 100 100 100 100 100 100 100 100 99 99 100 100 100 100 100 100 100 100 100 100 100 100 100 100
100 100 100 100 100 100 100 100 100 100 100 100 100 100 100 100 100 100 100 100 100 100 100 100 100 100 100 100 100 100 100 100 99 93 100 100 100 97 94 87 98 96 74 89 92 98 98 90 87 94 89 100 100 100
100 99 100 100 100 100 100 100 100 100 100 100 100 100 100 100 100 100 100 100 100 100 100 100 100 90 100 100 88 100 100 99 100 100 100 100 100 100 100 100 100 100 100 100 100 100 100 100 100 100 100 100 100 100
100 100 100 100 100 100 100 100 100 100 100 100 100 100 100 100 100 100 100 100 100 100 100 100 82 100 97 95 100 100 100 100 100 100 100 100 100 100 100 100 100 100 100 100 100 100 100 100 100 100 100 100 100 100
100 100 100 100 100 100 100 100 100 100 100 100 100 100 100 100 100 100 100 100 100 100 100 99 95 98 100 100 100 95 100 100 100 100 100 100 100 100 100 100 100 100 100 100 100 100 99 100 92 89 39 23 16 14
100 100 100 99 100 100 100 100 100 100 100 100 100 100 100 100 100 100 100 100 100 100 100 100 99 100 100 100 100 100 100 100 100 99 100 100 100 83 82 49 55 5 7 22 73 97 92 61 94 100 100 100 100 100
100 100 100 100 100 100 100 100 89 92 100 100 100 100 100 100 100 100 100 100 100 99 96 88 100 100 100 99 94 100 100 89 88 90 55 8 7 13 68 10 22 10 50 100 82 79 100 100 100 100 71 82 97 95
100 100 100 100 100 100 100 95 100 95 100 100 100 100 100 100 100 100 100 100 85 100 100 100 100 100 99 78 99 100 87 25 21 9 33 98 100 98 36 38 50 79 82 63 58 85 90 95 84 73 76 76 73 100
100 100 100 100 100 100 100 100 100 100 100 100 100 100 100 100 100 100 100 100 100 100 73 94 100 100 90 96 100 66 32 12 43 86 22 20 55 60 100 100 97 75 82 99 100 98 60 71 30 44 76 79 66 82
71 90 96 60 100 100 100 100 100 100 100 100 93 96 98 100 98 100 97 99 100 100 100 100 100 100 100 100 100 99 77 55 21 56 76 92 100 100 100 94 50 53 73 47 57 95 79 44 14 56 64 62 66 75
58 77 98 100 100 94 96 78 91 66 50 68 94 82 89 93 98 97 100 100 100 100 100 100 100 100 100 100 100 100 100 98 44 84 84 60 92 96 98 100 97 67 47 19 5 31 38 54 53 56 63 82 90 100
5 34 41 82 80 21 89 93 83 86 94 83 77 84 87 59 98 100 95 100 100 100 100 100 100 100 100 100 100 100 79 61 77 97 93 99 100 100 89 69 86 96 54 80 95 98 86 44 7 16 62 76 100 100
76 81 94 98 87 74 88 83 89 67 89 98 97 95 97 92 92 86 100 100 100 100 100 100 99 100 100 100 100 100 98 100 100 100 100 98 96 100 100 79 44 7 39 97 100 100 100 95 100 92 86 73 86 89
26 58 80 98 98 90 75 81 82 92 99 97 77 89 100 100 95 100 98 100 100 100 100 100 100 100 100 100 99 99 100 100 88 79 93 100 100 66 8 22 85 5 56 62 100 100 100 100 100 100 98 61 100 100
66 88 100 97 94 82 97 83 91 100 100 100 100 100 100 100 100 100 100 100 100 100 100 100 100 100 100 100 100 100 99 100 100 92 100 75 90 69 19 10 21 90 87 72 100 100 100 100 100 100 100 100 99 92
100 98 71 86 88 89 96 100 100 100 100 100 100 100 100 100 100 100 100 100 100 100 100 100 100 100 99 99 98 98 89 98 53 7 43 100 91 20 62 16 44 44 89 100 92 72 91 98 99 98 57 73 62 63
91 82 93 82 74 82 94 96 96 100 100 100 100 100 100 100 100 100 100 100 100 100 100 100 100 100 100 88 100 94 94 100 44 49 100 100 100 100 100 100 100 99 100 100 47 43 92 53 92 35 15 18 8 31
97 100 99 93 92 92 100 99 100 100 100 100 100 100 98 99 98 99 100 100 100 98 94 95 100 100 99 100 100 100 81 48 100 99 100 99 100 100 100 100 98 100 97 58 71 100 100 88 100 88 68 33 26 65
100 100 100 93 91 75 81 80 97 98 100 100 97 99 93 82 94 99 95 99 83 16 97 100 100 100 96 95 95 97 25 91 100 100 100 100 100 100 100 100 100 98 64 58 54 84 100 100 90 95 100 99 78 82
84 96 95 95 92 85 78 51 16 75 98 100 100 100 100 96 87 95 100 97 76 79 59 69 90 100 100 48 17 20 68 92 100 100 100 100 100 100 100 100 100 100 92 87 69 99 100 95 94 85 82 100 79 43

GFSWCAN_prec_cloud_027.txt.gz
Cloud_Cover
100 100 100 100 100 100 100 100 100 100 100 100 60 100 100 100 100 100 100 100 7 25 5 8 86 79 70 30 41 7 15 37 38 31 19 15 77 97 100 40 5 5 29 17 24 20 5 5 5 81 93 85 54 30
100 100 100 100 100 100 100 100 100 100 100 100 100 100 100 100 100 100 100 82 6 5 5 34 66 53 35 20 44 5 9 64 6 5 5 5 95 64 61 96 36 62 24 5 21 7 4 4 5 13 72 99 48 5
100 100 100 100 100 100 100 100 100 100 100 100 100 100 100 100 100 100 100 93 6 5 6 73 99 67 26 47 36 26 7 20 6 6 46 48 12 63 56 16 76 94 10 42 5 36 17 96 100 96 16 5 5 5
100 100 100 100 100 100 100 100 100 100 100 100 100 100 100 100 100 100 96 96 66 19 70 82 68 62 96 92 76 58 68 82 86 93 98 87 52 94 98 28 95 100 100 50 100 100 100 100 73 10 5 5 5 6
100 100 100 100 100 100 100 100 100 100 100 100 100 100 100 100 100 100 100 99 40 5 47 92 46 51 75 88 100 100 100 100 100 100 100 100 100 100 100 100 100 100 100 100 100 54 5 21 30 5 58 44 63 72
100 100 100 100 100 100 100 100 100 100 100 100 100 100 100 100 100 100 100 86 97 6 71 84 56 75 88 83 68 70 90 97 100 99 98 100 100 100 100 100 100 100 100 100 8 5 5 5 5 6 6 6 19 44
100 100 100 100 100 100 100 100 100 100 100 100 100 100 100 100 100 100 100 100 100 100 97 88 93 96 99 100 100 100 95 88 87 95 100 100 100 51 72 92 100 100 100 96 5 5 5 5 17 17 8 31 45 88
100 100 100 100 100 100 100 100 100 100 100 100 100 100 100 100 100 100 100 100 100 100 100 100 100 100 100 100 100 100 100 100 100 100 100 100 100 100 100 100 100 100 98 86 65 26 5 5 20 27 10 47 100 100
100 100 100 100 100 100 100 100 100 100 100 100 100 100 100 100 100 100 100 100 100 100 100 100 100 100 100 100 100 100 100 100 99 100 100 100 100 100 100 100 100 100 100 100 100 98 79 68 100 100 100 100 100 100
100 100 100 100 100 100 100 100 100 100 100 100 100 100 100 100 100 100 100 100 100 100 100 100 100 100 100 100 100 100 100 100 100 100 100 100 100 100 100 100 100 100 100 100 99 97 100 100 100 100 100 100 100 100
100 100 100 100 100 100 100 100 100 100 100 100 100 100 100 100 100 99 98 85 100 100 100 100 100 100 100 100 100 99 100 90 99 100 100 100 100 100 100 100 100 100 100 100 100 100 100 100 100 100 100 100 99 100
100 100 100 100 100 100 100 100 100 100 100 100 100 100 100 100 90 96 100 100 100 100 100 100 100 100 100 100 100 88 79 98 99 83 100 100 100 100 100 100 100 100 100 100 100 100 100 100 100 100 100 100 100 100
100 100 100 100 100 100 100 100 100 100 100 100 100 100 100 100 97 83 100 100 100 100 100 100 100 100 100 100 100 100 100 100 93 98 100 100 100 100 100 100 100 100 100 100 100 100 100 100 100 100 100 100 100 100
100 100 100 100 100 100 100 100 100 100 100 100 100 100 88 74 100 100 100 100 100 100 100 100 100 100 100 100 100 100 100 100 100 100 100 100 100 100 100 100 98 99 94 92 86 78 69 65 71 88 97 96 99 100
100 100 100 100 100 100 100 100 100 100 100 100 100 100 100 100 100 100 100 100 100 100 100 100 100 100 100 100 100 100 95 98 100 99 100 100 100 100 100 100 100 100 100 100 100 100 100 100 100 100 100 100 100 100
100 100 100 100 100 100 100 100 100 100 100 100 99 100 100 100 100 100 100 100 100 100 100 100 100 97 99 96 92 100 100 99 93 100 100 100 100 100 100 100 94 78 73 68 89 96 100 100 100 100 100 100 100 99
100 100 100 100 100 100 100 100 100 100 100 100 100 100 100 100 100 100 100 100 100 100 100 91 98 100 88 97 100 100 98 97 100 100 100 100 100 100 100 97 99 100 100 100 100 100 99 70 28 40 63 64 30 32
100 100 100 100 100 100 100 100 100 100 100 100 100 100 100 100 100 100 100 100 100 100 100 100 100 91 98 100 100 95 100 100 100 100 100 100 99 97 48 6 7 6 9 81 100 88 93 97 98 99 94 63 68 91
100 100 100 100 100 100 100 100 100 100 100 100 100 100 100 100 100 100 100 100 100 100 100 100 99 99 99 97 92 100 95 57 50 63 99 98 78 51 26 68 89 80 100 100 86 86 91 92 90 85 17 5 60 8
100 100 100 100 100 100 100 100 100 100 100 100 100 100 100 100 100 100 99 100 78 70 59 27 34 39 14 9 41 86 74 40 12 76 95 80 84 67 60 91 91 31 16 32 71 42 26 16 39 65 17 12 49 35
100 100 100 100 100 100 100 100 100 100 100 100 100 100 100 100 100 100 100 96 5 93 35 88 70 98 81 98 42 5 11 5 28 47 80 100 76 100 100 94 87 84 84 100 89 27 36 66 64 7 38 63 74 90
100 100 100 100 100 100 100 100 100 100 100 100 95 100 100 100 100 100 100 99 95 83 97 99 100 100 100 100 100 61 71 96 72 57 72 77 89 84 84 40 52 90 100 96 89 96 38 66 27 32 65 75 82 89
100 100 100 100 100 100 100 100 99 100 100 96 81 71 92 85 83 95 100 100 100 100 100 100 100 100 100 100 100 100 100 99 98 83 100 100 100 98 76 50 60 65 65 59 24 26 56 42 30 66 79 85 96 95
100 100 100 100 100 100 87 87 100 100 100 100 100 100 100 100 100 97 100 100 100 100 100 100 100 100 100 100 100 100 100 100 100 98 88 89 99 100 100 99 90 87 87 75 55 40 30 55 50 63 76 93 99 100
13 99 97 86 99 90 100 87 91 98 98 80 94 85 76 76 59 95 93 100 100 100 100 100 100 100 100 100 100 100 100 100 100 100 100 100 100 100 100 96 92 93 86 77 75 91 72 63 72 85 89 98 100 100
99 96 90 100 97 88 100 67 98 92 100 96 92 90 93 95 97 100 100 100 100 100 100 100 100 100 100 100 100 100 100 100 100 100 100 100 100 98 100 96 58 15 62 99 100 100 98 89 100 98 93 86 98 100
64 96 98 100 100 98 90 98 96 98 96 97 100 100 100 100 100 100 100 100 100 100 100 100 100 100 100 100 100 100 100 100 100 100 100 100 100 86 48 17 32 25 98 98 100 100 100 100 100 100 100 97 100 100
100 96 81 81 79 94 87 94 99 100 95 95 98 100 100 100 100 100 100 100 100 100 100 100 100 100 100 100 100 100 100 100 100 100 100 99 71 71 42 23 13 96 77 75 93 88 91 100 100 100 100 99 97 100
82 90 77 74 74 100 92 83 93 88 92 78 70 69 91 100 96 99 100 100 100 100 100 100 100 100 100 100 100 100 100 100 98 38 6 8 11 6 44 75 62 61 94 94 57 72 99 100 99 76 16 60 63 52
60 80 78 81 79 84 92 85 87 90 95 99 100 100 99 99 100 100 100 100 100 100 100 100 98 90 97 69 98 39 86 93 42 12 69 94 73 98 94 100 100 91 100 80 9 11 82 44 48 6 5 5 37 54
100 100 98 93 97 99 96 90 100 100 100 100 97 96 99 98 99 99 100 100 100 100 97 89 78 100 71 98 100 66 22 28 100 100 99 99 100 98 100 100 100 100 100 88 56 83 100 70 78 71 50 36 19 54
89 94 95 63 100 86 67 82 93 84 98 100 98 96 100 96 93 100 98 100 100 60 92 100 95 93 99 100 100 97 38 96 100 100 100 100 100 100 100 100 100 100 100 91 73 63 99 96 81 74 78 68 66 60
92 95 96 98 95 99 82 64 48 70 100 100 100 100 100 98 92 99 100 100 100 100 86 66 82 100 100 99 17 16 39 76 99 100 100 100 100 100 100 100 100 100 100 98 89 82 66 86 70 79 76 71 37 28

GFSWCAN_prec_cloud_030.txt.gz
Cloud_Cover
100 100 100 100 100 100 100 100 100 100 100 100 100 100 100 100 100 80 48 5 95 100 100 7 68 45 38 46 99 52 31 69 31 47 69 14 44 12 5 5 5 12 8 50 6 64 52 5 40 75 54 19 58 100
100 100 100 100 100 100 100 100 100 100 100 100 100 100 100 100 100 100 100 100 100 100 91 5 100 49 18 19 57 46 92 66 100 100 50 63 96 68 7 14 6 6 7 5 5 5 5 5 5 5 5 5 96 100
100 100 100 100 100 100 100 100 100 100 100 100 100 100 100 100 99 100 100 100 100 100 42 5 97 9 5 22 99 97 62 97 46 7 57 86 100 66 81 66 37 51 5 5 5 6 4 3 1 4 95 100 60 5
100 100 100 100 100 100 100 100 100 100 100 100 100 100 100 100 100 100 100 100 100 100 99 10 38 19 5 15 85 96 97 28 13 34 17 66 88 84 42 9 78 54 5 2 5 5 8 44 69 100 100 28 5 5
100 100 100 100 100 100 100 100 100 100 100 100 100 100 100 100 100 100 100 100 100 82 73 11 10 49 81 91 75 64 30 14 6 22 62 64 92 99 95 96 100 100 100 100 100 100 97 88 89 56 6 29 5 5
100 100 100 100 100 100 100 100 100 100 100 100 100 100 100 100 100 99 100 100 100 97 54 88 6 55 96 100 100 93 60 81 46 42 95 100 100 100 100 100 100 100 91 14 5 5 15 63 81 19 6 5 5 5
100 100 100 100 100 100 100 100 100 100 100 100 100 100 100 100 100 100 100 100 100 95 73 94 48 20 40 55 80 96 96 99 100 100 100 100 93 19 85 99 100 100 100 100 100 100 30 5 5 5 5 13 42 98
100 100 100 100 100 100 100 100 100 100 100 100 100 100 100 100 100 100 100 100 100 93 8 66 57 48 73 95 97 92 99 54 87 100 94 100 84 100 100 100 100 100 100 100 99 16 10 28 26 93 100 100 100 100
100 100 100 100 100 100 100 100 100 100 100 100 100 100 100 100 99 100 100 100 100 100 62 100 83 74 88 99 94 98 69 100 85 97 100 92 100 100 100 100 100 100 100 100 92 77 92 99 100 100 100 100 100 100
100 100 100 100 100 100 100 100 100 100 100 100 100 100 100 100 100 100 100 100 100 100 75 100 90 92 98 95 100 100 100 82 97 85 100 100 100 100 100 100 100 100 72 100 100 100 100 100 100 100 100 98 96 100
99 100 100 100 100 100 100 100 100 100 100 100 100 100 100 100 100 100 100 100 100 100 100 100 100 100 100 100 100 100 100 100 99 100 100 100 100 100 100 100 100 98 83 78 100 100 100 100 100 100 100 100 100 89
100 100 100 100 100 100 100 100 100 100 100 100 100 100 100 100 100 87 100 99 100 100 100 100 100 100 100 100 100 100 99 93 98 100 100 100 100 100 100 100 100 100 100 100 100 100 100 100 100 100 100 98 100 100
100 100 98 100 100 100 100 100 100 100 100 100 100 100 100 95 98 100 100 100 100 100 100 100 100 100 100 100 99 100 100 100 52 100 100 100 100 100 100 100 100 100 100 100 100 100 100 100 100 100 100 100 100 38
100 100 100 97 100 100 100 100 100 100 100 100 100 100 100 100 99 100 100 100 100 100 100 100 100 100 100 100 100 100 100 100 100 100 100 100 100 100 100 100 100 100 100 100 100 100 99 98 96 98 90 75 95 97
100 100 100 100 100 95 89 100 100 100 100 100 100 100 100 100 100 100 100 100 100 100 100 100 100 100 100 100 100 100 100 100 96 100 100 100 100 100 100 100 100 100 100 98 57 15 20 34 58 82 86 67 7 5
92 100 100 100 100 100 100 100 100 100 100 100 100 100 100 100 100 100 100 100 100 100 100 100 100 100 100 100 100 100 100 97 99 99 100 100 100 100 100 95 94 85 90 74 54 67 66 34 13 51 50 7 5 31
99 100 100 100 100 100 100 100 100 100 100 100 100 100 100 100 100 100 100 100 100 100 100 100 100 100 100 100 100 100 91 92 98 100 100 100 100 100 100 94 91 69 74 49 22 46 64 58 26 5 5 8 4 5
100 100 100 100 100 100 100 100 100 100 100 100 100 100 100 100 100 100 100 100 100 100 100 100 100 98 85 98 99 97 100 100 100 99 100 100 100 98 77 28 5 9 51 100 100 76 11 5 5 5 2 13 55 52
99 100 100 100 100 100 100 100 100 100 100 100 100 100 100 100 100 100 100 100 100 100 100 100 100 99 100 92 84 100 100 100 100 100 100 100 100 100 100 42 86 100 78 47 5 5 5 5 6 61 70 99 55 7
100 100 100 100 100 100 100 100 100 100 100 100 100 100 100 100 100 100 100 100 100 100 100 100 98 92 90 94 98 100 100 100 51 72 88 100 87 98 76 74 97 90 63 5 5 5 5 55 69 50 28 5 5 5
100 100 100 100 100 99 90 96 100 100 100 100 100 100 100 100 100 100 100 100 100 100 100 97 100 100 100 99 100 100 100 88 100 100 78 94 84 79 94 100 100 86 6 5 21 59 7 42 5 5 12 56 74 99
100 100 100 95 100 100 88 99 99 100 94 97 100 100 93 100 100 100 99 95 93 99 98 100 100 99 84 77 83 95 98 94 64 68 76 100 100 100 100 98 87 18 33 89 89 84 33 5 5 5 70 84 71 100
100 100 100 100 99 76 96 98 98 100 100 100 100 100 98 97 96 86 99 100 100 100 100 100 100 100 100 100 100 96 100 100 100 98 94 98 99 96 100 100 94 99 100 100 100 70 5 15 44 66 95 99 100 100
78 100 100 100 92 88 100 100 98 100 100 100 100 98 100 100 99 93 100 100 100 100 100 100 100 100 100 100 100 100 100 100 100 100 100 100 100 100 100 100 100 100 100 100 90 68 68 90 55 93 100 100 100 100
9 58 24 97 100 99 100 100 90 73 94 100 100 100 100 100 100 100 100 100 100 100 100 100 100 100 100 100 100 100 100 100 100 100 100 100 100 100 100 100 100 100 99 84 75 79 90 100 100 100 100 100 100 100
87 96 55 96 90 69 82 88 99 100 100 100 100 100 100 100 100 100 100 100 100 100 100 100 100 100 100 100 100 100 100 100 100 100 100 100 100 100 100 100 100 100 100 100 100 96 89 96 100 100 100 100 100 100
88 100 93 100 100 98 93 94 91 100 96 100 98 98 99 99 100 100 100 98 100 100 100 100 100 100 100 100 100 100 100 100 100 100 100 100 100 100 100 100 68 94 100 100 100 100 100 100 100 100 100 100 100 100
100 96 96 96 85 82 82 85 92 95 89 87 95 96 100 98 98 100 100 100 100 100 100 100 100 100 100 100 100 100 100 100 100 100 100 100 100 100 100 100 83 74 81 100 92 100 100 100 100 100 100 100 100 100
82 96 81 70 75 82 90 94 95 95 88 98 100 100 100 100 100 100 100 100 100 100 100 100 100 100 100 100 100 100 100 100 100 100 99 87 45 99 100 100 100 100 100 100 68 99 100 100 100 100 100 100 100 100
86 100 89 89 47 96 99 94 100 93 94 99 99 98 100 100 100 100 100 100 100 100 100 100 100 100 100 98 99 100 100 95 85 53 5 15 85 100 100 100 100 100 100 100 100 100 89 94 100 100 94 100 100 100
57 77 84 85 99 100 98 94 98 99 100 100 100 100 100 100 100 100 100 100 100 100 100 100 90 96 74 56 11 9 70 96 92 94 98 100 100 100 100 100 100 100 100 100 100 100 100 98 100 100 100 100 100 98
5 78 40 22 96 100 84 98 86 100 100 100 100 100 100 100 100 100 100 100 100 100 100 100 99 100 100 99 74 81 77 90 100 100 100 100 100 100 100 100 100 100 100 100 100 100 100 100 100 100 100 100 99 74
98 93 66 94 93 95 99 57 34 89 100 100 100 100 100 100 100 100 100 100 100 100 100 100 100 100 77 39 37 78 76 100 95 90 100 100 100 100 99 100 100 100 100 100 100 100 100 100 100 98 97 78 58 56

GFSWCAN_prec_cloud_033.txt.gz
Cloud_Cover
88 95 99 100 99 100 100 100 100 100 100 100 100 100 100 88 99 100 100 100 51 8 5 74 20 100 100 100 66 2 9 83 64 29 28 5 35 22 6 5 5 5 6 41 6 63 63 22 47 55 23 9 19 19
100 100 100 100 100 100 100 97 100 100 100 100 100 100 100 100 85 100 100 79 7 2 5 5 41 100 100 42 7 5 13 8 54 58 46 14 93 69 10 5 5 5 6 5 5 5 6 5 5 5 19 9 5 5
100 100 100 100 100 100 100 100 100 100 100 100 100 100 100 100 26 94 98 4 0 0 5 7 53 100 100 24 36 5 79 80 97 53 5 26 96 14 79 16 5 5 5 5 6 14 5 5 5 5 5 5 6 9
100 100 100 100 100 100 100 100 100 100 100 100 98 100 100 100 90 100 100 74 9 9 90 97 100 100 87 14 19 70 100 100 100 95 5 85 100 100 55 16 10 5 5 5 38 6 5 5 7 60 71 15 5 5
100 100 100 100 100 100 100 100 100 100 100 100 100 100 100 100 100 100 100 100 49 0 57 100 100 100 19 74 5 95 100 100 100 95 66 99 90 66 33 5 35 24 5 5 5 71 95 100 92 16 4 21 83 5
100 100 100 100 100 100 100 100 100 100 100 100 100 100 100 100 100 100 100 100 67 5 98 100 100 59 8 100 30 19 92 100 100 100 100 100 99 62 80 49 59 81 98 100 100 100 33 8 5 27 100 90 46 6
100 100 100 100 100 100 100 100 100 100 100 100 100 100 100 100 100 100 100 100 100 77 100 100 100 35 42 99 90 86 95 68 92 95 87 61 83 16 75 68 100 100 100 100 40 5 85 16 32 97 68 92 93 100
100 100 100 100 100 100 100 100 100 100 100 100 100 100 100 100 100 100 100 100 100 100 100 91 96 85 29 69 86 62 48 50 39 80 68 82 44 60 70 100 100 98 85 67 26 48 45 52 77 93 100 100 57 84
100 100 100 100 100 100 100 100 100 100 100 100 100 100 100 99 100 100 100 100 100 100 100 100 100 100 39 88 93 89 47 100 85 100 100 85 100 100 100 98 64 54 86 97 84 92 94 100 98 100 90 78 81 80
100 100 100 100 100 100 100 100 100 100 100 100 88 95 100 100 100 100 100 100 100 86 100 100 85 51 55 97 100 80 100 82 96 80 74 100 100 97 86 89 89 90 94 100 100 100 100 100 68 86 100 98 100 100
100 100 100 100 100 100 100 100 100 100 100 100 86 100 100 100 100 100 100 100 96 78 75 100 100 93 95 88 100 93 95 85 96 57 99 100 100 100 100 82 86 80 100 98 100 66 71 80 95 96 100 100 100 100
100 100 100 100 100 100 100 100 100 100 100 100 100 100 100 100 100 100 100 100 100 100 100 100 100 100 100 96 82 75 88 94 92 78 100 98 100 100 100 95 100 100 99 83 98 100 100 100 100 100 100 100 100 100
97 100 100 100 100 100 100 100 100 100 100 100 100 100 100 100 100 100 100 100 100 100 100 100 100 100 100 97 98 94 100 94 96 100 100 100 100 100 100 100 100 100 100 100 100 100 100 100 100 100 100 100 100 76
100 100 100 100 100 100 100 100 100 100 100 100 100 100 100 100 100 100 100 100 100 100 100 100 100 100 100 100 100 100 100 99 100 100 98 100 100 100 100 100 100 100 100 100 100 100 100 100 100 99 97 75 58 6
97 74 89 100 100 100 100 100 100 100 100 100 99 100 100 100 100 100 100 100 100 100 100 100 100 100 100 100 100 100 100 100 100 100 100 100 100 100 100 100 100 100 100 100 100 100 100 84 36 20 22 7 6 5
100 100 77 100 100 100 100 100 100 100 100 100 100 100 100 100 100 100 100 100 100 100 100 100 100 100 100 100 100 100 100 100 100 100 100 100 100 100 100 100 100 96 92 86 62 44 78 44 31 67 8 4 5 5
95 100 100 97 100 100 100 100 100 100 100 100 100 100 100 100 100 100 100 100 100 100 100 100 100 100 100 100 100 100 100 100 100 100 100 100 100 100 100 100 93 100 100 92 100 52 61 44 5 5 5 4 0 5
100 100 100 100 100 100 100 100 100 100 100 100 100 100 100 100 100 100 100 100 100 100 100 100 100 100 100 100 100 100 100 100 100 100 100 100 100 100 100 100 100 95 73 76 56 29 5 5 5 5 1 4 5 5
100 100 100 100 100 100 100 100 100 100 100 100 100 100 100 100 100 100 100 100 100 100 100 100 100 100 100 100 100 100 100 100 100 100 100 99 100 100 100 73 89 89 67 61 72 84 12 5 4 5 5 5 5 5
99 96 100 99 99 100 100 100 100 100 100 100 100 100 100 100 100 100 100 100 100 100 100 100 100 100 100 100 100 100 100 100 100 100 100 100 100 99 97 100 98 94 76 67 61 5 5 5 5 5 5 7 36 62
98 80 59 9 97 100 100 99 100 100 100 100 100 100 100 100 100 100 100 100 100 100 100 100 100 100 100 100 100 100 100 100 100 88 70 95 97 100 100 99 98 100 100 100 92 51 44 85 66 5 43 88 98 100
70 100 100 98 100 94 54 69 96 100 100 100 100 100 100 100 100 100 100 100 100 100 100 100 100 100 100 100 100 100 100 100 100 100 100 100 100 100 100 100 100 100 96 85 65 84 85 70 82 94 100 100 75 100
11 63 100 87 84 70 100 100 100 100 88 100 99 99 100 91 85 76 99 99 100 100 100 100 100 100 100 100 100 100 100 100 100 100 100 100 100 100 100 100 99 95 94 94 92 96 99 100 100 100 100 100 100 100
4 64 22 100 96 96 72 100 97 99 99 98 100 89 96 95 70 98 100 100 100 100 100 100 100 100 100 100 100 100 100 100 100 100 100 100 100 100 100 100 100 100 100 100 100 100 100 100 100 100 100 100 100 100
5 33 17 29 30 18 82 100 100 100 100 92 89 100 96 94 100 100 100 100 100 100 100 100 100 100 100 100 100 100 100 100 100 100 100 100 100 100 100 100 100 100 100 100 100 100 100 100 100 100 100 100 100 100
70 100 83 94 83 82 79 99 99 99 100 100 100 100 94 97 100 100 100 100 100 100 100 100 100 100 100 100 100 100 100 100 100 100 100 100 100 100 100 100 100 100 100 100 100 100 100 100 100 100 100 100 100 100
91 99 99 100 100 100 100 100 98 100 100 100 100 100 100 100 100 100 100 100 100 100 100 100 100 100 100 100 100 100 100 100 100 100 100 100 100 100 100 100 99 100 98 100 100 100 100 100 100 100 100 100 100 100
100 100 93 100 100 100 100 100 100 100 100 88 94 100 100 100 100 100 100 100 100 100 100 100 100 100 100 100 100 100 100 96 99 86 96 100 100 100 100 100 100 96 98 100 100 100 100 100 100 100 100 100 100 100
98 100 83 55 94 100 100 100 100 100 100 100 100 100 100 100 100 100 100 100 100 100 100 100 100 100 100 100 100 100 100 98 83 71 86 62 81 100 100 100 100 100 100 100 100 100 100 100 100 100 100 100 100 100
100 100 100 90 91 100 100 100 100 100 100 100 99 98 100 100 100 100 100 100 100 100 100 100 100 100 100 100 100 100 100 88 49 15 5 46 100 100 100 100 100 100 100 100 100 100 100 100 100 100 100 100 100 100
92 100 95 95 100 100 100 100 98 100 100 100 100 100 100 100 100 100 100 100 100 100 100 100 100 100 99 75 76 77 88 100 98 94 99 100 100 100 100 100 100 100 100 100 100 100 100 100 100 100 100 100 100 100
95 91 89 93 100 100 88 100 100 100 100 100 100 100 100 100 100 100 100 100 100 100 86 100 100 100 100 100 100 99 24 84 100 100 100 100 100 100 100 100 100 100 100 100 100 100 100 100 100 100 100 100 100 100
100 98 94 100 99 100 100 100 90 99 100 100 100 100 100 100 100 100 100 100 100 100 100 100 100 100 98 87 84 70 75 100 99 100 100 100 100 100 100 100 100 100 100 100 100 100 100 100 100 100 100 100 100 99

GFSWCAN_prec_cloud_036.txt.gz
Cloud_Cover
34 29 58 29 17 53 100 100 100 74 70 100 8 5 100 100 100 100 98 98 99 77 100 100 100 35 98 97 100 100 100 85 47 26 28 4 31 4 4 4 5 5 7 49 26 70 62 5 7 32 5 23 11 5
0 3 5 5 8 7 14 47 18 5 58 15 5 91 100 100 100 100 98 12 56 100 71 32 91 88 93 99 100 100 100 100 83 8 37 16 92 66 5 5 5 5 7 5 6 5 5 7 14 5 81 52 5 9
93 66 80 70 16 1 5 12 6 86 84 59 86 100 100 100 99 74 100 100 100 100 100 14 51 9 48 100 100 100 100 100 62 0 3 13 96 6 77 5 5 6 44 5 38 5 5 5 5 82 38 32 97 47
100 100 100 100 100 100 89 75 28 94 100 99 98 100 100 100 100 100 92 100 100 100 100 31 0 9 100 100 100 100 100 100 18 5 5 68 88 6 5 5 5 15 99 21 99 6 5 5 85 45 10 57 100 99
100 100 100 100 100 100 100 100 98 100 100 100 100 100 100 100 100 100 100 100 100 100 51 99 10 95 100 100 100 100 100 100 6 20 70 99 70 79 7 5 5 65 92 100 15 73 50 5 8 68 90 97 100 92
100 100 100 100 100 100 100 100 100 100 100 100 100 100 100 100 100 100 100 100 100 44 5 70 97 29 77 42 73 100 100 100 5 17 63 100 100 100 96 94 19 97 41 14 5 5 5 5 80 100 100 100 27 5
100 100 100 100 100 100 100 100 100 100 100 100 100 100 100 100 100 100 100 100 64 100 29 98 87 77 93 10 63 100 100 46 5 10 90 100 100 100 100 99 100 100 100 100 42 21 32 77 100 100 83 68 57 8
100 100 100 100 100 100 100 100 100 100 100 100 100 100 100 100 100 100 100 100 100 48 20 85 100 89 84 89 94 100 100 57 16 57 100 100 100 100 100 100 100 100 100 84 48 10 38 99 64 89 70 45 46 54
100 100 100 100 100 100 100 100 100 100 100 100 100 100 100 100 100 100 100 100 96 82 100 99 100 100 99 88 99 100 96 94 80 96 78 26 98 86 100 78 84 97 98 82 78 90 66 67 71 66 87 57 18 8
100 100 100 100 100 100 100 100 100 100 100 100 100 100 100 100 100 100 100 100 100 100 100 100 100 88 82 100 100 100 95 82 86 99 83 99 92 84 100 100 100 99 90 35 35 74 61 75 77 96 98 97 100 100
100 100 100 100 100 100 100 100 100 100 100 100 100 100 100 100 100 99 100 100 100 100 100 100 78 98 83 93 100 78 89 76 39 46 61 90 100 100 98 66 66 58 97 97 83 96 90 94 100 100 100 97 83 85
100 100 100 100 100 100 100 100 100 100 100 100 100 100 100 100 100 100 100 100 100 100 100 100 100 100 100 100 100 100 96 83 59 70 88 94 100 94 84 93 94 100 100 100 96 100 67 68 98 100 99 87 100 100
100 100 100 100 100 100 100 100 100 100 100 100 100 100 100 96 100 100 100 100 100 100 100 100 100 100 100 100 100 100 100 79 26 99 73 94 100 100 100 100 100 100 100 100 100 100 100 100 100 100 100 100 100 100
100 100 100 100 100 100 100 100 100 100 100 100 100 100 100 100 100 100 100 100 100 100 100 100 100 100 100 100 100 100 100 100 100 100 97 100 100 100 100 100 100 100 89 99 100 100 100 100 100 100 100 100 90 14
100 100 100 100 100 100 100 100 100 100 100 100 100 100 100 100 100 100 100 100 100 100 100 100 100 100 100 100 100 100 100 100 100 100 100 100 100 100 100 100 100 100 100 100 100 100 100 100 100 100 90 44 21 6
100 100 100 100 100 100 100 100 100 100 100 100 100 100 100 100 100 100 100 100 100 100 100 100 100 100 100 100 100 100 100 73 99 100 100 100 100 100 100 100 100 100 100 100 100 100 100 100 89 83 67 12 5 5
79 100 100 100 100 100 100 100 100 100 100 100 100 100 100 100 100 100 100 100 100 100 100 100 100 100 100 100 100 100 100 100 100 100 100 100 100 100 100 100 100 100 100 100 100 100 100 96 60 32 5 5 5 5
99 65 70 63 83 40 89 100 100 100 100 100 100 100 100 100 100 100 100 100 100 100 100 100 100 100 100 100 100 100 100 100 100 100 100 100 100 100 100 100 100 100 100 100 100 98 58 7 5 5 5 5 5 5
58 100 99 100 24 37 92 100 100 91 100 100 100 100 100 100 100 100 100 100 100 100 100 100 100 100 100 100 100 100 100 100 100 100 100 100 100 100 100 100 100 100 100 100 100 88 6 5 5 5 5 5 5 5
100 100 100 100 100 100 100 100 100 100 100 100 100 100 100 100 100 100 100 100 100 100 100 100 100 100 100 100 100 100 100 100 100 100 100 100 100 100 100 100 100 100 100 100 68 71 43 32 5 5 5 12 70 63
5 6 81 100 100 100 94 100 100 100 100 100 100 100 100 100 100 100 100 100 100 100 100 100 100 100 100 100 100 100 100 100 100 100 100 100 100 100 100 100 100 100 99 98 98 100 100 8 27 63 59 92 41 43
50 32 43 17 92 43 86 100 100 94 100 100 100 100 100 100 100 100 100 100 100 100 100 100 100 100 100 100 100 100 100 100 100 100 100 100 100 100 100 100 100 100 100 100 100 100 99 90 96 89 80 67 65 87
2 5 73 65 51 64 73 51 44 80 96 100 96 98 100 100 100 100 100 100 100 100 100 100 100 100 100 100 100 100 100 100 100 100 100 100 100 100 100 100 100 100 100 100 100 100 91 91 97 66 82 83 88 98
0 74 24 29 10 93 35 94 96 97 97 99 93 67 92 95 92 100 100 100 100 100 99 98 100 100 100 100 100 100 100 100 100 100 100 100 100 100 100 100 100 100 100 100 100 100 100 100 78 100 100 98 98 100
4 36 37 7 12 25 63 98 97 98 100 99 83 85 83 61 83 100 100 100 100 100 100 100 100 100 100 100 100 100 100 100 100 100 100 100 100 100 100 100 100 100 100 100 100 100 98 89 100 98 94 100 100 100
76 99 84 100 96 91 89 97 100 100 95 92 98 100 67 94 92 100 100 100 100 100 100 100 100 100 100 100 100 100 100 100 100 100 100 100 100 100 100 100 100 100 100 99 100 99 100 100 100 100 100 100 100 100
96 100 100 100 99 96 100 100 85 97 98 100 100 92 96 99 100 100 100 100 100 100 100 100 100 100 100 100 100 100 100 95 99 100 100 100 100 100 100 100 100 82 82 100 100 100 100 100 100 100 100 100 100 100
100 100 100 100 100 98 100 100 100 100 100 93 100 94 100 100 100 100 100 100 100 100 100 100 100 100 100 100 100 100 100 84 76 77 96 100 100 100 93 100 81 84 100 99 91 100 100 100 100 100 100 100 100 100
100 99 74 47 99 100 100 100 100 100 100 100 100 100 100 100 100 100 100 100 100 100 100 100 100 99 100 100 100 100 98 60 23 8 22 94 100 100 93 100 100 100 100 100 100 100 100 98 100 100 100 100 97 100
100 100 98 95 100 100 100 100 100 100 100 100 90 98 100 100 100 100 100 100 100 100 100 100 100 100 100 100 100 100 100 80 58 80 89 100 100 100 100 100 100 100 100 100 100 100 100 100 100 100 100 100 100 100
100 95 89 98 100 100 100 97 100 100 100 98 98 100 100 100 100 100 100 100 100 100 100 100 100 100 100 100 100 100 99 100 92 98 85 99 100 100 100 100 100 100 100 100 100 100 100 100 100 100 100 100 100 100
92 99 89 92 100 100 100 100 100 100 100 100 100 93 100 100 100 100 100 100 100 100 86 99 100 100 100 100 100 99 98 96 100 100 100 100 100 100 100 100 100 100 100 100 100 100 100 100 100 100 100 100 100 100
95 97 93 98 100 100 98 98 100 100 98 100 100 100 100 100 100 100 100 100 100 100 100 100 100 100 100 99 94 98 100 100 100 100 100 100 64 66 99 100 100 100 100 100 100 100 100 100 100 100 100 100 100 100

GFSWCAN_prec_cloud_039.txt.gz
Cloud_Cover
100 100 100 100 100 97 100 100 100 100 100 100 100 87 56 78 71 87 100 100 100 100 65 85 100 100 43 80 91 83 100 100 98 83 53 30 24 1 5 4 5 5 39 6 67 58 12 22 5 1 4 6 5 5
95 98 98 100 100 100 100 100 100 98 100 100 100 65 89 98 3 96 100 98 100 100 91 100 100 100 69 99 100 100 100 100 100 99 92 99 85 86 0 0 2 5 2 0 0 0 0 5 5 55 94 5 5 5
5 14 71 100 100 100 100 81 80 17 92 61 38 5 84 5 89 100 100 100 100 100 98 100 96 70 100 100 100 21 18 100 100 100 89 88 98 4 0 2 5 5 1 2 0 5 5 9 49 96 100 10 17 12
1 5 5 39 58 69 40 8 40 56 28 46 33 5 5 13 100 100 100 100 100 100 100 92 65 100 100 100 100 8 100 100 100 100 99 100 100 5 0 0 4 52 7 5 5 5 11 6 75 100 100 92 64 90
85 100 13 0 49 81 5 4 23 11 44 24 29 26 39 100 100 100 100 100 97 100 100 100 92 100 100 100 100 24 100 100 100 99 85 93 100 6 0 4 5 82 65 6 8 5 6 5 16 65 35 59 66 37
99 24 56 100 83 14 21 5 5 47 38 7 7 94 100 100 100 100 100 100 100 100 100 100 100 100 100 100 100 100 100 100 100 14 79 100 100 24 64 4 17 14 31 59 19 24 100 100 100 43 5 15 12 5
100 100 100 100 100 100 100 100 35 5 97 64 96 100 100 100 100 100 100 100 100 100 100 100 100 100 100 100 100 76 100 100 97 69 91 100 100 67 73 6 100 94 100 100 100 100 100 100 100 82 98 67 7 34
100 100 100 100 100 100 100 100 100 100 94 96 100 100 100 100 100 100 100 100 100 100 100 100 100 100 100 100 91 41 100 92 75 50 76 100 100 80 6 46 100 100 100 100 100 100 100 100 100 84 19 5 35 51
100 100 100 100 100 100 100 100 100 100 100 100 100 100 100 100 100 100 100 100 100 100 100 100 100 100 100 100 89 97 100 89 80 90 72 100 100 79 78 87 100 100 100 100 100 100 72 35 52 31 52 35 49 94
100 100 100 100 100 100 100 100 100 100 100 100 100 100 100 100 100 100 100 100 100 100 96 100 100 100 100 100 100 88 99 87 67 87 92 100 100 96 100 97 100 100 100 96 27 22 12 51 55 82 58 66 98 89
100 100 100 100 100 100 100 100 100 99 100 100 100 100 100 83 22 83 100 100 100 94 70 88 100 100 100 89 100 93 100 97 76 49 52 83 100 100 91 100 100 100 100 78 18 30 91 84 85 100 99 100 100 89
100 100 100 100 100 100 100 99 80 52 100 100 91 100 92 94 53 35 100 100 92 100 98 100 100 100 100 97 79 77 66 61 82 87 92 96 100 100 100 100 100 100 100 100 100 100 100 100 100 100 100 100 99 92
100 100 100 100 100 100 100 100 100 100 100 100 100 99 97 97 96 33 68 91 94 100 100 100 100 100 100 100 100 100 100 82 10 95 100 100 100 100 100 100 100 100 100 100 100 100 100 100 99 99 100 100 98 100
100 100 100 100 100 100 100 100 100 100 100 100 100 81 100 100 100 100 100 100 100 100 100 100 100 100 100 100 100 97 100 96 88 100 100 100 100 100 100 100 100 100 100 100 100 100 100 100 100 100 100 100 100 100
100 100 100 100 100 100 100 100 100 100 100 100 100 100 100 100 100 100 100 100 100 100 100 100 100 100 100 100 100 100 100 95 100 100 100 100 100 100 100 100 100 100 100 100 100 100 100 100 100 100 100 100 100 100
100 100 100 100 100 100 100 100 100 100 100 100 100 100 100 100 100 100 100 100 100 100 100 100 100 100 100 100 100 100 100 100 100 100 100 100 100 100 100 100 100 100 100 100 100 100 100 100 100 100 100 100 100 100
100 100 100 100 100 100 100 100 100 100 100 100 100 100 100 100 100 100 100 100 100 100 100 100 100 100 100 100 100 100 100 100 100 100 100 100 100 100 100 100 100 100 100 100 100 100 100 100 100 100 100 100 100 100
100 100 100 100 100 100 100 100 100 100 100 100 100 100 100 100 100 100 100 100 100 100 100 100 100 100 100 100 100 100 100 100 100 100 100 100 100 100 100 100 100 100 100 100 100 100 100 100 100 100 100 100 100 100
86 77 47 95 82 50 68 95 100 100 100 100 100 100 100 100 100 100 100 100 100 100 100 100 100 100 100 100 100 100 100 100 100 100 100 100 100 100 100 100 100 100 100 100 100 100 100 100 100 100 100 100 100 100
89 74 31 11 6 24 94 92 74 84 96 100 100 100 100 100 100 100 100 100 100 100 100 100 100 100 100 100 100 100 100 100 100 100 100 100 100 100 100 100 100 100 100 100 100 100 100 100 100 100 100 100 90 61
20 79 98 100 99 86 77 32 71 100 100 100 100 100 100 100 100 100 100 100 100 100 100 100 100 100 100 100 100 100 100 100 100 100 100 100 100 100 100 100 100 100 100 100 100 100 100 100 100 99 96 99 72 48
6 10 87 31 84 87 100 91 98 96 100 100 100 100 100 100 100 100 100 100 100 100 100 100 100 100 100 100 100 100 100 100 100 100 100 100 100 100 100 100 100 100 100 100 100 100 100 100 98 83 88 99 70 90
43 63 39 50 92 100 100 100 100 100 100 100 100 100 100 100 100 100 100 100 100 100 100 100 100 100 100 100 100 100 100 100 100 100 100 100 100 100 100 100 100 100 100 100 100 100 100 100 100 100 99 86 80 89
4 63 60 78 17 95 25 51 74 98 100 100 100 100 100 100 100 100 100 100 100 100 100 100 100 100 100 100 100 100 100 100 100 100 100 100 100 100 100 100 100 100 100 100 100 100 100 100 100 95 96 100 100 92
6 39 7 7 5 5 6 90 94 99 97 73 86 99 100 100 100 100 100 100 100 100 100 100 100 100 100 100 99 100 100 100 100 100 100 100 100 100 100 100 100 100 100 100 100 100 96 92 96 100 98 66 93 72
98 97 89 99 96 93 98 97 100 99 75 22 94 93 46 44 41 99 100 99 99 99 100 99 100 85 80 86 93 84 100 99 100 100 100 100 100 100 100 100 100 100 100 100 100 100 96 88 52 48 58 20 84 100
100 100 100 100 100 92 97 96 84 21 29 81 76 80 92 94 98 100 100 100 99 95 90 89 92 91 99 97 91 81 86 87 90 90 96 96 97 99 91 68 70 22 79 29 5 5 65 58 71 51 60 99 100 100
98 99 82 61 38 72 76 81 98 93 72 98 100 94 88 99 100 100 100 99 100 96 94 88 91 94 93 98 95 91 90 87 98 98 68 84 49 20 11 62 81 80 98 98 62 87 72 100 65 40 65 75 45 5
100 100 89 100 100 100 100 90 100 100 100 99 99 100 99 96 100 100 100 100 100 98 95 93 100 99 99 100 78 73 67 18 5 13 17 97 99 58 5 71 100 85 36 88 90 95 100 100 100 100 66 99 100 94
99 80 98 100 99 100 99 100 100 100 100 68 24 75 97 100 100 100 100 100 100 99 100 100 100 100 89 96 100 79 74 70 72 68 97 100 99 92 91 100 100 98 99 98 57 64 66 74 71 88 87 85 100 100
100 84 63 34 91 98 100 100 49 89 34 48 90 82 80 86 100 99 100 86 100 100 84 96 95 95 96 90 77 83 76 51 100 84 20 27 27 52 32 78 96 100 86 99 100 100 82 84 100 100 100 100 100 100
45 48 58 98 100 98 100 96 56 100 98 92 94 37 88 98 95 97 99 88 88 96 84 66 92 99 21 9 22 37 95 99 100 88 92 99 96 65 5 5 47 65 44 58 60 99 100 100 100 100 100 100 100 92
90 6 5 73 99 98 49 58 98 99 98 88 96 99 99 99 95 97 99 76 58 90 98 96 98 100 100 47 23 100 99 86 56 41 62 87 100 93 76 73 8 14 55 62 59 66 74 96 100 100 100 100 100 98

GFSWCAN_prec_cloud_042.txt.gz
Cloud_Cover
100 100 100 100 100 100 100 100 86 83 87 5 5 5 2 100 100 100 100 100 100 100 80 42 2 0 5 30 29 100 100 100 96 100 100 100 100 5 5 5 1 7 20 3 15 6 25 2 0 4 34 50 5 5
100 100 100 100 100 100 100 100 100 100 95 55 5 16 5 100 100 99 100 100 100 100 100 70 13 1 0 5 96 100 98 100 100 100 100 100 66 56 5 5 5 5 5 5 2 5 8 5 5 5 5 5 5 43
100 100 100 100 100 100 100 100 100 99 100 96 41 94 20 42 72 100 100 92 100 100 100 69 77 38 11 16 78 69 95 100 72 94 100 100 83 5 20 20 0 5 12 5 1 5 5 5 5 21 6 5 6 9
88 100 100 100 100 100 100 100 100 100 100 99 100 100 100 100 100 100 100 100 93 100 100 99 50 99 97 100 80 96 100 100 100 100 100 100 76 100 75 85 5 5 73 10 5 2 7 64 42 85 100 100 100 100
84 99 100 100 100 100 100 100 100 100 100 94 100 100 100 100 100 100 100 100 96 82 97 100 97 7 65 100 100 100 100 100 100 100 100 100 100 100 100 93 82 46 9 5 5 5 5 12 67 86 79 99 100 100
4 5 42 100 100 98 100 100 100 100 100 100 100 100 100 90 100 100 97 94 100 100 100 76 90 49 42 100 100 100 100 100 100 100 95 100 100 100 100 100 94 98 14 52 99 23 20 24 5 38 82 84 79 100
22 0 4 5 53 88 5 38 71 99 98 100 100 67 96 7 35 93 100 60 100 100 100 100 100 92 99 100 100 100 97 99 100 99 99 100 100 100 100 100 56 100 99 78 44 100 100 94 51 41 92 100 100 100
100 83 8 5 25 57 19 5 35 86 81 54 14 57 100 100 100 100 100 100 100 100 100 100 100 100 100 100 100 100 100 100 95 100 100 100 85 100 100 100 100 100 100 94 46 60 100 100 100 100 100 100 100 100
100 100 100 15 5 5 4 5 10 5 73 30 6 98 100 100 100 100 100 100 100 100 100 100 100 100 100 100 100 95 100 100 100 100 100 100 100 100 100 100 100 100 100 100 97 63 100 100 100 100 100 100 50 71
100 100 100 100 94 8 5 5 4 4 20 79 100 100 100 100 100 100 100 100 100 100 100 100 100 100 100 100 100 100 100 100 100 100 100 100 100 100 100 100 100 100 100 100 100 70 11 56 100 100 100 80 100 85
100 100 100 100 100 95 90 100 100 100 100 100 100 100 100 100 100 100 100 100 100 100 100 100 100 100 100 100 98 93 96 93 100 100 100 100 100 100 100 100 100 93 100 100 100 100 45 44 68 97 100 100 99 76
100 100 100 100 100 100 89 100 100 100 100 100 100 100 100 100 100 100 100 100 100 100 100 100 100 99 100 40 76 100 100 100 100 100 85 100 95 100 100 100 100 100 100 100 100 100 95 100 100 100 100 100 100 100
100 100 100 100 100 100 100 100 100 100 100 100 100 100 100 100 100 100 100 100 100 100 100 96 98 100 100 100 100 100 100 100 98 98 100 98 100 100 100 100 100 100 100 100 100 100 100 100 100 100 98 99 100 100
100 100 100 100 100 100 100 100 100 100 100 100 100 100 100 100 100 100 100 100 100 100 100 100 100 100 100 100 100 97 98 93 79 73 93 100 100 100 100 100 100 100 100 100 100 100 100 100 100 100 100 100 100 100
100 100 100 100 100 96 100 98 100 100 100 100 100 100 100 100 100 100 100 100 100 100 100 100 100 100 100 100 100 100 100 88 87 97 100 100 100 100 100 100 100 100 100 100 100 100 100 100 100 100 100 100 100 100
100 100 100 100 100 100 100 100 91 62 84 82 100 100 100 100 100 100 100 100 100 100 100 100 100 100 100 100 100 100 100 100 100 100 100 100 100 100 100 100 100 100 100 100 100 100 100 100 100 100 100 100 100 100
100 94 100 100 100 100 100 100 84 75 100 96 100 100 100 100 100 100 100 100 100 100 100 100 100 100 100 100 100 100 100 100 100 100 100 100 100 100 100 100 100 100 100 100 100 100 100 100 100 100 100 100 100 100
95 100 100 100 50 62 93 98 100 100 100 100 100 100 100 100 100 100 100 100 100 100 100 100 100 100 100 100 100 100 100 100 100 100 100 100 100 100 100 100 100 100 100 100 100 100 100 100 100 100 100 100 100 100
100 100 100 100 100 94 96 97 97 99 100 100 100 100 100 100 100 100 98 100 100 100 100 100 100 100 100 100 100 100 100 100 100 100 100 100 100 100 100 100 100 100 100 100 100 100 100 100 100 100 100 100 100 100
77 100 100 100 100 100 100 100 100 100 100 100 100 100 100 100 98 100 100 100 100 100 100 100 100 100 100 100 100 100 100 100 100 100 100 100 100 100 100 100 100 100 100 100 100 100 100 100 100 100 100 100 100 100
15 8 5 56 70 87 100 92 88 97 99 100 100 100 100 100 100 100 100 100 100 100 100 100 100 100 100 100 100 100 100 100 100 100 100 100 100 100 100 100 100 100 100 100 100 100 100 100 100 100 100 100 71 86
5 5 38 5 12 64 82 99 100 100 100 100 100 99 100 100 100 100 100 100 100 100 100 100 100 100 100 100 100 100 100 100 100 100 100 100 100 100 100 100 100 100 100 100 100 100 100 100 100 100 100 90 84 92
5 5 5 10 27 21 25 22 30 54 87 94 98 100 100 100 100 97 100 100 100 100 100 100 100 100 100 100 100 100 100 100 100 100 100 100 100 100 100 100 100 100 100 100 100 100 100 100 100 100 100 100 100 100
5 14 75 66 34 40 14 91 99 92 76 71 68 98 82 100 63 82 92 100 100 100 100 100 100 100 100 100 100 100 100 100 100 100 100 100 100 100 100 100 100 100 100 100 100 100 100 100 100 100 100 100 100 100
6 33 4 5 5 6 6 69 58 11 84 38 77 79 81 41 32 72 93 98 98 100 100 100 100 100 100 100 100 100 100 100 100 100 100 100 98 98 99 100 100 100 100 100 100 100 100 100 100 100 100 99 73 72
65 73 50 97 79 23 53 48 79 100 98 83 100 82 81 8 26 98 100 100 97 100 95 100 93 96 100 100 100 100 100 99 100 84 98 95 80 94 99 99 100 100 100 100 100 100 93 75 80 59 67 78 99 100
79 60 91 99 78 12 89 98 23 29 99 99 98 87 90 86 99 100 100 100 99 100 91 91 88 100 100 100 85 97 72 65 73 76 77 66 59 52 32 25 41 70 94 26 14 38 99 98 100 81 91 91 81 81
84 77 71 28 5 5 90 86 96 97 99 89 90 93 86 98 100 100 100 100 100 100 88 81 90 86 79 75 77 86 95 99 74 67 44 18 6 27 100 99 93 93 78 77 88 100 100 100 100 100 100 100 99 40
100 95 21 32 5 51 84 98 100 91 100 100 99 98 98 99 100 100 100 99 97 100 88 85 100 85 91 75 68 48 6 34 6 22 98 100 91 66 85 100 100 100 100 98 77 41 92 100 99 100 98 86 99 100
88 76 6 27 54 100 94 72 96 92 58 34 32 99 94 100 100 100 100 100 100 100 100 100 96 97 96 96 97 86 88 94 75 32 92 100 100 82 76 78 80 76 100 100 86 94 100 93 90 69 46 64 99 90
96 51 7 79 96 100 100 96 81 82 37 51 61 80 53 88 100 100 100 99 98 99 98 90 91 76 74 99 100 95 86 100 99 94 98 93 76 100 77 100 79 99 81 62 64 84 100 100 100 100 100 88 100 100
24 45 72 86 94 100 100 100 100 89 96 89 93 94 98 58 94 91 89 88 96 93 100 99 99 97 85 84 89 100 100 100 100 100 96 99 100 100 100 87 99 89 92 100 82 99 94 100 100 100 100 99 100 100
19 5 48 86 100 100 46 73 100 100 97 94 100 100 100 100 89 96 99 91 79 100 99 96 84 90 100 100 79 99 98 73 70 81 100 85 86 50 77 85 99 100 100 100 100 100 100 98 68 68 76 86 100 100

GFSWCAN_prec_cloud_045.txt.gz
Cloud_Cover
100 100 100 100 100 100 100 100 100 100 100 100 58 16 33 88 100 100 100 100 100 100 67 52 24 5 4 2 2 27 100 97 100 31 96 98 100 100 100 99 85 2 14 0 0 3 17 0 1 3 0 0 0 0
100 100 100 100 100 100 100 100 100 100 100 100 65 21 5 100 100 100 100 100 100 100 100 81 0 0 4 1 0 5 61 71 100 100 100 100 100 100 100 100 54 5 0 2 3 5 20 5 0 0 5 5 2 5
100 100 100 100 100 100 100 100 100 100 100 93 99 94 6 47 100 100 100 100 100 100 100 60 3 0 0 0 0 35 99 39 100 100 100 100 100 100 100 100 97 6 5 1 2 85 70 49 5 0 1 5 5 5
100 100 100 100 100 100 100 100 100 100 100 100 100 44 5 5 57 100 84 100 100 100 91 30 96 83 3 3 0 3 5 96 100 100 100 100 100 100 100 68 100 100 7 51 5 90 20 87 40 5 2 4 5 34
100 100 100 100 100 100 100 100 100 99 100 100 100 100 5 77 98 36 57 100 100 99 100 100 100 84 6 1 0 0 29 100 100 100 100 100 100 100 100 100 100 100 100 97 5 5 99 54 78 98 94 82 64 66
100 100 100 100 100 100 100 100 100 100 100 99 78 6 5 4 9 89 100 100 100 100 100 100 28 87 99 32 5 5 100 100 100 100 100 100 100 100 100 100 100 100 100 100 100 95 5 57 96 100 100 100 100 100
22 100 100 100 100 100 100 100 100 100 44 100 79 55 26 69 100 55 44 52 100 100 100 100 100 100 100 96 100 100 100 100 100 100 100 100 100 100 100 38 100 100 100 100 100 98 100 72 9 38 79 100 100 100
46 99 100 71 59 70 63 87 100 100 100 100 100 100 100 100 100 36 35 100 100 100 100 100 100 100 98 100 100 100 100 100 100 100 100 100 100 100 100 100 100 100 100 100 100 100 100 100 57 42 5 27 62 76
0 30 100 31 14 8 14 7 21 77 88 98 96 100 100 92 43 30 100 100 83 62 100 100 100 100 99 100 100 100 100 100 100 100 100 100 100 100 100 100 100 100 91 96 100 100 100 100 68 16 23 5 5 20
0 0 0 2 0 4 5 26 81 100 87 55 76 100 98 46 100 100 100 100 99 100 100 100 100 100 100 100 100 100 100 100 100 100 100 99 100 100 100 100 100 100 100 100 100 100 100 100 100 17 5 10 90 100
4 2 0 0 0 0 0 4 4 6 19 100 100 100 99 100 100 100 100 100 100 100 100 100 100 100 100 100 100 100 100 100 100 100 100 100 100 100 100 100 100 100 100 100 100 100 100 100 100 48 77 100 100 100
38 5 4 37 43 48 76 51 52 75 100 100 100 100 100 100 94 100 100 100 100 100 100 100 100 100 100 100 100 100 100 100 100 100 100 100 100 100 100 100 100 100 100 100 100 100 100 100 100 100 100 100 100 100
100 94 47 100 98 100 100 100 100 100 100 100 100 100 100 100 100 100 100 100 100 100 100 100 100 100 100 100 100 100 100 100 100 100 100 100 100 100 99 100 100 100 100 100 100 100 100 100 100 100 100 100 100 100
100 100 100 100 100 100 100 100 100 100 100 100 100 100 100 100 100 100 100 100 100 100 100 100 100 100 100 100 100 96 100 99 83 68 86 95 100 100 100 100 100 100 100 100 100 100 100 100 100 100 100 100 100 100
100 100 100 100 100 100 100 100 100 100 100 100 100 100 100 100 100 100 100 100 100 100 100 100 100 100 98 100 99 83 100 100 86 93 100 100 100 100 100 100 100 100 100 100 100 100 100 100 100 100 100 100 100 100
100 100 100 100 100 100 100 100 100 100 100 100 100 100 100 100 100 100 100 100 100 100 100 100 100 100 100 86 92 92 100 100 100 100 100 100 100 100 85 100 100 100 100 100 100 100 100 100 100 100 100 100 100 100
100 100 100 100 100 100 100 100 84 100 96 88 99 100 100 100 100 100 100 100 100 100 100 76 90 100 100 100 100 100 100 100 100 100 100 100 100 100 100 100 100 100 100 100 100 100 100 100 100 100 100 100 100 100
100 100 100 100 100 100 100 100 100 93 93 100 100 100 100 100 100 100 100 100 100 100 100 100 100 100 100 100 100 100 100 100 100 100 100 100 100 100 100 100 100 100 100 100 100 100 100 100 100 100 100 100 100 100
98 99 100 97 100 100 100 100 100 100 100 100 100 100 100 100 100 100 100 100 100 100 100 100 95 100 100 100 100 100 100 100 100 100 100 100 100 100 100 100 100 100 100 100 100 100 100 100 100 100 100 100 100 100
100 100 100 99 95 87 97 100 100 99 100 100 100 100 100 100 100 100 100 100 100 100 100 100 100 100 100 100 100 100 100 100 100 100 100 100 100 100 100 100 100 100 100 100 100 100 100 100 100 100 100 100 100 100
100 100 97 33 95 95 56 86 100 100 100 100 100 100 100 100 100 100 100 100 100 100 100 100 100 100 100 100 100 100 100 100 100 100 100 100 100 100 100 100 100 100 100 100 100 100 100 100 100 100 100 100 100 100
29 59 69 30 7 5 39 95 91 97 99 100 100 100 100 100 100 100 100 100 100 100 100 100 100 100 100 100 100 100 100 100 100 100 100 100 100 100 100 100 100 100 100 100 100 100 100 100 100 100 100 100 100 100
40 66 98 75 24 5 26 40 17 54 86 99 100 100 100 100 100 80 100 100 100 100 100 100 100 100 100 100 100 100 100 100 100 100 100 100 100 100 100 100 100 100 100 100 100 100 100 100 100 100 100 100 100 100
5 5 8 7 5 68 8 23 56 53 15 25 20 65 99 88 79 98 100 100 100 100 100 100 100 100 100 100 100 100 100 100 100 100 100 100 100 100 100 100 100 100 100 100 100 100 100 100 100 100 100 100 100 100
6 64 7 5 5 6 6 6 6 9 80 75 32 93 93 14 61 67 89 100 100 100 92 100 99 100 100 100 100 100 100 100 100 100 100 100 100 100 100 100 100 100 100 100 100 100 100 100 100 100 100 100 100 100
69 78 53 36 32 23 53 62 95 94 84 92 96 99 20 5 25 98 100 100 100 99 95 100 100 99 100 100 100 100 100 95 100 80 95 70 82 98 100 92 86 98 91 81 86 74 72 47 91 71 81 97 99 100
73 77 74 82 47 46 63 41 17 29 92 100 95 72 55 76 100 100 94 98 94 100 100 100 87 96 100 100 98 100 94 83 87 99 88 97 100 99 81 94 100 100 100 85 82 99 100 100 100 100 100 100 100 100
94 20 12 33 21 33 99 99 96 100 100 99 94 76 79 86 100 100 97 100 100 94 90 78 66 51 7 26 99 100 99 95 76 69 24 5 18 45 100 100 100 92 97 100 100 100 100 100 100 100 98 100 87 56
94 50 7 7 17 66 92 100 100 100 100 82 79 95 100 99 97 98 100 100 100 98 94 91 99 92 28 5 6 7 6 5 5 5 52 99 91 62 71 52 52 66 77 67 59 66 98 100 100 100 100 100 100 100
40 26 24 80 76 100 99 81 98 87 24 56 34 98 94 100 100 100 100 100 99 96 92 74 82 70 100 70 92 90 95 81 76 30 100 100 100 100 100 100 100 100 94 89 71 55 85 60 73 82 92 86 84 98
65 16 85 90 94 98 96 81 36 8 7 40 52 87 74 89 98 98 91 90 92 93 94 74 95 98 100 100 100 97 100 92 97 97 98 100 100 99 100 100 100 100 100 100 100 100 100 94 91 92 99 97 98 100
48 93 61 95 96 100 100 100 69 86 97 87 100 95 97 70 92 87 100 100 96 96 99 100 100 97 100 100 97 96 95 99 88 100 100 100 100 98 100 100 100 100 100 100 100 100 100 100 100 65 97 89 100 100
50 7 72 78 89 100 99 100 100 100 93 92 100 99 87 62 82 100 98 86 44 18 5 60 100 100 100 95 32 62 72 76 98 100 100 100 100 100 83 97 100 100 100 100 100 100 100 100 100 88 34 60 94 100

GFSWCAN_prec_cloud_048.txt.gz
Cloud_Cover
70 20 78 98 90 100 100 100 100 100 100 100 100 100 100 100 95 64 7 100 100 100 100 78 23 5 5 5 64 87 100 84 96 91 100 100 100 100 100 100 100 100 65 6 5 2 9 6 3 1 0 0 0 0
100 100 100 100 100 100 100 100 100 100 100 100 100 100 100 100 70 35 54 100 100 100 100 100 66 25 3 0 6 14 93 73 86 100 100 100 100 100 100 100 100 100 89 78 5 5 13 5 0 0 1 4 4 0
100 100 100 100 100 100 100 100 100 100 100 100 100 100 100 100 90 36 100 100 100 100 80 91 50 55 5 2 5 2 4 62 83 96 95 100 100 100 100 100 100 100 53 85 5 73 54 2 0 0 0 4 5 5
100 100 100 100 100 100 100 100 100 100 100 100 100 100 100 84 17 37 98 100 100 91 82 83 38 28 3 2 4 5 2 47 95 100 100 100 100 100 100 100 100 98 19 94 81 100 99 4 4 5 5 5 5 40
100 100 100 100 100 100 100 100 100 100 100 100 100 100 100 98 94 58 100 100 100 94 66 100 81 37 5 18 12 1 2 20 100 72 54 99 100 100 100 100 100 100 100 100 100 100 100 100 97 74 47 28 5 9
100 100 100 100 100 100 100 100 100 100 100 100 100 100 100 100 100 100 100 100 100 100 86 91 56 12 5 42 87 57 0 4 55 99 100 100 100 100 100 100 100 100 100 100 100 100 100 100 100 100 100 100 61 13
100 100 99 100 100 100 100 100 100 100 100 100 100 100 100 100 80 97 98 99 97 92 100 100 51 54 96 100 71 28 5 9 5 18 51 50 100 100 100 100 100 100 100 100 100 100 100 100 100 100 100 100 100 100
100 100 100 100 100 91 94 94 92 96 100 100 100 98 86 69 75 100 95 97 88 100 100 100 90 64 97 100 100 100 98 34 53 63 77 73 100 100 97 100 100 100 100 100 100 100 100 100 84 100 100 100 100 100
100 100 100 58 98 85 53 28 10 100 74 96 90 84 89 62 36 100 99 45 54 99 100 100 100 99 86 100 100 91 76 95 69 94 91 100 100 98 85 100 100 100 100 100 100 100 100 100 98 100 100 100 100 100
79 11 38 32 8 21 100 100 100 83 40 25 97 100 99 48 21 34 100 100 100 99 65 94 89 100 45 100 100 100 96 99 99 98 100 100 100 100 100 100 100 100 100 100 100 100 100 100 100 100 100 100 99 100
4 0 0 1 4 5 80 15 12 96 100 94 58 89 77 100 100 100 100 100 100 100 100 100 100 100 56 99 100 100 100 100 100 100 100 100 100 100 100 100 100 100 100 100 100 100 100 100 100 100 80 100 100 100
0 0 4 5 18 76 96 100 100 100 100 97 97 22 66 100 100 100 100 100 100 100 100 100 100 100 100 100 100 100 100 100 100 100 98 100 90 100 100 100 100 100 100 100 100 100 99 100 81 100 100 100 100 100
100 100 100 100 100 100 100 100 100 100 100 100 100 100 100 100 100 100 100 100 100 100 100 100 100 100 100 100 100 100 100 100 100 100 100 100 100 100 100 100 100 100 100 100 100 100 100 100 100 100 100 100 100 100
100 100 100 100 100 100 100 100 100 100 100 100 100 100 100 100 100 100 100 100 100 100 100 100 100 100 100 100 100 100 100 100 100 100 100 100 100 100 100 100 100 100 100 100 100 100 100 100 100 100 100 100 100 100
100 100 100 100 100 100 100 100 100 100 100 100 100 100 100 100 100 100 100 100 100 100 100 100 100 100 100 100 100 100 100 100 100 100 100 100 100 100 100 100 100 100 100 100 100 100 100 100 100 100 100 100 100 100
100 100 100 100 100 100 100 100 100 100 100 100 100 100 100 100 100 100 100 100 100 100 100 100 100 100 100 100 100 100 100 100 100 100 100 100 100 100 100 100 100 100 100 100 100 100 100 100 100 100 100 100 100 100
100 100 100 100 100 100 100 100 100 100 100 100 100 100 100 100 100 100 100 100 100 100 100 100 100 100 100 100 100 100 100 100 100 100 100 100 100 100 100 100 100 100 100 100 100 100 100 100 100 100 100 100 100 100
100 100 100 100 100 100 100 100 100 100 100 100 100 100 100 100 100 100 100 100 100 100 100 95 99 100 97 100 100 100 100 100 100 100 100 100 100 100 100 100 100 100 100 100 100 100 100 100 100 100 100 100 100 100
100 100 100 100 100 100 100 100 100 100 100 100 100 100 100 100 100 98 95 86 81 99 100 100 96 98 100 100 100 100 100 100 100 100 100 100 100 100 100 100 100 100 100 100 100 100 100 100 100 100 100 100 100 100
100 100 100 100 100 100 94 100 100 100 100 100 100 100 97 100 100 96 91 88 88 98 96 99 100 100 100 100 100 100 100 100 100 100 100 100 100 100 100 100 100 100 100 100 100 100 100 100 100 100 100 100 100 100
100 100 100 100 100 100 100 100 100 100 100 100 100 97 89 100 91 98 100 100 100 100 100 100 100 100 100 100 100 100 100 100 100 100 100 100 100 100 100 100 100 100 100 100 100 100 100 100 100 100 100 100 100 100
100 100 100 100 99 100 100 99 90 89 88 91 68 70 68 68 84 81 96 100 100 100 100 100 100 100 100 100 100 100 100 100 100 100 100 100 100 100 100 100 100 100 100 100 100 100 100 100 100 100 100 100 100 100
100 100 72 52 60 67 51 53 60 76 82 74 30 11 70 90 76 7 58 95 100 100 100 100 100 100 100 100 100 100 100 100 100 100 100 100 100 100 100 100 100 100 100 100 100 100 100 100 100 100 100 100 100 100
64 88 87 92 58 43 12 5 5 6 23 40 40 79 96 84 16 5 71 89 100 99 100 100 100 100 100 100 100 100 100 100 100 100 100 100 100 100 100 100 100 100 100 100 100 100 100 100 100 100 100 100 100 100
76 61 61 62 23 10 6 30 53 16 69 78 83 100 85 10 54 63 81 93 98 100 96 95 98 99 100 100 100 100 100 100 100 100 100 100 100 100 100 100 100 100 100 100 100 100 98 97 54 46 24 92 77 96
77 92 61 89 66 37 86 93 100 100 92 94 94 100 17 5 26 99 99 97 98 98 95 96 82 89 100 100 100 99 99 30 68 44 100 100 66 9 53 83 96 100 99 80 40 98 82 88 100 100 100 73 92 100
100 77 84 97 91 16 84 77 9 18 85 99 91 90 51 89 100 100 100 100 100 94 78 76 59 90 100 100 100 100 73 21 74 100 100 99 100 100 92 100 100 100 100 96 100 100 100 100 100 100 100 100 100 100
86 6 11 46 49 36 100 99 95 100 99 100 81 93 77 86 100 100 100 100 96 89 78 68 12 53 82 98 99 99 98 99 49 5 5 5 8 38 18 65 87 94 77 59 100 100 100 100 100 100 100 100 96 75
71 68 7 95 38 74 97 100 100 100 100 89 53 99 100 100 100 97 100 100 99 95 91 83 87 53 10 46 72 82 21 5 5 7 100 100 94 83 87 91 100 100 100 66 63 91 98 94 97 99 98 100 100 100
17 46 75 68 71 100 100 81 86 61 23 71 43 94 95 100 100 98 94 93 97 97 100 94 85 68 100 76 100 100 100 97 44 28 100 100 100 100 100 100 100 100 100 100 100 83 90 55 55 7 24 6 6 27
38 53 84 83 97 98 58 30 41 8 5 44 11 65 79 99 100 99 93 87 91 84 90 100 100 100 100 100 100 100 98 94 100 100 100 100 100 100 100 100 100 100 100 100 100 100 100 99 100 93 58 17 5 25
68 95 55 84 100 92 96 97 99 89 89 90 95 95 93 23 95 100 93 100 98 100 100 100 100 100 93 98 100 99 86 96 100 100 100 100 100 100 100 100 100 100 100 100 100 100 100 100 100 100 100 91 52 56
72 21 76 94 88 95 90 99 97 90 76 94 96 92 78 25 46 93 100 90 59 5 5 60 100 94 97 54 63 97 91 99 100 100 100 100 100 100 100 100 100 100 100 100 100 100 100 100 100 100 100 99 94 64

GFSWCAN_prec_cloud_051.txt.gz
Cloud_Cover
31 96 100 100 99 100 100 100 100 100 100 100 100 100 100 100 100 100 100 100 100 94 53 85 32 35 42 96 99 100 100 100 54 99 100 100 100 91 100 100 100 100 100 100 99 74 94 100 5 0 0 0 33 18
95 80 100 100 100 100 100 100 100 100 100 100 100 100 100 100 100 100 100 100 100 84 81 100 97 84 13 42 97 100 100 100 99 100 100 100 100 100 100 100 100 100 100 100 86 97 100 18 55 2 0 5 5 5
100 100 78 100 100 100 100 100 100 100 100 100 100 100 100 100 100 100 97 100 100 100 89 98 100 97 76 6 65 100 100 98 23 99 100 100 100 100 100 100 100 100 100 100 74 70 46 96 80 50 5 5 5 5
100 100 100 100 100 100 100 100 100 100 100 100 100 100 100 100 100 100 100 89 57 89 95 100 100 100 97 55 30 100 90 5 6 5 36 100 100 100 100 100 100 100 100 100 19 92 100 79 66 100 57 5 0 5
100 100 100 100 100 100 100 100 100 100 100 100 100 100 100 100 100 99 100 31 75 89 100 100 100 100 91 76 46 65 28 1 4 80 71 87 100 100 100 100 100 100 100 100 100 100 73 100 100 100 100 100 77 10
100 100 100 100 100 100 100 100 100 100 100 100 100 100 100 100 90 99 96 5 9 20 100 99 100 99 93 75 90 44 5 5 5 5 69 42 100 100 100 67 100 100 100 100 100 100 100 94 100 100 100 100 100 50
100 100 100 100 100 100 100 100 100 100 100 100 100 100 100 100 100 53 88 98 100 100 100 80 97 66 73 58 100 100 92 38 4 2 49 4 70 100 57 29 100 100 100 100 100 100 100 100 100 100 100 100 100 100
100 100 100 100 100 100 100 100 100 100 100 100 97 100 100 100 100 100 100 86 100 100 100 100 100 96 100 100 100 100 100 100 51 12 40 6 46 61 21 77 100 100 100 100 100 100 100 100 100 100 100 100 100 100
100 100 100 100 100 100 100 100 100 100 100 100 100 94 100 97 100 92 100 55 89 100 100 100 100 100 100 100 98 100 100 100 76 100 80 80 78 45 41 93 100 100 100 100 100 100 100 100 100 100 100 100 100 100
100 100 100 98 92 100 100 100 100 100 100 100 100 100 99 52 7 8 98 61 76 100 52 96 100 100 100 100 100 100 100 100 100 96 70 98 9 4 90 100 100 100 100 100 100 100 100 100 100 100 100 100 100 100
63 52 100 100 100 100 100 32 41 18 10 20 23 81 23 40 12 66 100 98 82 100 100 93 65 99 100 92 100 84 100 100 100 97 64 100 75 18 23 39 28 100 100 100 100 100 100 100 100 100 100 100 100 100
10 13 95 100 54 98 81 100 93 61 86 100 74 10 78 65 84 100 82 100 100 92 95 97 46 5 94 50 92 100 95 100 93 100 99 100 100 100 89 46 99 100 100 100 100 100 100 100 100 100 100 100 100 100
100 94 100 100 100 100 56 100 100 100 100 100 98 100 100 100 100 100 100 98 100 100 100 100 100 99 94 94 95 100 50 98 100 100 100 100 100 100 100 100 100 100 100 100 100 100 100 100 100 100 100 100 100 100
100 100 100 100 100 100 100 100 100 100 100 100 100 100 100 100 100 100 100 100 100 100 100 100 100 100 100 100 100 100 100 100 100 100 100 100 100 100 100 100 100 100 100 100 100 100 100 100 100 100 100 100 100 100
100 100 100 100 100 100 100 100 100 100 100 100 100 100 100 100 100 100 100 100 100 100 100 100 100 100 100 100 100 100 100 100 100 100 100 100 100 100 100 100 100 100 100 100 100 100 100 100 100 100 100 100 100 100
100 100 100 100 100 100 100 100 100 100 100 100 100 100 100 100 100 100 100 100 100 100 100 97 100 100 100 100 100 100 100 100 100 100 100 100 100 100 100 100 100 100 100 100 100 100 100 100 100 100 100 100 100 100
100 100 100 100 100 100 100 100 100 100 100 100 100 100 100 100 100 100 100 100 100 100 100 100 100 100 100 100 100 100 100 100 100 100 100 100 100 100 100 100 100 100 100 100 100 100 100 100 100 100 100 100 100 100
100 100 100 100 100 100 100 100 100 100 100 100 100 100 100 100 100 100 100 100 100 100 100 100 100 100 100 100 100 100 100 100 100 100 100 100 100 100 100 100 100 100 100 100 100 100 100 100 100 100 100 100 100 100
100 100 100 100 100 100 100 100 100 98 100 99 100 100 100 100 100 100 100 100 99 100 100 100 100 100 100 100 100 100 100 100 100 100 100 100 100 100 100 100 100 100 100 100 100 100 100 100 100 100 100 100 100 100
100 100 100 100 100 100 99 100 100 100 100 95 92 99 80 91 98 92 91 94 91 100 100 100 100 100 100 100 100 100 100 100 100 100 100 100 100 100 100 100 100 100 100 100 100 100 100 100 100 100 100 100 100 100
100 100 100 100 100 100 100 68 100 92 96 97 98 100 100 100 100 100 100 100 99 100 100 100 100 100 100 100 100 100 100 100 100 100 100 100 100 100 100 100 100 100 100 100 100 100 100 100 100 100 100 100 100 100
100 100 100 100 100 100 100 98 73 62 92 58 61 93 100 100 89 92 77 77 100 100 100 100 100 100 100 100 100 100 100 100 100 100 100 100 100 100 100 100 100 100 100 100 100 100 100 100 100 100 100 100 100 100
100 100 100 100 100 100 100 96 85 65 22 64 92 76 58 77 53 26 50 100 100 100 100 100 100 100 100 100 100 100 100 100 100 100 100 100 100 100 100 100 100 100 100 100 100 100 100 100 100 100 100 100 100 100
93 82 92 100 100 100 100 100 98 96 66 59 68 93 96 57 10 5 92 100 100 100 100 100 100 97 94 100 100 100 100 100 100 100 100 100 100 100 100 100 100 100 100 100 100 100 100 100 100 100 100 100 100 100
78 55 48 52 16 13 56 94 61 13 98 94 69 95 76 5 30 69 92 100 100 100 100 100 100 100 100 100 97 92 22 6 22 11 96 70 97 100 100 100 100 100 100 100 100 100 99 99 75 62 63 66 36 71
78 92 76 92 91 37 92 96 100 100 99 84 90 48 5 5 27 99 100 100 100 100 100 100 98 99 100 100 100 91 98 26 5 58 100 100 86 60 63 73 71 100 100 100 96 96 96 97 100 86 39 38 89 100
76 73 75 99 44 17 89 51 9 11 84 96 88 76 10 84 100 100 100 100 97 100 99 96 74 100 100 100 100 98 62 36 66 94 96 88 96 100 91 99 100 100 98 80 100 100 100 100 100 100 100 84 92 100
80 84 46 72 49 6 100 98 99 100 100 95 30 91 59 62 95 100 100 94 78 82 69 96 97 89 94 99 100 99 90 14 5 9 12 12 73 82 70 80 88 100 16 19 94 95 100 100 100 100 100 100 91 79
95 74 23 98 46 63 97 100 100 100 100 57 51 100 100 100 100 99 100 99 92 79 78 80 87 36 53 64 78 80 22 5 3 6 51 86 87 63 97 99 98 99 100 61 61 79 89 39 70 5 5 26 59 60
41 51 75 71 82 100 98 78 81 60 44 53 42 98 96 100 100 100 98 97 87 80 87 83 93 32 84 20 98 69 97 97 49 24 82 100 100 100 100 100 100 100 100 100 98 54 84 35 42 5 5 5 15 41
58 37 57 69 100 97 47 40 52 25 23 44 40 56 84 96 100 98 92 71 79 87 84 100 100 100 79 98 92 73 30 34 100 100 100 100 100 100 100 100 100 100 100 100 100 100 88 64 74 58 24 5 5 49
77 100 61 80 93 100 100 99 99 89 100 92 94 98 95 41 93 96 95 92 90 90 100 100 100 98 95 100 100 98 81 95 100 100 100 100 99 98 100 96 100 100 96 79 89 93 95 83 71 63 62 57 53 53
74 53 93 93 90 96 92 100 87 84 88 100 100 100 89 21 32 68 97 55 65 23 5 54 92 99 88 73 45 98 93 96 100 100 100 100 100 100 100 100 100 96 17 5 62 66 55 32 37 50 18 38 38 52

GFSWCAN_prec_cloud_054.txt.gz
Cloud_Cover
42 48 95 99 6 93 100 99 100 100 100 100 100 100 100 100 100 100 100 100 72 90 93 34 82 100 100 100 22 28 100 100 100 100 86 96 100 100 100 100 100 100 100 100 89 39 100 100 8 4 36 4 4 2
40 52 100 100 100 100 100 100 100 100 100 20 100 100 100 100 100 100 100 91 99 100 100 96 82 100 100 81 7 29 40 99 100 94 5 79 36 100 100 100 100 100 100 100 99 100 100 100 100 84 51 5 5 23
100 79 74 100 100 100 100 98 11 22 91 100 100 100 100 100 100 100 100 100 100 100 47 100 100 83 100 86 98 15 6 55 100 94 99 91 100 100 100 100 100 100 100 100 100 100 100 100 100 62 5 5 88 100
100 97 100 100 100 100 100 100 100 100 100 100 100 100 100 100 100 100 100 100 100 100 98 91 100 100 72 99 84 3 5 69 100 91 6 46 22 100 100 100 100 100 100 100 100 100 100 100 93 74 18 48 96 85
100 100 100 100 100 100 100 100 100 100 100 100 100 100 100 100 100 100 100 100 100 63 82 100 100 100 100 82 30 4 24 100 100 85 60 19 5 48 100 100 100 100 100 100 100 100 100 100 85 79 71 82 93 69
100 100 100 100 100 100 100 100 100 100 100 100 100 100 100 100 100 100 100 100 100 80 7 99 100 100 100 92 54 5 86 100 97 62 12 2 5 68 100 100 100 100 100 100 100 100 100 99 100 98 46 86 100 100
100 100 100 100 100 100 100 100 100 100 100 100 100 100 100 100 100 99 100 98 34 4 5 93 100 80 100 100 100 36 100 100 88 29 6 14 4 92 100 100 100 100 100 100 100 100 100 100 100 100 97 100 100 100
100 100 100 100 100 100 100 100 100 100 100 100 100 100 100 100 70 92 85 50 5 58 90 100 100 100 100 100 100 86 100 100 36 27 4 5 9 6 38 100 100 100 100 100 100 100 100 100 100 100 100 100 89 100
88 99 100 100 100 100 100 100 100 100 100 100 77 91 100 100 100 94 100 86 100 68 100 100 100 100 100 98 96 100 76 100 30 50 48 3 5 23 100 87 100 100 100 100 100 100 100 100 100 100 100 100 76 100
100 100 100 78 80 100 100 100 100 100 100 100 100 90 95 98 100 75 100 100 100 100 100 100 100 100 100 100 100 100 100 100 100 97 47 76 5 6 12 5 97 100 100 100 100 100 100 100 100 100 100 100 100 100
100 100 100 100 100 100 100 97 67 95 84 100 100 100 100 88 95 100 100 70 32 89 64 97 94 100 100 100 100 86 93 100 100 100 100 93 72 94 90 12 5 80 98 97 47 43 64 12 100 100 100 100 100 100
100 100 100 74 18 44 30 10 5 24 63 74 89 14 92 99 96 100 83 70 95 100 100 100 100 100 100 100 71 97 100 100 100 100 100 100 100 100 100 100 83 31 6 2 4 2 1 5 69 100 100 100 100 100
99 100 27 5 5 30 99 99 81 96 100 73 78 99 100 97 99 100 100 100 97 100 100 100 100 100 100 95 94 100 100 100 100 100 100 100 100 100 100 100 100 100 63 56 42 70 63 93 98 100 100 100 100 100
100 100 100 100 97 70 100 100 100 100 100 100 100 100 100 100 83 100 100 100 100 100 100 66 100 100 100 98 100 100 100 100 100 100 100 100 100 100 100 100 100 100 100 100 100 100 100 100 100 100 100 100 100 100
100 100 100 100 100 100 100 100 100 100 100 100 100 100 100 100 100 98 100 100 100 100 100 100 100 100 100 100 100 100 100 100 100 100 100 100 100 100 100 100 100 100 100 100 100 100 100 100 100 100 100 100 100 100
100 100 100 100 100 100 100 100 100 100 100 100 100 100 100 100 100 100 100 100 100 100 100 100 100 100 100 100 100 100 100 100 100 100 100 100 100 100 100 100 100 100 100 100 100 100 100 100 100 100 100 100 100 100
100 100 100 100 100 100 100 100 100 100 100 100 100 100 100 100 100 100 100 100 100 100 100 100 100 100 100 100 100 100 100 100 100 100 100 100 100 100 100 100 100 100 100 100 100 100 100 100 100 100 100 100 100 100
100 100 100 100 100 100 100 100 100 100 100 100 100 100 100 100 100 100 100 100 100 100 100 100 100 98 100 100 100 100 100 100 100 100 100 100 100 100 100 100 100 100 100 100 100 100 100 100 100 100 100 100 100 100
100 100 100 100 100 100 100 100 100 100 100 100 100 100 100 100 100 100 100 100 100 100 100 100 100 100 100 100 100 100 100 100 100 100 100 100 100 100 100 100 100 100 100 100 100 100 100 100 100 100 100 100 100 100
100 100 100 100 100 100 100 100 100 100 100 98 100 100 100 100 100 100 100 100 100 100 100 100 100 100 100 100 100 100 100 100 100 100 100 100 100 100 100 100 100 100 100 100 100 100 100 100 100 100 100 100 100 100
100 100 100 100 100 100 100 100 99 99 100 100 100 100 100 100 100 77 59 46 51 99 100 100 100 100 100 100 100 100 100 100 100 100 100 100 100 100 100 100 100 100 100 100 100 100 100 100 100 100 100 100 100 100
99 96 100 100 100 100 99 60 82 84 82 100 100 100 96 100 100 98 100 100 100 100 100 100 100 100 100 100 100 100 100 100 100 100 100 100 100 100 100 100 100 100 100 100 100 100 100 100 100 100 100 100 100 100
100 99 100 100 100 98 88 46 61 91 88 84 86 82 91 98 93 84 100 100 100 100 100 100 100 100 100 100 100 100 100 100 100 100 100 100 100 100 100 100 100 100 100 100 100 100 100 100 100 100 100 100 100 100
100 100 100 100 100 100 99 98 97 92 84 70 84 100 86 73 5 49 100 100 100 100 100 100 100 100 100 100 99 98 86 89 100 100 100 100 100 100 100 100 100 100 100 100 100 100 100 98 82 91 85 88 85 96
100 100 100 100 100 100 76 73 57 19 95 93 96 90 80 25 77 95 100 100 100 100 100 100 100 100 100 94 43 32 14 5 5 5 40 64 62 29 5 23 80 96 100 99 99 99 100 100 100 100 100 93 47 100
80 96 71 92 55 36 82 76 95 96 85 99 100 44 5 5 75 100 100 100 100 100 100 100 100 100 100 97 34 22 69 20 5 5 32 19 20 18 15 5 14 48 100 100 100 100 99 100 100 100 100 99 100 99
27 83 82 92 90 42 77 73 60 67 98 99 94 14 5 39 100 100 100 100 100 100 100 100 100 100 99 100 82 44 8 5 5 5 5 9 69 80 88 74 83 100 100 100 100 100 100 100 100 100 100 100 100 100
96 39 18 60 35 46 56 68 83 99 100 91 7 68 29 70 100 100 100 100 100 94 100 100 100 100 100 100 100 100 98 95 98 86 96 99 100 100 100 100 99 86 96 99 100 100 100 100 100 96 78 96 100 100
100 81 62 47 50 94 100 100 100 100 100 72 67 100 100 100 100 100 100 100 100 100 82 48 68 84 72 62 78 47 35 5 2 0 4 11 89 100 100 100 100 100 100 100 85 100 100 100 97 39 71 90 100 100
99 66 53 69 68 94 100 100 100 100 100 100 100 100 100 100 100 100 100 100 100 100 100 98 74 70 15 34 58 77 67 78 84 54 17 62 100 100 100 100 100 100 100 100 100 99 45 64 86 88 76 96 92 96
100 100 100 88 99 100 83 30 28 33 81 92 96 98 100 100 100 100 100 99 73 65 54 59 79 90 72 44 5 5 60 100 96 96 93 100 100 100 100 100 100 100 100 100 100 89 72 81 87 89 86 81 84 91
100 88 75 77 100 94 97 100 100 90 97 100 100 98 100 100 100 100 100 100 100 100 67 82 100 100 97 76 43 56 71 92 100 100 100 100 100 100 100 95 98 100 100 88 79 80 65 66 78 64 77 82 77 86
100 100 100 91 100 100 100 100 96 99 100 100 100 100 100 90 82 100 100 97 96 90 62 80 100 100 64 49 68 92 69 97 75 94 100 99 100 82 74 100 84 83 68 68 77 64 58 29 64 62 88 83 86 92

GFSWCAN_prec_cloud_057.txt.gz
Cloud_Cover
100 24 43 49 10 92 100 100 71 5 68 55 100 100 100 100 100 100 100 87 77 100 100 100 100 100 99 100 86 27 100 100 100 100 100 97 100 96 100 100 100 100 100 100 100 100 100 100 100 100 35 37 8 0
43 15 92 97 97 99 5 2 14 100 97 80 100 58 100 100 100 100 100 100 100 100 100 100 100 70 74 90 75 18 54 77 100 78 66 100 97 71 100 100 100 100 100 100 100 100 100 100 100 100 92 14 23 0
96 100 100 100 95 100 100 99 98 82 100 100 100 100 100 100 100 100 100 100 100 100 100 100 100 55 90 31 98 38 89 100 100 82 100 100 100 100 100 100 100 100 100 94 100 100 100 100 100 100 100 100 100 5
100 100 100 100 87 100 100 100 100 100 100 100 86 52 100 100 100 100 100 100 100 100 100 100 59 74 100 100 100 48 61 99 100 91 19 32 92 96 97 100 100 100 100 100 100 100 100 100 100 100 100 100 100 63
100 100 100 100 100 99 100 36 60 49 66 72 100 100 100 100 100 100 100 100 100 100 94 91 16 26 100 100 98 94 92 11 100 63 29 8 57 78 5 87 100 100 100 100 100 100 100 100 100 100 100 88 79 77
100 100 100 100 100 86 18 77 100 100 100 100 100 100 100 100 100 100 100 100 100 100 100 40 25 94 77 100 100 100 54 36 84 42 5 26 100 64 44 60 100 100 100 100 100 100 100 100 100 100 100 100 78 27
100 100 100 100 100 100 100 100 100 100 100 100 100 100 100 100 100 100 100 100 100 100 90 80 77 20 96 88 100 52 4 54 54 96 7 91 100 100 97 57 100 100 100 100 100 100 100 100 100 100 100 100 100 34
100 100 100 100 100 100 100 100 100 100 100 100 100 100 100 100 100 100 100 100 100 98 18 100 91 93 100 99 69 4 4 28 81 67 7 6 20 52 46 100 100 100 100 100 100 100 100 100 100 100 100 100 100 89
100 100 100 100 100 100 100 100 100 100 100 100 100 100 100 100 100 84 71 50 25 67 26 98 100 100 100 100 97 95 92 34 56 29 18 61 52 55 98 100 100 100 100 100 100 100 100 100 100 100 100 100 100 100
100 100 100 100 100 100 100 100 100 100 100 100 100 100 100 99 100 100 100 100 14 6 62 100 100 100 100 100 100 100 100 83 30 28 8 39 31 99 75 75 99 83 100 100 100 100 100 100 100 100 100 100 100 100
100 100 100 100 73 93 100 100 100 100 100 100 100 100 100 97 100 100 100 99 100 100 95 100 100 100 100 100 100 97 79 74 100 92 56 25 74 95 97 100 85 64 97 100 100 100 100 100 100 100 100 100 95 89
98 58 16 64 80 67 80 55 86 76 100 100 87 95 100 94 100 96 94 100 100 76 100 100 100 100 100 100 100 100 100 100 100 100 100 100 100 98 100 100 100 100 91 100 100 100 100 100 100 92 74 92 92 96
6 6 13 6 6 69 100 68 13 8 17 93 55 91 100 94 100 100 99 100 100 100 100 100 90 100 100 100 100 100 100 100 100 100 100 100 100 100 100 100 100 100 100 94 100 98 89 77 100 100 100 100 100 100
3 90 100 100 100 100 100 100 100 100 94 100 100 84 99 100 100 100 100 100 100 100 100 100 100 100 100 100 100 100 100 100 100 100 100 100 99 100 100 100 100 100 100 100 100 100 100 100 100 100 100 100 100 100
100 97 82 100 100 100 100 100 100 100 100 100 88 100 100 100 100 100 100 100 100 100 100 100 100 100 100 100 100 100 100 100 100 100 100 100 100 100 100 100 100 100 100 100 100 100 100 100 100 100 100 100 100 100
100 100 100 100 100 100 100 100 100 100 100 100 100 100 100 100 100 100 100 100 100 100 100 100 100 100 100 100 87 100 100 100 100 100 100 100 100 100 100 100 100 100 100 100 100 100 100 100 100 100 100 100 100 100
100 100 100 100 100 100 100 100 100 100 100 100 100 100 100 100 100 100 100 100 100 100 100 100 100 100 100 99 100 100 100 100 100 100 100 100 100 100 100 100 100 100 100 100 100 100 100 100 100 100 100 100 100 100
100 100 100 100 100 100 100 100 100 100 100 100 100 100 100 100 100 100 100 100 100 100 100 100 100 100 100 100 100 100 100 100 100 100 100 100 100 100 100 100 100 100 100 100 100 100 100 100 100 100 100 100 100 100
98 90 100 100 100 100 100 100 100 100 100 100 100 100 100 100 100 100 100 100 100 100 100 100 100 100 100 100 100 100 100 100 100 100 100 100 100 100 100 100 100 100 100 100 100 100 100 100 100 100 100 100 100 100
100 100 100 100 100 100 100 100 100 100 100 100 100 100 100 100 100 100 100 100 100 100 100 100 100 100 100 100 100 100 100 100 100 100 100 100 100 100 100 100 100 100 100 100 100 100 100 100 100 100 100 100 100 100
100 100 100 100 100 100 100 100 100 100 100 97 100 92 100 98 93 100 100 100 100 100 100 100 100 100 100 100 100 100 100 100 100 100 100 100 100 100 100 100 100 100 100 100 100 100 100 100 100 100 100 100 100 100
100 100 100 100 100 100 100 98 97 100 100 100 100 100 100 100 100 100 100 100 100 100 100 100 100 100 100 100 100 100 100 100 100 100 100 100 100 100 100 100 100 100 100 100 100 100 100 100 100 100 100 100 100 100
99 100 100 100 100 100 100 96 94 92 87 87 92 93 100 100 99 86 100 100 100 100 100 100 100 100 100 100 100 100 100 100 100 100 100 100 99 100 100 100 100 100 100 100 100 100 100 100 100 100 100 100 100 100
97 100 100 100 98 98 100 96 65 65 76 96 82 95 82 87 77 97 100 100 100 100 100 100 100 100 100 78 86 96 81 92 99 100 99 100 83 99 98 100 97 100 100 100 100 100 100 100 100 100 100 100 100 100
100 100 100 99 99 100 100 61 87 61 100 96 100 96 98 93 100 99 100 100 100 100 100 100 100 100 100 99 98 77 60 60 40 5 56 100 100 97 74 44 65 81 100 100 100 100 100 100 100 100 100 100 100 100
100 100 100 100 99 99 80 85 94 94 98 100 100 97 94 100 100 100 100 100 100 100 100 100 100 100 100 98 77 57 80 74 7 5 5 5 51 97 76 83 97 99 100 100 100 100 100 100 100 100 100 100 92 100
98 97 90 88 97 67 88 87 82 82 100 100 100 100 93 96 100 100 100 100 100 100 100 100 100 100 100 86 70 60 9 5 4 5 5 35 81 96 99 100 96 100 100 100 100 100 100 100 100 100 100 100 100 100
100 100 98 82 80 65 68 35 58 93 100 91 69 98 91 97 100 100 100 100 100 100 100 100 100 96 100 100 100 100 98 80 84 91 100 100 100 100 100 100 97 94 100 100 100 100 100 100 100 100 100 100 100 100
100 85 37 38 8 58 94 97 100 99 100 95 99 100 99 100 100 100 100 100 100 100 100 100 100 100 93 75 79 67 93 100 51 5 52 100 100 100 100 100 100 100 100 100 100 100 100 100 100 90 100 100 100 100
97 81 60 59 53 97 100 100 100 100 100 97 86 100 100 100 100 100 100 100 100 100 100 100 100 100 100 100 100 96 97 100 100 100 100 100 100 100 100 100 100 100 100 100 100 100 79 80 100 100 99 100 100 100
100 100 100 100 99 100 100 100 100 99 100 100 100 98 100 100 100 100 100 100 100 100 100 100 100 100 100 98 100 96 100 100 93 91 98 100 100 100 100 100 100 100 100 100 100 100 94 95 100 100 100 100 100 98
100 100 100 100 100 100 100 100 100 100 100 100 100 100 100 100 100 100 100 100 100 100 100 100 100 100 100 100 73 43 30 100 100 100 100 100 100 100 100 100 100 100 100 100 100 100 100 100 100 100 100 100 100 100
100 100 100 100 100 100 100 100 90 98 99 100 100 100 100 100 100 100 100 100 100 100 100 100 100 100 99 98 97 94 49 97 74 60 79 82 90 47 88 100 100 100 100 100 100 100 100 100 100 98 100 100 100 100

GFSWCAN_prec_cloud_060.txt.gz
Cloud_Cover
100 100 34 11 88 99 93 100 88 65 57 84 59 100 100 100 100 100 100 100 100 88 100 100 100 100 100 48 6 32 100 100 100 100 65 94 96 69 100 100 93 100 100 100 100 100 75 100 100 100 100 100 100 43
100 96 75 100 100 100 78 98 65 100 99 100 100 100 100 100 100 100 100 100 100 100 100 100 100 100 100 98 99 100 80 48 57 100 50 98 6 57 66 100 100 100 53 97 100 100 100 100 100 100 100 100 100 100
100 100 74 100 58 46 100 75 52 87 90 100 100 100 100 100 100 100 100 100 100 100 100 100 100 100 97 60 8 100 91 53 100 60 80 49 5 52 100 71 100 100 100 78 100 99 100 100 100 100 100 100 100 84
100 100 90 100 100 28 100 99 12 6 14 24 100 98 100 100 100 100 100 100 100 100 100 100 100 100 83 26 64 99 52 86 68 100 99 51 22 6 100 100 100 100 100 100 96 100 100 100 100 100 100 100 100 100
100 100 100 100 99 77 98 100 33 62 100 100 100 100 100 100 100 100 100 100 100 100 100 100 100 82 96 95 100 93 57 25 8 78 30 5 38 80 100 100 100 100 100 100 100 100 100 100 100 100 100 100 100 100
100 99 22 100 76 100 100 100 100 98 100 100 100 100 100 100 100 100 100 100 100 100 100 100 100 100 100 97 97 90 73 69 64 75 98 95 100 30 29 94 100 100 100 100 100 100 100 100 100 100 100 100 100 100
100 100 100 100 95 100 100 100 100 100 100 100 100 100 100 100 100 100 100 100 100 100 100 100 100 100 100 97 10 78 99 98 93 56 100 98 15 100 52 62 100 100 100 100 100 100 100 100 100 100 100 100 100 100
100 100 100 100 100 100 100 100 100 100 100 100 100 100 100 100 100 100 100 100 100 100 100 100 100 100 29 100 100 100 57 100 40 100 47 5 64 100 9 100 100 100 100 100 100 100 100 100 100 100 100 78 100 100
100 100 100 100 100 100 100 100 100 100 100 100 100 100 100 100 100 100 100 100 100 100 82 48 20 100 92 100 100 99 31 100 71 10 98 62 72 95 88 100 100 100 94 100 100 100 100 100 100 100 100 100 100 100
100 100 100 100 100 100 100 100 100 100 100 100 100 100 100 100 100 100 100 87 51 68 61 96 40 100 100 100 100 67 83 100 41 5 64 100 100 96 97 100 100 100 100 100 100 100 100 100 100 100 100 100 100 100
91 98 100 100 100 100 100 100 100 100 100 100 100 100 100 100 100 100 92 66 52 52 79 62 100 100 100 100 100 12 73 87 100 30 92 45 67 99 100 100 100 100 100 100 100 100 100 100 100 100 100 100 100 100
91 100 100 100 100 100 100 100 100 100 100 100 100 100 100 94 97 95 72 60 58 69 99 84 100 100 100 100 100 100 100 100 100 92 100 100 100 100 100 100 100 100 100 100 100 100 100 100 100 100 100 100 100 100
59 59 60 79 97 100 100 100 100 100 100 100 100 100 100 87 97 92 63 55 71 100 98 98 100 100 100 100 100 100 100 100 100 100 100 100 99 84 100 100 100 100 100 100 100 100 100 100 100 93 100 100 100 100
100 99 99 100 100 87 75 99 76 100 99 100 100 100 99 100 100 100 100 100 100 100 100 100 100 100 100 100 100 100 100 100 100 100 100 100 100 100 100 100 87 97 100 100 100 100 100 100 100 100 100 100 100 100
100 100 100 100 100 100 100 100 90 91 98 100 100 98 97 100 100 100 100 100 100 100 100 100 100 100 100 100 100 100 100 100 100 100 100 100 100 100 100 100 100 94 100 100 100 100 100 100 100 100 100 100 100 100
100 100 100 100 100 100 100 99 100 100 94 100 100 100 100 100 100 92 100 100 100 100 100 100 100 100 100 99 100 100 100 100 100 100 100 100 100 100 100 100 100 100 100 100 100 100 100 100 100 100 100 100 100 100
100 100 100 100 100 100 100 100 100 100 100 100 100 100 100 100 100 100 100 95 93 100 100 100 100 100 96 99 100 100 100 100 100 100 100 100 100 100 100 100 100 100 100 100 100 100 100 100 100 100 100 100 100 100
100 100 100 100 100 100 100 100 100 100 100 100 100 100 100 100 100 100 100 100 100 100 100 100 100 100 100 100 100 100 100 100 100 100 100 100 100 100 100 100 100 100 100 100 100 100 100 100 100 100 100 100 100 100
100 100 100 100 100 100 100 100 100 100 100 100 100 100 100 100 100 100 100 100 100 100 100 100 100 100 100 100 100 100 100 100 100 100 100 100 100 100 100 100 100 100 100 100 100 100 100 100 100 100 100 100 100 100
100 100 100 100 93 100 100 100 100 100 100 100 100 100 100 100 100 100 100 100 100 100 100 100 100 100 100 100 100 100 100 100 100 100 100 100 100 100 100 100 100 100 100 100 100 100 100 100 100 100 100 100 100 100
100 100 100 100 100 100 100 100 100 100 100 100 100 100 100 100 100 100 100 100 100 100 100 100 100 100 100 100 100 100 100 100 100 100 100 100 100 100 100 100 100 100 100 100 100 100 100 100 100 100 100 100 100 100
100 100 100 100 100 100 100 100 100 100 100 100 100 100 100 100 100 100 100 100 100 100 100 100 100 100 100 100 100 100 100 100 100 100 100 100 100 100 100 100 100 100 100 100 100 100 100 100 100 100 100 100 100 100
100 100 100 100 100 100 100 100 100 100 100 100 100 100 100 100 100 100 100 100 100 100 100 100 100 100 100 100 100 100 100 100 100 100 100 100 100 100 100 100 100 100 100 100 100 100 100 100 100 100 100 96 100 100
100 100 100 100 100 100 98 75 79 91 85 96 98 100 99 100 100 100 100 100 100 100 100 100 100 100 100 100 100 100 100 100 100 100 100 100 100 100 97 99 100 100 100 100 100 100 100 100 100 97 60 98 94 100
100 90 100 100 100 100 83 80 94 62 97 91 95 100 99 99 100 100 100 100 100 100 100 100 100 100 100 100 100 100 93 55 29 5 49 99 100 100 100 96 100 100 100 100 100 100 100 99 94 100 72 5 97 100
100 100 100 100 100 100 94 100 93 96 100 100 100 100 99 100 98 100 100 100 100 100 100 100 100 100 100 100 93 86 80 98 15 5 6 62 99 100 100 100 100 100 100 100 100 100 100 98 96 98 100 100 71 99
100 100 98 88 87 82 91 86 74 82 100 100 100 100 96 97 100 100 100 100 100 100 100 100 100 100 100 100 100 91 29 5 5 30 80 98 100 100 100 100 100 100 100 100 100 100 100 100 100 99 100 100 100 100
100 100 100 100 100 75 22 55 86 100 100 100 99 97 100 100 100 100 100 100 100 100 100 100 100 98 100 100 100 100 100 52 6 94 100 99 100 100 100 100 48 92 100 17 81 100 99 100 100 100 99 100 100 100
100 100 100 100 100 91 99 100 100 100 94 100 99 100 100 100 100 100 100 100 100 100 100 100 100 100 100 100 100 100 100 100 56 8 60 99 100 100 100 100 100 100 100 100 94 44 61 80 60 44 96 100 100 100
100 100 100 100 100 100 100 100 100 100 93 48 79 97 100 100 100 100 100 100 100 100 100 100 100 100 100 100 100 100 100 100 100 100 100 100 100 100 100 100 100 100 100 100 100 100 91 76 100 100 100 94 100 60
100 100 100 100 100 100 100 100 100 100 100 100 99 97 100 100 100 100 100 100 100 100 100 100 100 100 98 97 100 100 100 96 31 42 89 100 100 100 100 100 100 100 100 100 100 100 85 90 100 100 100 100 100 100
100 100 100 100 100 100 100 100 100 100 100 100 100 100 100 100 100 100 99 100 100 100 93 100 100 100 97 100 73 14 56 96 100 90 97 100 100 100 100 100 100 100 100 100 100 100 100 100 100 100 100 100 100 95
100 100 100 100 100 100 92 100 100 100 100 100 100 100 100 99 100 100 99 100 100 100 100 100 100 100 76 95 94 48 80 77 40 39 5 20 14 5 55 100 100 100 100 100 100 100 100 100 100 100 100 100 100 99

GFSWCAN_prec_cloud_063.txt.gz
Cloud_Cover
100 100 100 100 98 27 13 64 73 57 47 19 100 100 100 100 100 100 100 88 100 100 90 100 100 94 5 91 100 100 100 91 5 3 4 5 1 19 100 100 100 100 100 100 100 100 74 93 100 73 100 100 100 100
100 100 100 100 91 44 84 100 94 19 100 100 100 100 100 100 100 100 100 100 100 100 99 100 100 94 98 100 100 100 88 100 0 2 11 5 5 28 100 99 100 100 100 100 100 28 98 100 100 98 100 100 100 99
100 100 100 98 96 98 8 40 46 85 100 100 100 100 100 100 100 100 100 100 100 100 100 100 100 100 100 100 83 98 99 41 2 0 5 44 15 5 28 81 100 51 100 90 97 99 100 100 100 100 100 100 100 100
100 100 93 100 96 98 88 13 7 100 90 64 69 100 100 100 100 100 100 100 100 100 100 100 100 91 100 100 100 100 100 99 96 8 33 100 100 11 4 12 100 88 100 100 95 100 100 97 100 100 100 100 100 100
100 99 94 100 76 87 71 13 5 100 100 100 100 100 100 100 100 100 100 100 100 100 100 100 100 100 100 97 100 100 100 44 100 99 94 100 100 100 58 3 100 100 100 86 100 100 100 100 100 100 100 100 100 98
100 71 53 98 100 94 16 5 7 92 100 100 100 100 100 100 100 100 100 100 100 100 100 100 100 100 100 100 49 9 95 32 49 56 100 100 100 99 99 18 100 100 100 94 100 100 100 100 100 100 100 100 100 100
93 100 10 28 71 85 17 22 49 77 100 100 100 100 100 100 100 100 100 100 86 100 100 100 96 100 100 70 95 100 96 67 75 100 100 100 100 99 5 5 99 100 69 79 97 32 8 79 98 100 100 100 100 100
100 100 100 97 80 82 82 74 99 86 97 62 96 100 100 100 100 100 99 65 100 94 84 96 96 97 100 100 100 100 100 27 100 100 100 100 95 100 85 97 36 74 100 100 100 100 100 100 100 100 100 100 100 100
100 100 100 100 100 100 97 100 100 100 100 100 100 100 100 100 100 100 100 100 100 100 100 100 100 100 100 100 100 13 5 98 100 100 83 95 100 100 100 100 100 100 100 100 100 100 100 100 100 100 100 100 100 100
100 100 100 100 100 100 100 100 100 100 100 100 100 100 100 100 100 100 100 100 100 100 100 100 100 100 80 100 99 100 97 100 89 35 72 100 100 100 100 100 100 100 100 100 100 100 100 100 100 100 100 100 100 100
100 100 100 100 100 100 100 100 100 100 100 100 100 100 100 100 100 100 100 100 100 100 100 98 95 100 100 100 100 59 96 92 44 40 100 100 100 100 100 100 100 100 100 100 100 100 100 100 100 100 100 100 100 100
100 100 100 100 100 100 100 100 100 100 100 100 100 100 100 100 99 100 100 100 100 90 73 19 59 100 100 100 100 100 100 95 34 100 100 100 100 100 100 100 100 100 100 100 100 100 100 100 100 100 100 100 100 100
100 100 100 100 100 100 100 100 100 100 100 100 100 100 100 100 100 100 70 98 98 100 100 100 100 100 100 100 100 100 96 100 95 100 100 100 100 91 95 100 100 100 100 100 100 100 100 100 100 100 100 100 100 100
100 100 100 100 48 39 61 80 95 99 86 99 100 100 100 100 100 100 100 100 100 100 100 100 100 100 100 100 100 100 100 100 100 100 100 100 100 100 100 100 100 100 100 100 100 100 100 100 100 100 100 100 100 100
100 100 100 100 100 100 100 100 100 70 97 49 69 100 100 100 100 100 100 100 99 100 100 100 100 100 100 100 100 100 100 100 100 100 100 100 100 100 100 100 100 100 100 100 100 100 100 100 100 100 100 100 100 100
100 100 100 100 100 100 100 100 100 100 99 86 43 80 74 90 36 57 93 100 100 100 100 100 100 100 100 100 100 100 100 100 100 100 100 100 100 100 100 100 100 100 100 100 100 100 100 100 100 100 100 100 100 100
100 100 100 100 100 100 97 61 92 100 100 100 100 84 99 54 98 99 94 71 94 100 100 100 100 100 100 100 100 100 100 100 100 100 100 100 100 100 100 100 100 100 100 100 100 100 100 100 100 100 100 100 100 100
100 100 100 100 100 100 88 45 90 98 100 100 100 100 99 100 100 100 100 100 100 100 100 100 100 100 100 100 100 100 98 100 100 100 100 100 100 100 100 100 100 100 100 100 100 100 100 100 100 100 100 100 100 100
100 100 100 100 100 100 100 82 100 74 100 100 100 100 92 99 100 100 100 100 100 100 100 100 100 100 100 100 100 100 100 100 100 100 100 100 100 100 100 100 100 100 100 100 100 100 100 100 100 100 100 100 100 100
100 100 100 100 100 100 100 100 100 100 100 100 100 100 100 100 100 100 100 100 97 100 100 95 100 100 100 100 100 100 100 100 100 100 100 100 100 100 100 100 100 100 100 100 100 100 100 100 100 100 100 100 100 100
100 100 100 100 100 100 100 100 100 100 100 100 100 100 100 100 100 100 100 100 100 100 100 100 100 100 100 100 100 100 100 100 100 100 100 100 100 100 100 100 100 100 100 100 100 100 100 100 100 100 100 100 100 100
100 100 100 100 100 100 100 100 100 100 100 100 100 100 100 100 100 100 100 100 100 100 100 100 100 100 100 100 100 100 100 100 100 100 100 100 100 100 100 100 100 100 100 100 100 100 100 100 100 100 98 97 100 99
100 100 100 100 100 100 100 100 100 100 100 100 100 100 100 100 100 100 100 100 100 100 100 100 100 98 100 99 100 100 100 100 100 100 100 100 100 100 100 100 100 100 100 100 100 100 100 93 90 55 75 96 74 5
100 100 100 100 100 100 100 100 100 100 100 100 100 100 100 100 100 100 100 100 99 95 100 95 66 64 66 72 88 88 88 75 68 98 96 34 29 39 31 38 80 100 99 13 5 10 38 86 5 5 5 5 5 81
98 100 100 100 100 100 100 100 100 61 86 100 93 96 76 58 81 99 90 100 99 69 60 98 98 87 32 57 7 5 5 5 5 8 84 100 99 68 27 5 5 92 99 99 76 5 18 98 93 8 5 5 5 39
100 97 99 78 88 94 100 100 52 65 63 73 98 100 77 34 51 98 98 100 98 90 99 90 16 5 21 5 5 5 46 12 1 5 5 5 30 34 77 32 30 73 66 71 96 58 5 5 62 98 11 5 15 5
100 99 94 99 100 100 100 83 22 15 46 98 91 98 69 46 99 86 100 92 83 88 54 92 69 50 57 37 5 5 5 4 4 14 11 5 5 5 5 13 65 76 78 28 8 35 63 37 5 64 96 5 32 95
100 100 100 100 98 29 7 10 50 99 99 96 94 97 75 98 100 100 85 91 5 52 48 48 7 10 38 97 100 97 91 80 52 73 51 23 45 54 83 34 28 84 92 9 5 5 6 6 15 5 55 100 92 100
100 100 100 95 76 77 99 100 100 100 100 100 100 100 94 99 100 81 72 57 74 46 28 13 39 7 9 5 6 6 75 62 8 69 99 100 100 89 64 87 17 57 100 100 92 77 72 40 24 42 13 26 95 22
100 100 100 100 100 100 100 100 100 100 91 61 53 97 94 100 100 100 100 100 100 86 82 94 100 100 100 83 77 74 32 41 62 69 78 97 100 99 48 28 75 88 89 17 29 99 24 53 100 100 100 91 6 8
100 100 100 100 100 100 100 100 100 73 39 74 7 5 73 73 98 98 82 63 30 5 7 70 73 59 28 96 94 99 99 26 5 5 30 67 80 14 5 53 5 46 99 61 16 75 5 5 16 96 100 18 94 98
100 100 100 100 100 100 100 100 98 92 76 7 11 19 93 87 95 70 52 43 77 100 100 100 80 92 29 23 8 20 16 36 8 53 10 46 72 37 54 97 100 88 55 5 99 100 98 50 47 10 66 8 12 80
100 100 100 100 100 90 92 94 65 95 99 86 80 97 91 99 97 95 76 93 94 100 94 68 45 5 22 95 27 41 20 54 55 48 70 85 30 19 25 19 40 10 60 10 5 83 94 100 100 76 11 45 90 59

GFSWCAN_prec_cloud_066.txt.gz
Cloud_Cover
100 100 100 100 100 100 100 100 100 100 100 100 99 100 98 51 69 98 100 100 100 100 99 95 48 94 100 87 29 65 99 27 50 5 4 0 0 3 2 4 5 46 100 100 100 100 100 100 100 100 85 96 100 100
100 100 100 100 100 100 100 100 95 96 96 95 100 100 100 100 100 88 100 100 100 100 100 100 89 100 100 100 100 100 100 100 97 5 5 2 0 2 0 4 36 81 100 100 100 100 100 100 100 98 100 88 100 100
100 100 100 99 100 100 100 100 100 69 66 100 98 83 98 100 100 100 100 100 100 100 100 100 71 51 37 47 46 100 100 100 96 42 10 8 4 5 13 14 12 100 100 100 100 100 100 100 92 55 78 100 100 100
99 100 100 100 68 97 77 27 29 32 16 22 80 100 100 100 100 100 100 100 99 94 100 74 88 100 100 100 99 11 6 97 82 97 100 71 8 1 3 31 2 88 100 100 100 100 100 100 100 100 100 100 100 100
100 100 100 100 38 5 5 12 94 79 91 100 100 100 100 100 100 100 100 100 100 69 67 100 100 100 99 100 100 100 95 100 100 100 100 100 91 5 5 12 98 100 100 100 100 100 100 60 9 86 100 100 100 100
68 48 100 96 6 5 82 99 95 36 100 82 100 100 100 100 100 100 100 100 100 100 100 100 100 100 100 100 100 100 100 100 100 100 100 100 42 31 44 27 78 100 100 100 100 100 100 80 100 100 100 100 100 100
100 100 100 81 22 46 95 100 100 99 92 97 96 100 100 100 100 100 97 100 100 100 100 100 100 82 94 100 100 100 100 100 100 100 65 28 100 100 100 96 100 100 100 100 100 100 100 100 100 100 100 100 100 100
100 100 100 100 100 100 88 99 98 100 100 100 100 100 100 100 100 100 100 100 100 100 100 100 100 100 89 100 100 98 100 100 100 100 70 80 100 100 100 100 100 100 100 100 5 95 100 100 100 100 100 100 100 100
100 100 100 100 100 100 78 99 100 100 100 100 100 100 100 100 99 100 100 100 100 75 94 56 81 100 55 73 49 97 99 95 100 33 82 100 100 100 100 100 100 100 100 100 100 100 100 100 98 100 100 100 100 100
100 100 100 100 100 100 100 100 100 100 100 100 100 100 100 100 100 100 100 100 100 100 100 79 60 100 100 95 94 81 93 100 99 100 100 100 100 100 100 100 100 100 100 100 99 100 43 98 100 100 100 100 100 100
100 100 100 100 100 100 100 96 96 100 100 100 100 100 100 100 100 100 100 100 100 100 100 100 100 100 100 100 100 100 100 91 100 100 100 100 99 100 99 99 100 100 100 100 100 100 100 100 100 100 100 100 100 100
100 100 100 100 100 100 100 100 100 89 86 95 98 86 80 94 100 100 100 100 100 100 100 100 100 100 100 100 100 100 100 100 100 100 100 100 100 100 99 100 100 100 100 100 100 100 100 100 100 100 100 100 100 100
100 100 100 100 100 100 100 100 100 100 100 100 100 100 100 100 100 100 100 100 100 100 100 100 100 98 100 100 100 100 100 100 100 100 100 100 100 100 91 75 94 100 96 100 100 100 100 100 100 100 100 100 100 100
100 100 100 100 100 100 100 100 100 100 100 100 100 100 100 100 100 100 100 100 100 100 100 100 100 100 100 100 100 100 100 100 100 100 87 100 100 100 100 100 100 100 100 92 99 100 100 100 100 100 100 100 100 100
100 100 100 100 100 100 100 100 100 100 100 100 100 100 100 100 100 100 100 100 100 100 100 100 100 100 100 100 100 100 100 100 100 100 100 100 100 100 100 100 100 100 100 100 100 100 100 100 100 100 100 100 100 100
100 100 100 100 100 100 100 100 100 100 100 100 100 100 79 76 86 87 100 100 100 100 100 100 100 100 100 100 100 100 100 100 100 100 100 100 100 100 100 100 100 100 100 100 100 100 100 100 100 100 100 100 100 100
100 100 100 100 100 100 100 100 100 100 98 26 84 80 99 99 100 100 100 100 97 100 100 100 100 100 100 100 100 100 100 100 100 100 100 100 100 100 100 100 100 100 100 100 100 100 100 100 100 100 100 100 100 100
100 100 100 100 98 67 98 100 100 100 100 98 78 100 100 100 96 100 98 95 99 99 100 100 100 100 100 100 100 100 100 100 100 100 100 100 100 100 100 100 100 100 100 100 100 100 100 100 100 100 100 100 100 100
100 100 100 100 81 98 62 91 98 72 100 100 100 90 97 100 100 100 100 98 100 74 97 100 100 100 100 100 100 100 100 100 100 100 100 100 100 100 100 100 100 100 100 100 100 100 100 100 100 100 100 100 100 100
100 100 100 94 100 98 65 100 95 97 100 100 100 100 100 100 100 96 100 100 97 99 100 100 100 100 99 100 100 100 100 100 100 100 100 100 100 100 100 100 100 100 100 100 100 100 100 100 100 100 100 100 100 100
100 100 100 80 100 100 88 100 100 100 100 100 100 100 100 100 100 100 100 100 100 100 100 100 100 100 100 100 100 100 100 100 100 100 100 100 100 100 100 100 100 100 100 100 100 100 100 100 100 100 100 100 100 100
100 99 89 53 85 100 100 100 100 100 100 100 100 100 100 100 100 100 100 100 100 100 100 100 99 99 100 100 100 100 100 100 100 100 100 100 100 100 100 100 100 100 100 100 100 100 100 100 100 100 100 98 69 14
100 100 100 100 100 100 100 100 100 100 100 100 100 100 100 100 100 100 100 100 100 100 100 100 100 100 97 100 100 100 100 99 90 84 92 88 84 84 98 100 99 99 100 100 92 66 45 65 76 31 5 6 26 54
100 100 100 100 100 100 100 100 100 100 100 100 100 100 100 100 97 88 100 100 100 100 100 95 100 76 78 96 75 100 91 63 49 67 7 5 48 99 100 100 100 99 37 9 8 28 5 5 39 5 5 11 63 94
100 100 100 100 100 100 100 100 100 100 100 100 100 100 99 46 33 60 77 100 100 97 100 65 64 61 43 5 5 5 63 82 14 90 86 9 5 10 78 100 100 100 50 5 28 42 45 5 5 5 5 6 80 98
100 100 100 98 100 96 97 100 100 100 100 97 99 90 73 51 48 97 99 98 100 99 92 60 5 26 5 5 12 14 12 6 5 50 98 99 87 21 20 24 73 99 100 98 6 6 79 78 5 5 64 22 41 35
89 97 99 87 77 71 92 100 100 86 85 100 79 94 10 95 100 98 100 88 88 91 66 82 22 5 5 5 5 5 5 5 5 30 6 5 5 5 5 17 100 91 91 14 5 5 31 58 76 63 57 88 92 44
99 79 100 99 99 90 100 100 96 100 93 82 6 91 79 89 98 99 91 74 41 32 5 5 5 30 76 83 74 49 35 22 5 19 69 82 53 20 5 42 90 67 39 5 9 9 5 10 51 70 98 98 92 88
100 100 100 100 100 100 100 98 100 76 92 95 57 100 96 99 91 78 93 23 5 5 8 10 92 44 17 6 46 69 84 72 54 100 96 100 98 100 91 30 75 71 81 16 40 85 80 41 92 91 64 47 42 6
100 100 100 100 100 100 100 77 48 42 18 57 66 100 100 100 100 100 81 88 27 68 43 52 63 13 69 52 100 50 44 79 82 36 92 88 84 90 95 71 51 89 45 76 50 5 54 84 85 100 100 100 74 24
100 100 100 100 99 99 91 64 50 28 7 27 8 63 89 100 100 100 96 100 100 74 37 93 100 93 83 91 97 100 96 31 34 82 80 86 73 56 60 56 28 84 17 43 86 45 6 11 54 62 64 23 45 60
100 100 100 100 100 100 99 95 80 84 97 69 98 95 80 72 100 96 99 65 82 74 76 49 86 100 80 87 89 91 8 50 82 62 86 87 72 84 99 77 81 85 11 51 88 86 100 97 84 80 48 36 61 100
100 100 100 100 100 100 99 93 55 92 96 99 99 100 100 90 81 88 100 89 71 37 85 73 57 75 22 45 70 97 46 44 96 69 100 93 25 71 48 21 35 21 26 51 84 100 100 95 96 100 100 84 99 100

GFSWCAN_prec_cloud_069.txt.gz
Cloud_Cover
100 100 64 99 100 100 100 100 100 100 100 100 100 100 100 100 100 100 100 100 100 100 100 100 98 67 98 100 38 99 100 78 75 13 20 93 83 10 4 0 13 32 98 86 100 100 100 94 100 100 95 93 86 100
100 100 100 100 100 100 100 100 100 100 100 100 100 100 100 100 100 100 100 100 100 100 100 100 100 98 87 100 100 100 100 100 97 18 9 5 5 8 4 5 5 5 5 12 24 51 100 100 100 100 100 100 100 70
100 100 100 100 100 100 100 100 100 100 100 100 100 100 100 100 90 69 100 100 100 100 100 99 88 82 100 100 100 100 100 100 100 37 5 11 5 4 12 3 7 5 0 0 0 0 94 100 100 100 100 100 72 100
100 100 79 76 95 7 94 98 100 100 100 100 100 100 100 100 100 100 100 100 100 100 100 100 100 100 100 100 100 100 100 100 100 88 18 32 11 5 4 12 44 2 1 0 0 0 23 100 100 100 100 100 100 91
100 98 42 54 62 78 74 50 21 34 71 100 100 99 100 100 100 100 100 100 82 77 100 74 100 100 100 100 100 100 100 100 98 62 77 43 5 14 69 88 5 6 64 30 44 5 44 42 100 100 100 100 99 100
100 100 89 50 81 99 100 46 83 100 46 38 94 100 100 100 100 100 100 100 100 100 100 100 100 100 100 100 100 100 100 100 70 62 100 86 93 100 100 8 97 71 91 100 90 10 100 100 100 100 100 100 100 100
100 100 100 99 91 100 66 98 74 33 98 100 100 100 100 100 100 100 63 79 100 100 100 100 100 100 99 99 96 100 64 100 100 80 100 100 100 100 100 96 100 100 72 77 96 86 100 100 100 100 100 100 100 100
100 100 100 100 100 100 100 51 58 100 96 100 100 100 100 100 100 89 100 100 100 100 100 100 100 100 100 100 99 100 100 100 100 99 68 100 100 100 100 100 100 100 76 100 100 100 100 100 100 100 100 100 100 94
100 100 100 100 100 100 100 100 100 100 100 100 100 100 100 100 100 100 100 100 100 100 100 100 100 100 100 100 100 100 100 100 79 81 98 100 100 100 100 100 99 99 100 100 100 86 100 100 100 100 100 100 100 100
100 100 100 100 100 100 100 100 100 100 100 100 100 100 100 100 100 100 100 100 100 100 100 100 74 85 96 100 100 99 100 100 100 100 100 100 96 100 88 100 100 100 100 100 100 100 100 100 100 100 100 100 100 100
100 100 100 100 100 100 100 100 100 100 100 100 100 100 100 100 100 100 100 99 83 44 67 77 40 90 92 94 100 82 98 100 98 100 98 100 100 100 92 90 100 100 100 100 100 100 100 100 100 100 100 100 100 100
100 100 100 100 100 100 100 100 100 98 100 100 96 100 100 100 100 100 100 83 82 97 100 86 93 99 100 100 100 100 92 100 88 100 100 100 100 92 71 89 100 100 100 100 100 100 100 100 100 100 100 100 100 100
100 100 100 100 100 100 100 100 100 100 100 100 100 100 100 100 100 100 100 100 100 100 100 100 100 100 100 100 100 100 100 98 100 100 99 100 100 92 99 100 99 100 100 100 100 100 100 100 100 100 100 100 100 100
100 100 100 100 100 100 100 100 100 100 100 100 100 100 100 100 100 100 100 100 100 100 100 100 100 100 100 100 100 100 100 100 100 96 100 100 100 99 100 100 100 100 100 100 99 100 100 100 100 100 100 100 100 100
100 100 100 100 100 100 100 99 100 100 100 100 100 100 100 100 100 100 100 100 100 100 100 100 100 100 100 100 100 100 100 100 100 100 100 100 100 100 100 100 100 100 100 98 98 99 100 100 100 100 100 100 100 100
100 100 100 100 100 100 100 100 88 99 89 100 100 100 86 100 100 100 100 100 100 100 100 100 100 100 100 100 100 100 100 100 100 100 100 100 100 100 100 100 100 100 100 100 100 100 100 100 100 100 100 100 100 100
100 100 100 100 100 100 100 86 18 22 7 9 94 95 98 98 100 100 100 100 100 100 100 100 100 100 100 100 100 100 100 100 100 100 100 100 100 100 100 100 100 100 100 100 100 100 100 100 100 100 100 100 100 100
100 100 100 100 100 96 57 9 8 5 43 95 75 98 94 93 100 100 100 100 100 100 100 100 100 100 99 99 100 100 100 100 100 100 100 100 100 100 100 100 100 100 100 100 100 100 100 100 100 100 100 100 100 100
100 100 100 100 97 100 93 73 5 48 95 96 100 98 84 99 99 99 100 100 100 93 96 100 100 100 100 100 100 100 100 100 100 100 100 100 100 100 100 100 100 100 100 100 100 100 100 100 100 100 100 99 100 100
100 100 100 88 89 88 88 56 55 7 66 95 97 96 93 94 95 100 99 89 95 100 100 100 100 100 100 100 100 100 100 100 100 100 100 100 100 100 100 100 100 100 100 100 100 100 100 100 100 100 100 100 100 100
100 100 97 78 100 100 71 91 95 58 82 88 100 100 100 100 100 100 100 100 100 100 100 100 100 100 100 100 100 100 100 100 100 97 97 98 100 100 100 100 100 100 100 100 100 100 100 100 100 99 99 95 100 100
77 56 68 100 100 100 86 88 100 100 100 100 100 100 100 100 100 100 100 100 100 100 100 100 100 100 98 100 100 100 95 95 91 93 90 92 96 85 93 100 98 99 100 100 100 100 100 100 100 100 98 94 55 45
94 95 99 9 90 100 100 100 100 100 100 100 100 100 100 100 100 100 100 100 100 100 100 80 76 84 97 93 89 92 94 88 95 100 100 100 100 100 100 100 97 99 97 87 75 74 81 60 28 39 5 5 5 13
100 100 100 100 97 100 100 100 100 100 100 100 100 100 100 100 100 100 100 100 100 100 86 74 82 90 75 61 79 98 61 27 14 6 5 12 94 100 100 100 95 68 53 10 5 14 66 34 40 12 41 95 100 100
100 100 100 100 100 100 100 100 100 100 100 100 100 100 100 100 100 100 94 99 94 91 91 78 84 61 20 65 54 73 77 90 69 92 76 5 84 86 99 100 100 98 14 5 53 24 50 50 7 5 16 66 91 100
100 100 100 100 100 100 100 100 100 100 100 100 100 100 100 94 74 99 94 83 94 85 82 75 70 76 64 18 8 32 66 32 5 35 98 98 97 31 69 69 85 92 66 57 21 88 63 69 58 59 87 82 93 100
100 100 100 100 100 100 100 92 94 100 100 99 95 53 44 96 100 100 100 90 81 90 72 29 6 5 10 9 12 14 42 14 5 16 13 32 23 8 5 57 96 81 74 82 48 11 76 94 86 83 100 100 96 66
82 98 100 86 100 93 93 100 100 100 100 94 48 91 82 47 97 97 88 85 84 68 78 79 26 5 9 50 17 34 84 74 49 5 5 14 44 63 95 92 91 67 69 36 40 52 34 25 89 100 100 98 100 100
93 100 100 91 95 99 99 100 100 98 100 50 63 100 100 98 100 84 97 77 79 53 68 99 100 68 82 89 83 87 74 38 47 89 100 100 98 81 79 94 100 100 100 60 96 96 81 17 32 81 92 84 53 48
100 100 100 100 100 100 100 96 95 92 69 77 58 100 100 100 100 78 21 5 5 23 7 10 36 16 5 5 63 80 95 99 100 96 100 89 35 23 100 98 99 100 82 85 59 25 58 63 93 100 93 86 99 85
100 100 100 100 100 99 83 44 54 98 95 34 12 56 95 100 100 100 100 100 84 90 73 99 100 91 78 99 91 40 6 28 100 48 36 73 100 100 100 89 87 99 69 97 94 69 65 61 80 97 66 36 44 88
100 100 100 100 100 100 99 84 100 100 100 85 100 91 92 42 98 96 99 100 95 93 100 96 100 67 87 80 94 85 18 69 100 57 58 100 100 100 100 100 100 70 69 98 100 100 99 89 100 100 100 98 90 100
100 100 100 100 100 100 100 100 98 90 97 100 89 99 99 32 49 92 100 99 55 23 89 54 96 74 48 62 46 92 80 74 99 100 100 97 47 100 30 25 54 60 60 97 100 100 100 100 100 100 100 100 100 100

GFSWCAN_prec_cloud_072.txt.gz
Cloud_Cover
100 100 100 99 100 100 100 100 100 100 100 100 100 100 100 100 100 100 100 100 100 100 100 100 100 100 100 100 100 100 100 90 99 100 100 100 100 81 9 5 10 72 43 97 93 74 70 0 100 100 100 67 12 83
100 100 98 100 100 100 100 100 100 100 100 100 100 100 100 100 100 100 100 100 100 100 100 100 100 100 100 100 100 100 100 100 99 100 97 100 95 100 21 5 5 3 4 12 2 4 0 0 1 94 100 78 82 88
100 100 100 100 100 68 98 100 99 100 100 100 100 100 100 100 100 100 100 100 100 100 100 100 100 100 100 100 100 100 100 98 83 70 72 73 11 51 48 8 11 6 5 29 68 0 0 0 0 3 14 100 100 65
100 100 100 78 52 52 56 79 95 100 100 100 100 100 100 100 100 100 100 100 100 100 100 100 100 100 100 100 100 100 100 100 100 86 56 31 6 5 5 5 4 54 90 5 0 0 0 0 0 4 5 100 100 97
100 100 100 94 100 99 98 100 48 100 100 100 100 100 100 100 100 100 100 100 100 100 100 100 100 100 100 100 100 100 100 100 100 98 84 34 5 5 5 5 5 8 5 4 0 54 98 48 4 0 38 100 100 100
100 100 100 94 100 77 63 99 37 24 100 100 100 100 100 100 100 100 100 100 100 100 100 100 94 92 85 100 100 100 100 100 100 97 40 53 5 27 11 7 6 80 95 99 98 37 29 28 11 5 83 100 100 100
100 100 100 100 100 97 98 46 86 100 42 100 100 100 100 100 100 100 100 100 100 100 100 91 100 100 100 100 100 100 100 100 100 100 96 100 89 99 100 80 100 99 96 100 100 92 49 59 100 72 94 100 100 100
100 85 100 100 100 97 99 58 98 100 87 100 100 100 100 100 100 100 100 100 100 100 100 62 78 100 100 100 100 100 100 100 100 100 100 100 100 77 100 88 85 86 98 100 90 100 100 72 100 85 100 100 100 100
100 100 100 100 100 100 91 100 100 100 100 100 100 100 100 100 100 100 100 100 100 100 100 100 100 100 100 100 100 100 100 100 100 100 100 100 100 76 100 100 100 100 100 100 96 100 100 66 100 100 100 100 61 100
100 100 100 100 100 100 100 100 100 100 100 100 100 100 100 100 100 100 100 100 100 100 100 100 100 100 100 100 100 100 100 100 100 98 100 95 97 97 89 100 100 100 100 100 100 100 100 100 100 100 100 100 90 87
100 100 100 100 100 100 99 100 100 100 100 100 100 100 100 100 100 100 100 100 100 100 100 100 94 96 99 100 100 92 99 81 99 100 100 97 100 100 99 95 100 100 100 100 100 100 100 100 100 100 100 100 100 100
100 100 100 100 100 100 100 100 100 100 100 100 100 100 100 100 100 100 100 100 100 100 100 100 98 86 90 25 40 95 61 99 100 100 100 95 100 100 100 100 100 100 96 100 100 100 100 100 100 100 100 100 100 100
100 100 100 100 100 100 100 100 99 92 100 100 71 46 94 99 81 91 100 98 100 100 99 100 94 96 75 89 90 100 96 100 85 100 100 100 100 94 94 97 98 97 90 100 100 100 100 100 100 100 100 100 100 100
100 100 100 100 100 100 100 100 100 100 100 100 100 100 100 100 100 100 100 99 100 98 83 100 100 100 100 100 100 100 100 100 100 100 100 100 100 100 100 100 100 100 100 100 100 100 100 100 100 100 100 100 100 100
100 99 100 87 99 100 100 100 100 100 100 100 100 100 100 100 100 100 100 100 100 100 100 100 100 100 100 100 100 100 100 100 100 100 100 100 100 100 100 100 100 100 100 100 100 100 100 100 100 100 100 100 100 100
100 98 94 61 65 57 87 100 100 100 100 100 100 100 100 100 100 100 100 100 100 100 100 100 100 100 100 100 100 100 100 100 100 100 100 100 100 100 100 100 100 100 100 100 100 100 100 100 100 100 100 100 100 100
100 100 100 83 11 6 13 95 100 100 100 100 100 100 100 100 100 100 100 100 100 100 100 100 100 100 100 100 100 100 100 100 100 100 100 100 100 100 100 100 100 100 100 100 100 100 100 100 100 100 100 100 100 100
100 98 100 86 14 5 5 5 28 61 72 89 99 100 100 98 99 90 100 100 100 100 100 100 100 100 100 100 100 100 100 100 100 100 100 100 100 100 100 100 100 100 100 100 100 100 100 100 100 100 100 100 100 100
100 100 100 100 47 5 5 5 4 55 98 87 99 100 100 100 99 100 100 100 100 100 100 100 100 100 100 100 100 100 100 100 100 100 100 100 100 100 100 100 100 100 100 100 100 100 100 100 100 100 100 100 100 100
100 100 100 98 7 5 5 15 5 5 52 94 98 99 65 89 100 100 100 100 100 100 100 100 100 93 100 100 94 93 100 100 100 100 100 100 100 100 100 100 100 100 100 100 100 100 100 100 100 100 100 100 100 100
100 83 25 5 5 5 5 6 30 8 62 74 96 66 84 89 100 100 100 100 100 100 100 100 100 100 100 100 100 100 100 100 100 100 100 100 100 100 100 100 100 100 100 100 100 100 100 100 100 100 100 100 100 100
79 66 7 5 12 8 19 72 100 100 100 100 99 100 100 100 100 100 100 100 100 100 100 100 100 100 100 99 100 97 96 98 100 100 100 100 100 100 100 100 100 100 100 100 100 100 100 100 95 91 95 91 60 56
100 93 92 77 98 91 100 100 100 100 100 100 100 100 100 100 100 100 100 100 100 100 100 100 100 100 97 100 85 92 94 100 94 89 84 95 98 100 100 100 97 95 79 100 70 54 93 56 27 5 5 5 8 15
100 100 78 81 100 100 100 99 100 100 100 100 100 100 100 100 100 98 92 99 100 100 100 100 99 56 41 47 92 92 30 8 42 39 10 5 80 100 98 99 88 61 24 15 32 69 76 98 42 13 46 99 100 100
100 100 100 95 100 100 100 100 100 100 100 100 96 86 91 98 100 100 100 100 98 96 85 40 43 37 60 89 98 97 14 5 5 72 86 5 78 45 88 94 96 78 24 5 34 58 93 90 69 78 95 96 54 100
100 100 100 93 95 99 100 100 98 97 100 100 100 98 100 99 99 100 85 91 94 93 96 93 78 54 44 5 5 32 74 6 5 35 89 60 5 16 75 77 75 72 35 40 26 76 52 87 78 66 94 92 99 100
99 100 100 100 100 100 100 100 100 100 97 93 90 85 93 99 100 100 100 100 100 100 92 51 6 5 11 72 60 82 37 5 5 41 49 68 20 5 5 47 13 78 24 55 38 10 24 62 93 100 100 100 94 89
97 100 99 100 100 100 95 97 100 100 100 92 84 100 100 97 94 100 84 98 97 66 69 70 28 5 6 18 43 17 75 57 15 10 12 14 83 95 98 94 93 69 68 41 41 53 58 65 95 100 100 100 100 100
100 95 41 87 77 97 100 100 100 100 100 39 60 100 100 100 100 92 100 95 57 20 14 76 100 70 83 73 75 83 70 11 39 91 100 100 99 49 92 100 100 100 96 92 90 98 78 40 80 87 96 99 49 66
87 92 71 74 77 100 100 100 96 99 81 86 77 100 99 100 100 95 60 54 71 93 99 82 91 6 91 96 100 99 90 96 99 100 100 94 38 10 100 100 100 100 100 97 62 56 88 84 100 99 100 100 100 100
100 99 100 98 100 100 99 98 95 81 41 35 41 62 96 100 100 100 84 40 43 62 18 100 100 73 50 96 40 51 14 34 100 84 9 68 97 100 100 96 100 100 99 100 97 96 84 76 97 100 91 58 59 79
100 99 100 99 100 100 100 100 100 100 99 94 100 89 42 18 99 100 99 100 86 97 98 99 100 95 74 75 90 88 22 66 100 99 64 100 100 100 100 100 100 98 100 100 100 100 100 100 100 100 100 100 100 100
100 100 100 100 100 100 100 100 100 100 91 100 98 100 98 13 60 99 100 98 73 27 94 69 43 76 70 75 50 96 99 100 100 100 100 100 90 100 43 55 76 86 88 100 100 100 100 100 100 100 100 100 100 100

GFSWCAN_prec_cloud_075.txt.gz
Cloud_Cover
100 100 100 100 100 100 90 100 100 100 93 100 100 100 100 100 100 100 100 100 100 100 100 100 100 100 100 100 100 100 100 100 100 100 98 66 26 93 34 38 62 52 42 31 67 96 57 10 5 27 20 3 4 69
100 100 100 99 100 100 100 92 95 88 100 100 100 100 100 100 100 100 100 100 100 100 100 100 100 100 100 100 100 100 100 100 100 100 78 77 100 100 100 98 77 79 30 37 9 11 12 91 42 3 0 0 0 0
100 99 91 100 69 5 8 5 92 100 94 100 100 100 100 100 100 100 100 100 100 100 100 100 100 100 100 100 100 100 100 96 80 94 99 100 100 100 100 100 100 95 11 5 4 5 5 0 3 5 13 1 0 0
99 98 54 75 95 99 91 6 76 91 75 100 100 100 100 100 100 100 100 100 100 100 100 100 100 100 100 100 100 100 100 100 98 100 100 100 100 100 100 78 75 31 24 15 5 37 17 5 1 34 2 0 0 0
60 51 98 100 61 23 76 77 68 100 100 100 100 100 100 100 100 100 100 100 100 100 100 100 100 100 100 100 100 100 100 100 100 100 99 100 100 100 100 99 68 30 5 5 5 90 98 68 32 100 4 44 13 0
100 100 100 92 69 5 87 8 52 97 100 100 100 100 100 100 100 100 100 100 100 100 100 100 100 100 100 100 100 100 100 100 100 100 82 92 98 62 25 5 48 36 43 96 92 85 44 95 87 100 10 23 20 5
100 100 100 69 57 79 10 100 95 46 100 100 100 100 100 100 100 100 100 89 100 100 100 100 100 100 100 100 100 100 100 100 100 100 100 100 100 68 82 99 100 100 57 100 100 69 100 100 100 68 68 37 16 13
100 100 100 100 100 100 79 100 93 62 100 100 100 100 100 100 100 100 100 100 100 100 100 100 100 100 100 100 100 100 100 100 100 100 100 93 100 88 94 100 100 100 100 98 100 100 100 100 100 98 53 100 100 82
97 100 100 100 100 100 90 100 100 100 100 100 100 100 100 100 100 100 100 100 100 100 100 100 95 100 100 100 100 100 100 100 100 100 100 100 99 100 100 100 100 100 98 100 100 71 100 100 100 100 100 100 100 99
100 100 100 100 100 100 100 100 100 100 100 100 100 100 100 100 100 100 100 100 100 100 100 76 79 76 100 100 100 100 100 100 100 100 100 100 100 100 100 100 100 98 100 100 77 85 100 100 100 100 100 100 100 100
100 100 100 100 88 100 100 100 100 100 100 100 100 100 100 100 100 100 100 100 100 99 94 84 54 100 100 99 96 100 100 100 100 100 100 100 100 100 100 100 100 100 100 100 100 100 100 100 100 100 100 100 100 100
100 100 100 100 100 97 98 100 100 100 100 100 100 100 100 83 94 100 100 100 88 100 94 100 100 100 100 100 100 99 99 94 90 86 92 100 100 98 97 99 100 99 97 100 100 100 100 100 100 100 100 100 100 100
100 100 100 100 100 100 100 100 100 100 76 100 100 100 100 100 79 20 73 72 98 100 100 100 100 100 99 78 99 94 37 98 86 99 100 100 100 100 100 100 99 100 100 100 100 100 100 100 100 100 100 100 100 100
96 100 100 100 100 100 100 100 23 66 100 100 100 89 23 45 78 88 94 94 94 100 100 100 100 98 100 100 100 100 98 96 99 100 100 100 100 100 100 100 100 100 100 100 100 100 100 100 100 100 100 100 100 100
89 100 100 100 100 100 100 99 100 100 100 99 98 100 98 96 96 98 100 99 100 100 100 100 100 100 100 100 100 100 94 100 100 100 100 100 100 100 100 100 100 100 100 100 100 100 100 100 100 100 100 100 100 100
55 97 100 100 100 98 100 100 100 97 92 98 100 100 92 99 100 100 100 100 100 100 100 100 100 100 100 100 100 100 94 100 100 100 100 100 100 100 100 100 100 100 100 100 100 100 100 100 100 100 100 100 100 100
9 10 16 100 100 100 100 100 100 100 100 100 100 100 100 100 100 100 100 100 100 100 100 100 100 100 100 100 100 100 100 100 100 100 100 100 100 100 100 100 100 100 100 100 100 100 100 100 100 100 100 100 100 100
38 58 100 12 98 99 100 100 100 100 100 100 100 100 100 100 100 100 100 100 100 100 100 100 100 100 100 100 100 100 100 100 100 100 100 100 100 100 100 100 100 100 100 100 100 100 100 100 100 100 100 100 100 100
78 68 98 12 40 17 46 86 100 100 100 100 98 92 92 84 88 100 100 100 100 100 100 100 100 100 100 100 100 100 100 100 100 100 100 100 100 100 100 100 100 100 100 100 100 100 100 100 100 100 100 100 100 100
100 69 66 5 5 21 5 34 73 98 100 91 91 98 65 89 97 99 94 100 100 100 100 100 100 100 100 100 100 100 100 100 100 100 100 100 100 100 100 100 100 100 100 100 100 100 100 100 100 100 100 100 100 100
98 67 67 9 5 5 5 5 27 5 74 95 57 35 98 100 100 100 100 100 100 100 100 100 100 100 100 100 100 100 100 65 93 71 96 100 100 100 100 100 100 100 100 100 100 100 100 100 100 100 100 100 100 100
84 78 83 50 5 5 5 8 5 59 100 90 88 86 100 100 100 100 100 100 100 100 100 100 100 100 98 96 100 100 93 96 90 80 91 100 100 100 100 100 100 100 100 100 100 100 100 97 89 84 93 100 98 96
54 67 70 12 17 5 94 95 81 100 96 75 87 100 100 100 99 94 100 100 100 100 100 100 100 100 100 100 100 100 92 82 98 100 98 100 98 84 62 79 79 67 98 100 66 5 5 5 24 37 20 25 15 37
77 91 86 28 28 84 49 85 84 96 95 100 100 91 92 100 98 100 100 100 100 100 100 100 98 94 86 79 95 100 85 11 72 73 56 6 71 100 97 44 5 29 88 99 78 50 5 5 50 5 5 5 48 44
86 38 21 6 21 71 78 87 99 99 100 100 100 100 100 100 100 95 72 93 88 92 100 98 90 84 78 100 100 99 20 5 5 69 91 6 83 96 97 100 90 44 5 50 98 100 100 95 72 54 42 6 5 5
100 100 98 100 100 100 100 100 100 100 100 100 100 100 99 95 100 100 100 100 100 100 100 100 100 89 26 8 54 76 92 5 5 39 100 67 5 5 49 39 46 97 26 5 5 52 74 95 92 80 97 93 93 91
100 100 97 100 96 98 98 90 87 90 99 97 97 95 100 100 100 100 100 100 100 100 100 86 79 11 6 51 80 79 30 12 32 76 70 21 5 5 5 5 9 89 43 8 12 37 9 5 55 64 74 96 93 80
50 51 43 66 62 66 78 82 99 100 100 100 94 100 100 100 93 100 100 100 99 82 54 64 5 5 5 5 9 13 62 60 16 9 23 48 79 75 71 83 92 77 45 29 19 24 5 5 36 88 82 37 65 100
72 32 27 87 55 69 99 100 100 100 100 66 97 100 100 99 100 100 100 88 70 14 17 9 97 39 70 77 74 46 6 5 5 86 100 97 53 20 92 100 82 70 96 75 87 86 22 16 64 92 85 97 94 75
90 62 94 78 97 100 100 100 98 99 99 100 88 97 94 100 100 100 94 89 93 66 24 31 93 28 98 68 99 94 90 98 85 98 100 93 48 10 100 100 100 100 100 99 86 75 91 74 100 92 99 100 100 96
59 79 81 50 96 100 100 100 100 85 77 70 44 49 97 100 100 97 69 69 76 77 76 84 30 51 25 98 27 60 7 43 100 91 74 32 80 100 95 95 100 100 100 85 95 96 89 68 67 66 71 62 55 88
97 100 100 90 98 100 99 99 96 84 96 88 99 78 41 19 98 92 86 68 56 8 63 58 97 36 6 72 64 69 48 80 82 77 80 100 100 100 100 100 100 100 100 100 100 100 100 100 100 100 100 100 100 98
100 90 82 100 100 100 99 96 78 78 74 100 100 100 96 72 99 90 93 88 100 100 91 72 42 85 63 71 40 98 100 100 100 100 100 100 100 98 23 29 76 84 72 93 100 99 93 70 30 37 20 51 32 44

GFSWCAN_prec_cloud_078.txt.gz
Cloud_Cover
100 100 100 100 94 100 100 97 100 92 100 100 100 100 100 100 100 100 100 100 82 99 32 75 79 100 100 100 100 100 100 100 100 100 100 100 100 92 61 67 85 58 92 85 96 74 95 5 9 23 33 59 10 32
100 100 100 42 64 87 87 73 30 84 79 96 100 100 100 100 100 100 100 100 100 100 86 31 100 100 100 100 100 100 100 100 94 98 100 100 95 29 89 94 15 99 80 100 82 92 45 100 28 5 10 15 18 7
100 100 87 20 20 80 97 93 11 5 5 28 95 100 100 100 100 100 100 100 100 100 100 100 100 100 100 100 100 100 100 100 100 100 100 100 99 70 94 36 88 67 30 16 93 37 71 14 4 4 1 0 0 4
99 98 100 100 100 100 100 95 80 35 7 59 68 100 100 100 100 100 100 100 100 100 100 100 100 100 100 100 100 100 100 99 100 100 100 100 67 86 100 100 85 100 77 96 100 100 51 5 5 5 3 4 4 3
100 97 97 100 67 73 82 62 88 94 67 100 97 100 100 100 100 100 100 100 100 100 100 100 100 100 100 100 100 100 100 100 100 100 100 90 98 100 100 100 100 100 100 100 100 100 100 31 30 93 12 14 24 2
100 100 100 100 100 55 100 42 6 97 100 100 100 100 100 100 100 100 100 100 100 100 100 100 100 100 100 100 100 100 100 100 100 100 100 100 100 100 100 100 100 100 100 100 100 100 99 70 30 100 43 28 16 5
100 100 89 100 55 85 79 16 6 93 100 100 100 100 100 100 100 100 100 100 100 100 100 100 100 100 100 100 100 100 100 100 100 100 98 100 100 96 92 100 100 100 100 93 83 50 40 100 100 100 100 52 58 52
100 100 87 100 61 80 100 98 60 100 100 100 100 100 100 100 100 100 100 100 100 100 100 100 100 100 100 100 100 100 100 100 100 100 100 85 89 82 100 100 100 100 98 100 100 100 100 100 100 100 100 100 100 100
100 100 92 100 89 100 100 100 100 100 100 100 100 100 100 100 100 100 100 100 100 100 100 100 100 100 100 100 100 100 100 100 100 100 100 100 98 100 100 99 100 100 100 90 66 50 100 97 100 100 100 100 100 100
100 100 100 90 100 100 100 100 100 100 100 100 100 100 100 100 100 100 100 100 100 100 94 100 100 100 100 100 100 100 100 100 100 100 100 100 100 100 100 100 100 100 89 99 97 59 91 96 99 99 98 93 100 100
100 100 99 100 100 100 100 100 100 100 100 100 100 100 100 100 100 100 100 100 97 90 97 81 100 100 100 100 100 100 100 100 100 100 100 100 100 100 100 100 99 99 100 100 100 100 100 100 100 100 100 100 99 100
100 100 100 100 100 100 100 100 100 100 100 100 100 100 100 100 100 100 94 96 98 100 100 100 100 100 100 100 100 100 100 100 100 100 100 100 100 100 100 100 100 100 100 100 100 100 100 100 100 100 100 100 100 100
100 100 100 100 99 100 100 100 100 100 100 100 100 100 100 100 100 100 100 100 100 100 99 100 100 100 99 100 100 54 100 100 100 100 100 100 100 100 100 100 100 100 100 100 100 100 100 100 100 100 100 100 100 100
100 100 100 100 100 100 100 100 100 100 100 99 99 100 100 100 100 100 100 100 100 100 100 100 99 100 77 88 100 100 97 97 99 98 100 100 100 100 100 100 98 100 100 100 100 100 100 100 100 100 100 100 100 100
100 100 100 100 100 100 100 100 100 100 100 89 85 95 100 100 100 100 100 100 100 100 100 99 100 99 100 100 100 98 85 100 100 100 100 100 100 100 100 100 100 100 100 100 100 100 100 100 100 100 100 100 100 100
100 100 100 96 44 82 100 99 98 100 100 100 68 97 90 100 100 100 100 100 100 100 100 100 100 100 100 100 100 100 100 100 100 100 100 100 100 100 100 100 100 100 100 100 100 100 100 100 100 100 100 100 100 100
90 69 65 44 6 98 100 99 100 100 92 100 100 100 100 100 100 100 100 100 100 100 90 80 90 100 100 100 100 100 100 100 100 100 100 100 100 100 100 100 100 100 100 100 100 100 100 100 100 100 100 100 100 100
48 66 78 100 100 100 100 100 94 74 99 99 98 100 100 100 100 100 100 100 99 92 94 93 99 100 100 100 100 100 100 100 100 100 100 100 100 100 100 100 100 100 100 100 100 100 100 100 100 100 100 100 100 100
43 86 26 88 100 100 100 100 100 100 100 100 100 99 99 96 91 90 91 88 96 100 100 100 100 100 100 100 100 100 100 100 100 100 100 100 100 100 100 100 100 100 100 100 100 100 100 100 100 100 100 100 100 100
5 94 100 41 99 100 100 85 91 17 88 86 81 75 65 85 84 99 69 99 100 99 100 100 100 100 100 100 100 100 100 100 99 100 100 100 100 100 100 100 100 100 100 100 100 100 100 100 100 100 100 100 100 100
72 100 76 21 8 47 68 82 20 10 46 53 76 92 99 100 100 100 100 100 100 100 100 100 100 100 100 100 100 100 100 100 100 100 100 100 100 100 100 100 100 100 100 100 100 100 100 100 100 100 100 100 100 100
100 96 49 5 5 6 16 17 27 26 69 98 100 100 100 100 93 99 100 100 100 100 100 100 100 100 100 98 100 100 100 100 100 89 100 99 100 100 100 100 100 100 100 100 100 100 100 98 97 100 100 100 100 100
77 74 7 5 5 17 69 88 77 96 100 100 100 100 100 100 99 65 95 99 100 100 100 100 100 100 100 100 100 100 100 100 100 100 98 91 74 67 32 68 98 100 100 98 74 45 16 9 53 97 100 100 100 93
63 49 37 16 40 97 64 73 92 92 100 100 100 96 91 97 100 100 100 100 100 100 100 100 100 100 100 99 99 90 67 18 12 18 13 5 5 29 20 5 41 99 100 100 100 98 100 75 36 73 82 90 94 100
34 20 18 19 26 32 77 96 98 92 99 100 100 100 100 100 100 100 100 100 100 100 100 100 100 99 82 85 66 7 33 5 5 5 25 5 28 9 23 8 49 54 98 100 100 100 100 100 100 100 100 100 84 99
55 89 70 78 62 84 47 94 100 99 100 100 100 100 100 100 100 100 99 100 100 100 100 100 100 91 76 78 78 92 74 42 15 27 90 84 74 98 87 81 87 100 72 100 100 100 100 100 100 100 100 75 53 89
100 100 97 97 100 100 100 98 76 66 72 90 94 80 100 98 91 100 100 100 100 100 100 100 100 14 33 5 42 83 70 64 63 62 86 68 45 62 96 99 79 100 100 100 100 100 99 95 98 99 100 100 100 100
81 68 68 59 50 74 80 86 72 83 100 66 45 35 49 94 98 100 100 99 100 94 82 93 70 5 5 5 5 7 5 7 46 48 76 73 78 91 92 90 70 39 90 99 100 100 100 100 100 100 100 100 100 100
63 25 34 55 67 86 100 100 100 100 100 36 26 71 100 100 100 100 100 99 84 6 6 6 28 17 10 15 31 52 100 100 99 15 8 47 100 100 100 100 100 100 100 100 79 66 82 99 100 100 100 100 100 100
57 66 69 65 81 99 100 100 100 100 100 100 100 100 100 100 100 100 100 90 68 71 51 34 69 63 43 51 56 59 81 96 100 91 33 24 94 100 100 100 100 100 100 100 100 92 59 80 100 99 94 100 100 100
54 57 93 99 100 100 100 99 100 100 98 100 99 99 100 100 100 100 100 100 86 81 51 57 51 33 9 40 50 51 80 95 42 51 79 93 100 100 100 100 100 100 100 100 100 100 100 96 100 100 100 100 100 95
88 99 73 80 100 98 100 100 78 66 98 93 93 79 99 100 100 100 100 100 100 90 55 58 79 62 46 97 86 85 85 77 79 88 94 100 100 100 100 100 100 100 100 100 100 100 100 100 100 100 100 100 85 62
73 64 26 53 98 99 100 97 89 84 57 58 93 100 99 67 92 100 100 100 99 100 88 99 100 100 75 45 65 96 98 98 99 87 87 55 5 22 21 32 54 49 65 92 100 98 97 99 100 98 98 83 70 60

GFSWCAN_prec_cloud_081.txt.gz
Cloud_Cover
100 100 100 100 100 90 92 100 80 16 47 91 100 100 100 100 100 100 100 100 100 87 100 70 77 12 98 98 100 100 100 100 100 100 100 100 88 94 100 95 100 100 100 100 100 100 100 100 98 85 100 100 100 100
100 100 100 100 62 69 83 100 100 100 100 100 96 96 100 100 100 100 100 100 100 100 100 51 16 29 94 100 100 100 100 100 79 99 78 100 94 51 95 100 83 96 97 100 100 100 100 100 100 99 96 45 45 30
100 100 98 100 100 100 93 78 66 19 14 5 45 98 100 100 100 100 100 100 100 100 100 85 32 48 8 100 100 100 100 100 99 100 100 100 92 98 90 94 100 98 100 100 97 86 100 48 100 100 15 8 5 5
100 100 100 89 100 100 100 88 78 97 75 91 52 8 78 100 100 100 100 100 100 100 96 12 2 18 100 100 100 100 100 100 100 100 100 100 100 81 95 99 52 100 94 100 100 100 97 100 100 93 24 53 5 0
100 100 100 100 60 100 47 47 28 96 88 98 43 12 29 100 100 100 100 100 100 100 62 26 94 100 100 100 100 100 100 100 100 100 100 100 100 99 100 100 100 100 100 99 98 79 76 63 92 13 11 65 54 34
100 100 100 86 100 81 46 96 95 95 92 88 8 43 100 100 100 100 100 100 99 100 100 100 100 100 100 100 100 100 100 100 100 100 100 100 100 100 100 100 100 100 100 100 96 100 56 20 87 62 75 96 46 29
100 100 100 100 40 32 80 65 93 100 100 80 100 100 100 100 100 100 95 82 98 100 100 100 100 100 100 100 100 100 100 100 100 100 97 100 100 100 100 100 100 100 100 100 100 99 54 100 96 99 100 100 78 97
100 97 40 67 57 86 99 79 93 100 100 100 100 100 100 100 100 100 100 100 100 100 100 100 100 100 100 100 100 100 100 100 100 100 89 100 100 100 100 100 100 100 100 100 100 99 99 100 100 93 72 34 34 49
100 82 100 97 100 99 100 100 100 100 100 100 100 100 100 100 100 100 100 100 100 100 100 100 100 100 100 100 100 100 100 100 100 100 100 97 100 100 100 100 100 100 100 100 100 100 100 99 100 94 82 78 78 95
100 100 100 100 100 100 100 100 100 100 100 100 100 100 100 100 100 100 100 100 100 100 100 100 100 100 100 100 100 100 100 100 100 100 94 100 100 100 100 100 99 94 86 79 68 64 77 96 100 100 100 100 100 100
100 100 100 100 100 100 100 100 100 100 100 100 100 100 100 100 100 100 100 100 100 100 100 100 100 100 100 100 100 100 100 100 100 100 100 100 100 100 100 100 100 90 97 94 94 100 100 100 100 100 100 100 100 100
100 100 100 100 100 100 100 100 100 100 100 100 100 100 100 100 100 100 100 100 100 100 100 100 100 100 100 100 100 100 100 100 100 100 100 100 100 100 100 100 100 100 99 100 100 100 100 100 94 100 100 100 100 100
100 100 100 100 100 100 100 100 100 100 100 100 100 100 100 99 100 100 100 100 100 100 100 100 100 100 100 100 100 100 100 100 100 100 100 100 100 100 100 100 100 100 100 100 100 100 100 100 100 100 100 100 100 100
100 100 100 100 100 100 100 100 100 100 100 100 100 100 100 100 100 100 100 100 100 100 100 100 100 100 100 99 97 100 98 100 100 100 100 100 100 100 100 100 100 100 100 100 100 100 100 100 100 100 100 100 100 100
100 100 100 100 100 100 100 100 100 100 100 100 100 100 100 100 100 100 98 100 100 100 100 98 99 100 100 81 97 100 100 100 100 100 100 100 100 100 100 100 100 100 100 100 100 100 100 100 100 100 100 100 100 100
100 100 78 47 100 100 95 100 100 100 100 100 100 100 100 100 100 100 100 99 99 100 99 97 98 98 100 100 96 99 100 100 100 100 100 100 100 100 100 100 100 100 100 100 100 100 100 100 100 100 100 100 100 100
100 100 100 97 94 100 100 100 100 100 100 100 100 100 100 100 100 100 100 100 98 100 100 99 100 100 100 100 100 100 100 100 100 100 100 100 100 100 100 100 100 100 100 100 100 100 100 100 100 100 100 100 100 100
100 100 95 100 100 100 100 95 99 100 100 100 100 100 100 100 100 100 100 100 100 100 100 100 100 100 100 100 100 100 100 100 100 100 100 100 100 100 100 100 100 100 100 100 100 100 100 100 100 100 100 100 100 100
87 73 100 100 100 100 100 100 100 100 100 100 100 100 100 100 100 100 100 100 98 96 100 100 100 100 100 100 100 100 100 100 100 100 100 100 100 100 100 100 100 100 100 100 100 100 100 100 100 100 100 100 100 100
11 14 5 89 100 100 100 100 100 100 100 100 100 100 100 100 100 100 100 100 100 100 100 100 100 100 100 100 100 100 100 100 100 100 100 100 100 100 100 100 100 100 100 100 100 100 100 100 100 100 100 100 100 100
21 39 83 100 100 100 100 100 98 81 100 100 100 89 100 100 100 100 100 100 100 100 100 100 100 100 100 100 100 100 100 100 100 100 100 100 100 100 100 100 100 100 100 100 100 100 100 100 100 100 100 100 100 100
95 97 99 99 86 24 73 69 85 93 100 100 100 100 100 100 100 90 81 94 100 100 100 100 100 100 100 100 100 100 100 98 100 70 83 92 100 100 100 100 100 100 100 100 100 100 100 100 100 100 100 100 100 99
86 93 86 40 28 61 100 100 100 100 100 100 100 100 88 98 93 77 98 100 100 100 100 100 100 100 100 100 100 100 100 100 100 100 99 96 90 86 91 95 100 100 100 99 100 100 79 14 72 100 100 100 100 91
88 100 97 14 32 100 74 89 93 99 100 98 91 99 100 100 100 100 100 100 100 100 100 100 100 100 100 100 100 91 31 15 12 6 7 5 5 5 10 7 78 100 98 100 100 100 100 100 59 98 100 100 100 100
92 41 24 28 15 45 74 88 100 100 100 100 100 100 100 100 100 100 100 100 100 100 100 100 100 100 100 98 75 5 5 5 5 5 19 5 37 10 12 5 36 14 95 100 100 100 100 100 100 100 100 100 100 100
55 70 70 71 80 96 100 100 100 100 100 100 100 98 85 77 60 96 100 100 100 100 100 100 100 100 90 82 62 24 11 5 5 14 21 27 33 98 100 100 100 100 91 100 100 100 100 100 100 100 100 64 22 82
35 100 71 72 99 100 100 93 72 85 72 74 67 66 59 47 78 95 100 100 100 100 100 100 98 99 64 12 35 60 5 21 47 68 33 5 5 38 100 100 98 100 100 100 100 100 100 100 100 100 100 100 100 100
99 99 100 100 100 79 52 14 56 62 85 66 60 55 44 36 99 100 100 100 100 100 100 99 83 17 58 19 33 28 42 6 14 34 67 74 78 93 100 99 91 8 90 100 100 100 100 100 100 100 100 100 100 100
97 95 100 85 50 67 94 94 99 100 87 55 44 54 100 100 100 100 100 100 100 100 80 75 79 54 51 63 73 96 100 100 100 18 43 94 100 100 100 100 100 100 100 100 32 66 99 100 100 100 100 100 100 100
80 83 49 62 80 100 100 100 100 100 99 99 88 100 100 100 100 100 100 100 100 100 100 86 97 98 87 86 83 99 100 100 100 100 100 100 100 100 100 100 100 100 100 100 100 100 90 80 97 100 94 100 100 100
92 94 92 99 100 100 100 100 100 100 100 100 100 97 100 100 100 100 100 100 100 100 100 100 100 98 60 68 93 74 100 100 33 57 77 100 100 100 100 100 100 100 100 100 100 100 100 98 100 100 100 100 100 100
100 76 39 88 100 100 100 100 100 100 100 100 100 100 100 100 100 100 100 100 100 100 100 100 100 100 100 100 90 64 76 93 96 88 91 100 100 100 100 100 100 100 100 100 100 100 100 100 100 100 100 100 100 99
99 88 18 53 96 96 85 91 87 93 94 100 100 100 100 98 100 100 100 100 100 100 100 100 100 100 100 72 93 92 100 94 86 44 8 27 4 36 90 100 100 100 100 100 100 100 100 100 100 100 100 100 100 95

GFSWCAN_prec_cloud_084.txt.gz
Cloud_Cover
99 100 93 100 100 100 100 79 82 84 77 54 70 95 100 100 100 100 100 100 100 100 100 97 88 51 66 97 98 94 100 98 100 100 100 92 9 85 100 100 97 93 100 100 100 100 100 100 100 100 100 100 100 100
100 100 100 100 100 98 98 99 54 12 89 19 9 53 79 100 100 100 100 100 100 97 100 79 52 91 51 98 100 79 90 100 92 100 34 98 96 100 100 99 100 88 100 100 100 100 100 100 100 100 100 100 100 100
100 100 100 100 100 88 100 98 69 100 21 5 6 80 99 100 100 100 100 100 100 100 99 50 10 2 5 8 94 100 100 100 100 100 98 59 98 100 100 97 100 100 100 100 100 100 100 100 100 100 100 100 99 85
100 100 100 76 100 100 100 100 100 100 86 52 5 5 64 88 100 100 100 100 100 100 100 100 10 1 2 5 48 100 98 100 100 100 100 100 100 100 100 100 99 100 100 100 100 100 100 100 100 100 100 100 93 45
100 100 100 100 100 100 100 66 84 99 68 78 97 19 19 26 100 100 100 100 100 100 100 92 25 40 5 2 26 71 100 100 100 100 100 100 100 100 100 100 99 98 94 100 100 100 100 100 100 100 94 100 88 8
100 100 100 100 77 100 81 84 96 97 100 96 99 100 99 5 100 100 100 100 100 100 100 90 53 27 6 75 100 100 100 100 100 100 100 100 100 100 100 100 100 100 100 100 100 100 98 97 98 83 86 43 14 7
100 100 100 47 100 100 86 98 83 100 100 100 100 100 67 100 100 100 100 100 100 100 100 100 86 56 100 100 100 100 100 100 100 100 100 100 100 100 100 100 100 100 100 100 100 100 97 100 94 100 100 40 40 41
100 100 100 100 100 100 99 90 94 100 100 100 100 100 100 100 100 100 100 100 88 100 100 100 100 100 100 100 100 100 100 100 100 100 100 100 100 100 100 100 100 100 100 100 100 100 100 100 99 100 90 94 96 100
100 100 100 53 100 78 88 100 100 100 100 100 100 100 100 100 100 100 100 100 98 86 100 100 100 100 100 100 100 100 100 100 100 100 100 100 100 100 100 100 100 100 100 100 100 100 100 100 100 100 100 100 100 100
100 100 100 68 87 100 100 99 100 100 100 100 100 100 100 100 100 100 100 100 100 100 100 100 100 100 100 100 100 100 100 100 100 100 99 100 100 100 100 100 100 100 100 100 100 100 100 100 100 100 100 100 100 100
100 100 100 100 100 100 100 100 100 100 100 100 100 100 100 100 100 100 100 100 100 98 92 100 100 100 100 100 100 100 100 100 100 98 100 100 100 100 100 100 100 100 100 100 100 100 100 100 100 100 100 100 100 100
100 100 100 100 100 100 100 100 100 100 100 100 100 100 100 100 100 100 100 100 100 100 100 100 100 100 100 100 100 100 100 100 100 100 100 100 100 100 100 100 100 100 100 100 100 100 100 100 100 100 100 100 100 100
100 100 100 100 74 100 100 100 100 100 100 100 100 100 100 99 100 100 100 100 100 100 100 100 100 100 100 100 100 100 99 98 100 100 100 100 100 97 100 100 100 100 100 100 100 100 100 100 100 100 100 100 100 100
97 100 100 100 100 100 100 100 100 100 100 100 100 100 100 100 100 100 100 100 100 100 100 100 100 100 100 100 100 100 94 77 100 98 100 100 100 100 100 99 97 98 100 100 100 100 96 99 100 99 100 96 94 89
100 100 100 100 100 100 100 100 100 100 100 100 100 100 100 100 100 100 100 100 100 100 100 100 100 100 100 100 100 100 98 100 98 100 100 100 100 98 100 100 100 100 99 95 100 100 98 99 100 100 97 88 86 99
100 100 100 100 100 100 100 100 100 100 100 100 100 100 100 100 100 100 100 100 100 100 100 100 99 99 99 98 97 96 100 100 100 100 100 93 100 100 100 99 99 95 93 98 100 100 100 99 99 100 98 100 100 100
100 89 100 100 100 100 100 100 100 100 100 100 98 95 100 88 100 100 100 100 98 98 97 100 98 95 91 99 99 99 100 100 100 100 100 100 100 100 100 100 100 100 100 100 100 100 100 100 100 100 100 100 100 99
94 88 100 100 100 99 100 100 100 97 97 100 100 100 100 100 100 100 100 100 94 99 85 100 100 100 100 100 100 100 100 100 100 100 100 100 100 99 100 100 100 100 100 100 100 100 100 91 96 100 99 100 100 100
98 84 100 100 99 87 100 94 93 95 100 100 100 100 100 100 100 100 99 96 94 100 100 100 100 100 100 100 100 100 100 100 100 100 99 100 100 100 92 86 100 98 99 100 100 100 100 94 100 100 100 100 100 100
100 100 100 100 100 100 90 70 79 95 100 100 100 100 100 100 99 93 87 100 100 100 100 100 100 100 100 100 100 100 100 100 99 100 100 100 100 98 98 100 100 99 100 99 99 100 100 100 100 100 100 100 100 100
100 100 100 100 100 100 100 100 100 94 100 100 100 100 100 100 100 100 100 100 100 100 100 100 100 100 100 100 100 100 99 100 100 100 99 100 100 100 100 100 96 100 100 100 100 100 100 100 100 100 100 100 100 100
63 84 95 99 100 100 72 80 96 100 100 100 100 100 100 100 100 100 99 100 100 100 100 100 100 100 100 100 99 100 93 76 76 70 74 86 100 100 100 100 100 100 100 100 100 100 100 100 100 100 100 98 99 90
61 82 90 100 88 83 80 66 89 100 100 100 100 100 100 100 100 100 100 100 100 100 100 100 100 99 97 99 100 99 96 100 100 100 100 100 100 99 99 95 100 99 100 100 100 99 49 45 52 69 40 96 81 46
99 99 94 80 96 100 99 99 100 100 100 100 100 100 100 100 100 100 100 100 100 100 100 100 100 100 100 100 100 74 30 30 54 77 61 91 99 73 78 92 95 81 89 100 100 100 95 58 50 99 79 98 88 100
99 63 100 100 100 100 100 100 96 90 100 100 100 100 100 100 100 100 100 100 100 100 100 100 100 100 100 100 85 5 5 46 88 13 34 70 71 93 87 62 54 7 89 100 100 100 94 99 100 100 100 100 96 81
85 84 76 69 98 100 100 100 100 100 100 100 99 99 100 100 94 99 100 100 99 100 100 100 100 100 100 100 100 90 42 11 6 67 54 54 62 93 96 95 100 100 83 64 99 100 94 90 100 25 85 39 18 31
44 99 40 18 97 100 100 100 100 100 100 89 63 76 74 94 99 100 100 100 99 100 100 100 100 100 97 78 22 71 57 36 16 32 8 5 46 86 99 100 100 98 100 73 71 89 100 71 91 90 93 97 98 86
74 95 84 100 100 100 97 91 51 67 64 65 67 68 76 68 99 100 100 100 100 100 100 91 36 36 24 82 83 91 62 54 5 14 67 78 66 66 66 46 13 4 15 26 67 56 89 100 100 99 99 92 100 78
100 100 100 100 100 100 100 100 100 100 92 80 68 89 100 100 100 100 100 98 100 100 100 100 100 92 83 84 85 100 100 98 100 16 12 91 100 100 97 91 100 98 100 98 39 26 15 45 91 70 84 88 93 93
100 100 100 100 94 100 100 100 100 100 100 60 85 100 100 100 100 100 99 100 100 100 100 100 100 99 96 98 98 100 100 99 91 100 100 100 100 96 92 100 100 99 82 100 100 100 99 64 99 81 79 98 100 100
99 91 55 100 100 100 100 100 100 100 97 92 92 92 100 100 100 100 100 100 100 100 100 100 100 100 96 100 100 100 100 86 6 12 70 88 99 100 98 72 97 100 100 100 100 100 100 66 98 100 100 100 100 99
99 86 60 96 100 100 100 100 100 100 100 100 100 100 100 100 100 100 100 100 100 100 100 100 100 100 100 100 100 100 82 67 82 79 91 100 100 94 100 100 98 100 99 89 100 100 100 100 100 100 100 100 100 45
100 99 74 84 100 95 92 100 100 100 100 100 100 100 99 100 100 100 99 100 100 100 100 100 100 100 100 100 100 100 99 74 34 5 5 12 5 26 82 100 100 100 100 100 100 100 100 100 100 86 72 55 82 75

GFSWCAN_prec_cloud_087.txt.gz
Cloud_Cover
100 97 31 100 100 100 100 100 100 66 86 98 100 100 100 100 99 100 100 98 97 100 98 30 70 24 99 100 87 50 100 100 100 100 84 8 5 9 9 100 100 100 92 100 100 100 100 100 100 100 100 100 100 100
100 9 98 100 100 100 100 100 100 100 97 87 79 100 100 100 100 100 100 100 100 97 100 93 44 59 100 99 96 100 100 100 100 74 5 22 17 94 99 94 100 100 59 85 100 100 100 100 100 100 100 100 100 100
100 97 100 100 100 100 100 100 100 100 100 99 80 96 100 86 100 100 100 100 100 100 100 100 100 100 56 30 20 84 100 100 100 100 98 96 100 100 100 100 100 100 100 97 100 100 100 100 100 100 100 100 100 100
100 100 100 100 100 100 100 100 100 100 100 100 72 78 99 100 100 100 100 100 100 100 100 100 58 100 71 4 5 10 100 100 80 100 100 100 100 100 100 100 92 100 100 100 100 100 100 100 100 100 100 100 100 100
100 100 100 100 100 100 100 100 100 100 77 70 100 99 98 100 100 100 100 100 100 100 100 96 95 95 6 0 4 27 97 99 78 100 100 100 100 100 100 100 100 100 100 100 100 100 100 100 100 100 100 100 100 100
100 100 100 100 94 100 100 100 100 100 100 100 97 83 100 100 100 100 100 100 100 100 93 100 96 10 2 5 0 83 40 26 65 100 100 100 100 100 100 100 100 100 100 100 100 100 100 100 100 100 100 100 100 100
100 100 97 100 100 100 100 100 99 97 92 98 100 100 100 100 96 100 95 98 100 100 100 100 95 82 8 24 5 44 9 98 98 100 100 100 100 100 100 100 100 100 100 100 100 100 100 100 100 100 100 100 100 100
100 100 100 100 100 98 100 83 92 100 100 100 100 100 100 100 100 100 100 100 100 100 100 98 85 100 33 24 20 100 100 100 100 100 100 100 100 100 100 100 100 100 100 100 100 100 100 100 100 100 100 96 100 100
100 100 100 100 100 95 56 96 85 100 100 100 100 100 100 100 100 100 100 100 100 82 100 100 76 99 90 89 100 100 100 100 100 100 100 100 100 100 100 100 100 100 100 100 86 100 100 100 100 100 100 96 92 100
100 100 100 100 100 86 100 100 93 100 100 100 100 100 100 100 100 100 100 100 100 100 99 100 100 100 100 100 100 100 100 100 100 100 100 100 100 99 100 100 100 100 100 100 100 100 100 100 100 100 100 100 100 100
100 100 100 100 100 100 100 100 100 100 100 100 100 100 100 100 100 100 100 100 97 100 78 100 100 100 100 100 100 100 100 100 100 100 100 100 100 100 100 100 100 100 100 100 100 100 100 100 100 100 100 100 100 100
100 100 100 100 100 100 100 100 100 100 100 100 100 100 100 100 96 100 100 100 51 89 97 100 100 100 100 100 100 100 100 100 100 100 100 100 100 100 100 100 95 100 100 100 100 100 100 100 100 100 100 100 100 100
100 100 100 100 100 100 100 100 100 100 100 100 100 100 100 99 100 98 65 98 100 100 100 100 100 100 100 100 100 100 100 100 100 100 100 100 100 100 90 76 77 10 37 73 90 74 61 98 93 86 100 100 89 81
100 99 100 100 100 100 100 100 100 100 100 96 86 86 96 89 89 100 100 100 100 100 100 100 100 100 100 100 100 100 87 100 100 100 99 100 100 100 100 81 100 86 66 55 64 26 80 97 100 100 100 74 54 89
100 100 100 100 100 100 100 100 100 100 97 100 100 100 100 100 100 100 100 95 100 100 100 100 100 100 100 100 100 100 99 99 95 98 100 100 94 100 73 94 75 46 48 71 75 67 72 60 91 99 91 74 67 72
100 100 100 100 100 100 100 100 100 100 83 100 100 100 100 100 100 100 100 100 100 100 100 100 100 100 100 100 100 98 98 98 100 95 93 57 75 46 84 98 100 100 98 98 93 71 64 64 76 90 80 89 93 98
100 91 100 100 100 100 100 100 100 100 100 100 100 100 100 100 100 100 100 100 100 100 100 100 99 80 83 97 99 97 99 93 100 100 94 98 98 98 100 100 100 96 88 100 82 80 65 32 62 77 94 97 95 91
82 77 100 100 100 100 100 100 100 100 100 100 100 100 89 94 100 100 100 94 73 94 100 96 84 99 100 100 100 100 100 100 100 99 99 97 97 83 44 66 62 25 52 58 80 87 96 96 100 100 100 100 100 100
94 100 100 100 100 100 100 100 100 100 98 98 99 100 100 100 99 100 91 97 99 98 100 100 100 100 100 100 98 90 90 100 88 86 78 20 5 22 5 31 70 76 80 85 90 91 95 100 100 100 100 100 100 100
100 93 100 100 100 100 100 97 65 64 80 88 96 98 98 98 99 89 73 90 99 100 100 100 100 100 100 100 100 100 93 64 16 76 87 70 91 89 99 98 68 89 98 98 94 99 100 100 100 100 100 100 100 100
76 58 6 46 97 92 77 68 46 9 74 86 97 86 96 94 80 96 100 100 100 100 100 100 100 100 100 100 73 42 99 98 100 76 36 90 98 100 96 100 100 100 100 100 97 99 95 80 96 98 100 99 78 38
89 95 100 74 96 75 59 61 96 100 100 100 100 99 100 100 99 95 100 100 100 100 100 100 100 100 82 60 34 5 11 68 51 56 17 61 99 72 92 100 99 96 84 73 90 90 49 24 70 75 60 41 54 50
100 100 100 85 80 92 100 100 100 99 100 100 99 88 95 100 100 100 100 100 100 100 100 98 59 20 23 50 95 100 51 50 32 19 18 26 34 39 30 42 90 98 100 78 10 6 15 24 67 60 65 43 59 31
87 95 100 100 100 100 96 100 100 98 74 94 88 100 100 100 100 100 100 100 100 90 58 66 61 54 92 100 73 55 27 27 44 8 38 75 8 5 5 5 5 25 75 85 5 5 6 5 26 19 64 86 99 100
86 75 76 89 94 93 76 72 74 93 100 100 100 100 100 100 100 100 100 100 100 100 100 100 99 95 84 100 96 18 5 25 58 5 5 5 48 38 40 5 5 5 5 93 98 64 5 15 83 92 98 100 75 31
59 29 61 68 80 68 78 100 100 100 100 100 100 100 100 100 100 100 100 100 86 85 91 100 100 90 69 96 64 5 14 18 5 5 7 5 22 60 84 89 98 36 8 41 76 100 84 25 42 35 10 42 17 2
74 86 100 100 100 100 100 100 100 100 100 100 100 83 68 64 84 98 99 78 99 99 100 100 99 71 62 66 26 5 5 5 46 54 14 5 5 5 32 84 92 98 50 33 10 82 100 100 63 24 69 100 92 88
99 75 91 100 100 100 100 100 100 100 92 55 61 73 68 69 90 100 100 96 70 82 61 78 71 73 57 66 9 5 5 47 96 86 43 22 5 5 5 5 5 9 8 5 5 5 40 53 83 98 91 89 58 85
52 99 100 100 100 100 100 100 98 58 59 70 84 80 78 99 100 100 100 68 56 80 85 100 81 67 36 64 93 100 100 100 100 99 61 100 91 68 54 85 5 32 97 96 42 6 10 9 10 5 25 38 5 5
100 100 100 100 100 100 98 92 58 53 64 86 84 100 98 100 100 90 72 80 76 63 82 65 46 70 100 95 90 93 100 100 100 94 86 99 86 97 98 99 100 59 16 58 90 90 98 94 49 36 98 99 93 100
100 100 72 55 84 100 100 89 56 79 82 89 83 95 95 100 100 100 100 84 89 85 86 99 100 100 100 100 100 100 100 100 100 100 24 24 76 72 31 6 5 39 90 35 5 28 46 20 7 84 100 100 94 76
82 55 58 66 100 100 100 79 76 83 93 93 85 68 82 88 84 100 100 100 94 100 98 96 100 100 100 100 100 100 100 100 100 90 86 90 53 5 5 23 59 33 5 5 76 84 46 5 19 22 66 79 67 7
85 62 94 99 97 92 100 100 79 98 99 98 100 100 100 100 100 100 100 99 100 100 100 100 100 100 100 100 100 100 100 100 93 28 62 88 92 63 92 74 67 52 5 5 16 81 61 98 50 8 5 5 6 9

GFSWCAN_prec_cloud_090.txt.gz
Cloud_Cover
100 100 100 100 94 6 86 100 100 100 100 100 100 100 100 100 100 100 100 97 70 99 83 4 4 5 72 100 100 43 15 77 98 75 75 41 12 5 5 1 9 33 99 100 91 100 100 100 94 92 88 100 100 100
100 100 100 96 5 10 100 100 100 100 100 100 100 100 100 100 100 100 100 100 100 97 97 51 3 2 7 98 90 85 91 100 98 100 98 99 44 9 8 6 100 100 55 100 36 100 100 100 100 99 100 100 100 100
100 100 100 100 98 93 100 100 100 100 100 100 100 100 100 100 100 100 100 100 100 100 77 14 47 48 6 35 98 98 72 100 100 100 100 98 100 65 15 96 100 100 74 99 99 100 100 100 100 100 100 100 100 100
100 100 100 100 100 100 100 100 100 100 100 100 100 100 100 100 100 100 100 100 100 99 95 100 86 79 63 100 66 9 96 100 100 100 100 93 73 95 100 100 100 100 100 100 100 100 100 100 100 100 100 100 100 100
100 100 100 100 100 100 100 100 98 100 100 100 100 100 100 100 100 100 100 100 100 100 88 99 94 52 100 100 58 4 99 100 100 85 94 47 100 100 100 100 100 100 100 100 100 100 100 100 100 100 100 100 100 100
5 93 100 100 100 100 100 100 100 100 100 100 100 100 100 100 100 100 100 100 100 100 100 100 79 63 100 100 13 1 91 100 100 99 92 100 100 100 100 100 100 100 100 100 100 100 100 100 100 100 100 100 100 100
28 99 100 100 100 100 100 100 100 100 100 100 100 100 100 100 100 100 98 98 100 100 100 100 99 99 100 56 79 5 53 100 100 100 100 100 100 100 100 98 100 100 100 100 100 100 100 100 100 100 100 100 100 100
98 100 100 100 100 100 100 100 99 100 100 96 99 100 100 100 100 100 97 42 100 100 100 98 100 100 53 25 100 41 18 79 79 100 100 100 100 100 96 100 100 100 100 100 100 100 99 99 100 93 98 100 100 100
100 100 100 100 100 100 96 100 100 100 100 86 100 100 100 100 100 100 56 100 100 100 100 100 100 96 61 87 42 72 98 100 100 100 100 100 96 96 100 100 100 100 100 100 100 99 94 100 100 100 86 98 100 100
100 100 100 99 100 100 100 100 100 100 100 100 100 100 100 100 100 100 100 100 100 100 94 95 100 100 100 88 99 100 100 100 100 100 100 100 100 100 99 100 98 100 68 73 98 100 100 100 100 100 99 100 100 100
100 100 100 100 100 100 94 99 100 100 100 100 100 100 100 100 100 100 100 100 100 99 88 100 100 100 100 100 100 100 100 100 100 100 100 100 100 100 100 100 100 100 100 100 98 89 100 100 100 100 100 100 100 100
100 100 100 100 100 100 100 100 100 99 100 100 100 100 100 100 100 74 92 100 100 90 100 100 100 100 100 100 100 97 100 100 100 100 100 100 100 100 100 98 94 100 100 100 88 99 100 100 100 100 100 100 100 100
100 100 100 100 100 100 100 100 97 78 82 89 100 100 100 85 100 63 100 100 100 100 100 100 100 100 94 97 100 100 100 100 100 100 100 100 100 96 96 100 81 21 59 81 100 100 100 100 98 100 100 100 100 96
100 100 100 100 100 100 100 100 100 96 99 100 100 45 87 55 79 91 100 99 95 100 100 100 100 100 100 97 100 100 100 100 100 100 99 100 99 100 98 98 98 99 98 82 88 73 94 100 100 92 84 84 90 79
100 100 100 100 100 100 100 100 100 100 100 88 61 90 68 95 96 99 100 100 100 100 100 97 100 100 100 100 100 100 96 98 72 78 96 100 98 100 98 98 91 91 91 89 77 79 88 71 75 84 81 87 99 92
100 100 100 100 100 100 100 98 93 95 100 100 100 97 99 95 99 100 100 100 100 100 100 100 100 100 100 100 99 100 100 100 100 100 99 94 100 96 100 100 99 98 91 84 72 63 56 71 82 97 83 82 78 86
100 100 100 100 100 100 100 100 100 100 53 82 100 100 100 100 100 100 100 100 100 100 100 100 100 99 76 40 96 96 100 100 100 100 100 99 69 100 91 79 76 73 87 71 65 20 62 56 49 61 78 85 65 60
100 100 100 100 100 100 91 95 77 24 100 100 100 100 100 100 100 100 100 100 100 98 93 100 77 100 100 100 100 100 100 100 94 88 99 90 84 81 42 95 99 60 79 78 63 84 98 82 57 67 73 85 84 87
100 100 100 100 100 100 100 61 64 57 95 87 99 100 100 100 100 96 85 71 70 88 100 100 100 100 100 100 97 100 88 72 92 99 99 90 63 79 98 77 74 75 96 100 100 93 100 100 100 100 100 100 100 100
100 100 100 100 88 100 100 50 74 29 68 89 83 100 96 71 87 75 82 100 100 100 100 100 100 100 99 99 73 62 46 7 30 64 100 100 90 64 60 55 69 57 67 74 80 82 96 96 93 75 91 100 100 100
100 100 100 100 100 100 94 100 53 40 53 79 95 98 76 98 98 100 100 100 100 100 99 95 100 100 76 72 78 30 66 5 8 8 95 97 76 59 80 76 61 87 98 97 67 71 87 95 97 34 38 86 38 73
100 100 100 100 100 91 71 31 6 15 44 63 82 94 100 100 100 100 100 100 100 100 90 93 100 82 84 88 69 49 67 40 73 89 58 70 89 81 87 82 12 64 94 94 77 63 71 93 71 65 63 86 64 56
65 88 97 80 87 8 59 66 13 52 60 68 79 100 100 95 98 100 100 100 96 85 62 74 84 69 51 63 95 89 99 93 81 100 96 70 61 34 21 5 81 48 76 74 11 7 5 53 100 95 33 47 36 70
88 96 87 34 5 70 49 59 14 27 85 99 100 87 99 100 100 100 100 100 92 93 89 39 65 89 93 77 74 98 100 57 22 83 68 9 5 5 5 5 5 58 43 9 33 43 6 9 68 50 86 100 100 100
85 88 92 100 100 73 32 55 97 100 100 84 100 100 100 100 100 100 100 100 86 93 86 78 88 68 69 82 69 54 63 99 66 78 44 18 29 5 5 5 40 61 46 55 72 81 12 28 16 13 49 56 100 100
100 100 94 39 90 98 100 99 86 99 100 100 100 98 100 100 100 98 81 95 95 100 100 100 100 99 76 86 98 81 88 43 30 34 42 10 53 34 14 38 63 37 66 51 82 91 98 72 36 5 5 5 28 14
98 96 100 100 100 100 100 100 100 100 100 100 100 100 87 96 100 100 88 86 97 87 71 88 90 68 81 58 38 57 25 9 15 9 12 50 6 13 15 65 90 73 60 8 24 91 78 62 6 5 40 92 57 86
77 68 96 99 100 100 100 100 100 100 100 100 100 74 63 85 82 100 100 100 72 64 86 96 75 53 60 10 30 62 17 45 44 6 35 39 36 14 6 9 15 52 38 5 16 38 51 100 100 90 86 66 98 97
69 100 95 100 100 100 100 100 100 88 79 78 87 100 100 99 99 86 99 59 56 61 56 84 98 65 41 73 100 88 62 80 48 99 100 100 98 83 85 35 44 65 67 44 23 78 76 18 29 13 9 36 25 54
100 100 100 100 100 100 100 97 100 80 89 73 69 98 99 100 100 97 86 87 76 69 78 98 100 68 96 100 100 95 84 91 98 100 95 89 35 51 99 97 72 77 86 68 84 61 46 28 36 27 15 77 82 86
100 100 99 85 94 94 81 87 49 42 53 89 60 74 97 100 100 100 100 100 96 93 100 100 100 100 100 100 98 100 94 91 100 100 74 50 79 99 99 80 58 69 22 11 48 13 11 34 62 67 84 85 74 68
61 50 57 68 100 97 98 52 61 96 100 82 99 60 95 93 99 100 100 100 90 100 100 100 100 100 100 91 100 98 99 100 100 100 83 72 97 89 64 62 30 5 23 57 70 49 6 24 58 64 12 11 64 70
47 59 84 100 100 100 97 84 86 99 80 73 85 99 100 100 99 84 100 95 92 100 100 100 100 100 100 100 100 100 100 100 100 94 100 100 72 41 14 34 19 23 7 74 100 81 89 80 84 48 54 61 59 54

GFSWCAN_prec_cloud_093.txt.gz
Cloud_Cover
100 100 100 100 100 100 100 82 83 100 100 98 10 83 100 100 100 100 100 100 90 65 63 41 2 5 6 97 100 100 100 100 100 100 100 100 100 100 100 100 100 100 100 97 81 96 75 100 98 36 73 100 100 100
100 100 100 100 100 100 100 10 89 100 96 100 85 98 100 100 100 100 100 100 100 100 51 53 3 0 1 5 73 100 100 100 100 100 100 100 100 100 100 100 100 34 83 99 92 11 97 100 100 96 78 100 100 100
100 100 100 100 100 100 100 100 100 100 100 96 96 100 100 100 100 100 100 100 100 100 96 95 41 26 0 0 61 5 32 82 100 100 100 100 100 24 39 8 100 82 100 100 99 100 100 100 100 100 100 100 100 100
100 100 100 100 100 100 100 100 100 100 100 86 100 100 100 100 100 100 100 100 100 100 96 95 50 64 14 26 28 4 13 88 100 100 100 100 97 47 95 96 98 100 100 100 100 100 100 100 100 100 100 100 100 100
100 100 100 100 100 100 100 100 100 100 100 100 100 100 100 100 100 100 100 100 100 98 62 98 90 82 35 97 100 28 36 96 86 98 100 80 78 62 46 99 100 100 100 100 100 100 100 100 100 100 100 100 100 100
100 100 94 8 100 100 100 100 100 100 100 100 100 100 100 100 100 100 100 100 100 100 100 99 87 71 92 77 43 99 100 84 95 99 100 100 98 91 100 100 100 100 100 100 100 100 100 100 100 100 100 100 100 100
99 90 5 17 100 100 100 100 100 100 100 100 100 100 100 100 100 100 100 100 100 100 100 100 100 78 97 97 100 100 72 97 100 100 100 100 100 100 100 100 100 100 100 100 100 100 100 100 100 100 100 100 100 100
77 5 5 81 100 100 100 100 100 100 100 100 100 100 100 100 100 100 74 100 100 100 100 98 81 7 94 100 100 100 30 14 100 100 99 100 100 100 100 100 100 100 100 100 100 100 100 100 100 100 100 100 100 100
55 5 68 100 100 100 100 100 100 100 99 100 100 100 100 100 100 100 100 100 100 76 100 100 38 98 100 100 98 40 32 96 35 100 96 100 100 100 100 100 98 82 100 100 100 100 100 100 100 100 100 100 100 100
11 95 100 100 100 100 100 100 99 97 97 100 100 100 100 100 100 100 100 100 100 100 97 79 74 92 89 77 99 94 100 52 100 100 100 100 100 100 100 96 35 17 61 100 100 100 54 92 100 100 100 100 100 100
97 100 100 100 100 100 100 100 100 100 100 100 100 100 100 100 100 100 100 99 100 100 100 88 90 100 100 100 100 75 95 100 99 100 100 79 100 100 97 76 96 73 42 87 89 98 100 100 100 100 99 100 100 100
100 100 100 100 100 100 100 100 100 100 100 100 100 100 100 100 100 100 79 87 92 94 82 96 100 100 100 100 100 96 100 100 100 100 100 100 100 100 100 100 100 97 100 98 88 98 82 90 76 76 83 93 100 98
100 100 100 100 100 100 100 100 94 100 100 100 100 100 100 100 100 97 100 100 84 100 100 100 100 100 100 100 100 100 100 100 100 99 94 100 100 100 100 100 94 84 87 100 100 100 100 100 98 100 100 100 100 90
100 100 100 100 100 100 100 100 100 81 100 100 100 100 100 100 100 100 96 45 88 100 100 100 100 100 95 90 86 94 78 85 98 65 88 100 100 100 100 100 99 82 87 61 77 63 89 95 100 89 85 73 66 88
100 100 100 100 100 100 100 100 100 100 100 100 100 100 100 99 97 95 99 100 100 100 100 100 100 100 92 94 100 100 87 98 99 100 100 100 100 98 85 69 57 58 70 74 67 78 96 73 84 99 86 72 57 53
100 100 100 100 100 100 100 100 100 98 100 69 84 78 84 87 98 99 100 100 100 100 99 100 100 100 100 100 100 100 100 97 87 94 95 93 100 100 100 100 100 79 70 75 61 53 29 19 69 98 73 45 58 25
100 100 100 100 100 100 100 100 94 95 82 86 98 100 100 87 100 100 100 100 100 100 100 100 100 100 100 86 100 82 95 100 100 100 94 66 67 100 99 98 80 60 74 69 65 46 61 63 52 47 74 74 46 12
100 100 100 100 100 100 100 100 98 66 62 100 100 100 99 100 100 100 100 100 100 100 100 98 51 88 93 100 100 98 100 100 100 84 100 100 100 98 44 86 86 41 77 68 14 43 68 100 78 71 77 87 84 70
100 100 100 100 100 100 99 53 38 60 99 96 100 98 99 92 99 100 100 99 96 80 84 100 100 100 100 95 92 99 97 79 93 100 99 97 72 63 89 92 100 99 79 83 88 92 95 98 99 100 100 97 89 97
100 100 100 100 99 96 95 42 63 100 100 100 100 100 100 100 100 97 100 98 89 100 100 100 100 100 95 91 62 10 44 16 50 99 100 100 100 98 99 81 79 93 100 99 98 98 100 100 100 100 100 100 100 100
84 84 98 100 100 98 68 83 63 20 72 100 100 100 95 100 94 88 100 100 100 100 100 100 99 100 99 82 42 62 87 100 99 100 100 99 100 78 96 100 93 88 78 77 77 93 80 96 89 66 63 96 86 92
100 97 97 92 70 95 40 42 45 73 100 99 95 90 93 100 100 100 100 100 100 100 80 92 99 94 58 68 87 92 99 92 83 99 81 88 99 94 87 82 63 92 98 100 94 61 84 95 66 79 29 87 75 61
100 83 68 83 79 83 75 84 19 92 78 81 65 80 98 100 100 100 100 84 98 90 65 51 67 89 97 98 100 93 100 98 82 72 81 70 56 63 59 66 54 47 58 51 47 26 15 91 92 90 68 10 32 79
81 92 17 28 9 78 52 28 51 6 76 83 53 100 100 100 100 100 92 100 96 100 91 80 59 93 100 90 100 78 54 61 87 81 98 17 16 46 32 61 68 66 42 16 36 39 6 25 76 86 95 96 64 81
78 25 5 20 20 6 6 13 5 5 50 100 100 100 100 96 100 69 55 100 100 91 86 100 98 77 100 98 100 99 100 97 96 61 69 25 54 9 53 63 63 76 60 51 34 92 61 99 92 76 51 87 80 80
43 7 18 64 39 5 37 45 34 98 94 92 88 72 84 100 89 89 65 83 99 100 100 100 96 92 100 98 100 100 93 84 44 24 77 60 9 38 47 58 54 28 60 55 98 99 78 58 67 85 50 55 65 96
32 53 77 78 84 11 50 70 57 81 95 97 83 94 98 95 100 90 92 74 92 86 85 100 100 90 73 55 88 65 47 18 5 41 46 35 41 47 63 88 100 94 88 35 65 44 98 100 88 21 16 98 51 36
75 56 71 56 72 90 98 78 65 90 82 88 86 68 61 49 78 100 94 87 68 95 100 98 86 91 87 85 68 31 62 91 47 77 78 88 72 78 40 36 69 55 70 36 70 65 36 92 100 100 100 100 100 93
34 82 94 100 100 100 100 98 97 94 94 98 43 98 95 100 98 93 100 97 97 84 59 94 98 80 77 92 60 91 100 97 94 92 98 100 100 80 76 72 74 97 84 11 75 94 80 35 30 24 50 50 64 86
100 100 100 90 62 92 100 99 77 96 95 98 86 88 98 100 100 100 91 91 88 69 67 82 88 100 100 100 100 100 100 100 100 99 97 99 90 44 99 92 100 100 81 100 100 47 58 87 76 16 68 94 99 100
98 78 31 25 96 97 100 100 99 100 59 66 55 76 88 100 100 100 100 100 99 86 96 100 100 100 100 100 100 100 100 100 100 96 100 100 99 98 79 79 100 84 87 70 71 50 68 70 87 99 100 73 73 90
89 99 95 70 89 90 93 100 82 95 100 91 99 72 63 98 100 100 90 99 100 100 100 100 100 100 100 100 100 100 100 100 100 100 100 98 99 92 82 50 73 66 77 99 99 71 41 76 97 83 71 63 80 94
96 53 64 74 94 99 88 86 100 97 92 87 100 98 98 100 100 97 96 100 100 99 86 100 100 100 100 100 100 100 100 100 100 100 100 100 100 100 73 69 58 59 64 100 100 90 100 100 100 92 65 80 79 63

GFSWCAN_prec_cloud_096.txt.gz
Cloud_Cover
100 100 100 100 100 100 100 100 100 100 48 91 86 95 59 72 98 100 100 100 96 71 16 21 83 14 5 46 94 100 100 100 100 100 100 100 100 100 100 100 100 100 100 100 100 100 100 100 99 22 100 100 100 100
100 100 100 100 100 100 100 100 100 99 94 100 100 100 24 96 98 100 100 100 100 95 38 55 5 5 0 3 8 90 69 100 100 100 100 100 100 100 100 98 84 60 99 100 96 100 100 100 100 100 100 100 100 100
5 99 100 100 100 100 100 100 100 100 76 82 100 100 97 100 100 100 100 100 100 100 84 80 45 4 5 0 1 5 27 76 99 98 100 100 100 100 100 98 99 99 100 100 100 100 100 100 100 100 100 100 100 100
100 37 99 100 100 100 100 100 100 100 100 100 100 82 100 100 100 100 100 100 100 100 98 70 67 46 10 0 0 0 5 7 99 96 96 92 90 70 100 100 100 100 100 100 100 100 100 100 100 100 100 100 100 99
89 59 84 100 100 100 100 100 100 100 100 100 100 100 100 100 100 100 100 100 100 100 94 61 65 99 71 5 0 0 4 5 95 100 91 72 30 76 99 100 100 100 99 100 100 100 100 100 100 100 100 100 100 100
100 29 63 100 100 100 99 71 100 100 100 100 100 100 100 100 100 100 100 100 100 100 100 93 99 26 41 97 87 17 5 42 71 73 100 99 93 85 100 98 100 96 100 100 100 100 100 100 100 100 100 100 100 100
5 78 96 88 100 100 8 100 100 100 100 100 100 100 100 100 100 100 100 100 100 100 100 100 100 95 90 100 57 57 95 99 99 100 100 88 100 100 100 95 100 100 100 100 100 100 100 100 100 100 100 100 98 100
88 76 5 78 92 10 49 100 100 98 98 100 100 100 100 100 100 100 100 100 100 100 100 98 100 100 16 36 34 11 54 24 100 100 99 62 99 100 90 98 100 100 100 100 100 100 100 100 100 100 100 100 100 100
57 5 90 72 5 5 72 100 100 100 100 100 100 100 100 100 100 100 100 100 100 100 100 100 40 22 79 83 92 97 89 100 100 100 100 59 100 100 100 100 100 100 100 100 100 100 100 100 100 100 100 100 100 100
5 22 46 20 16 93 100 100 100 100 100 100 100 100 100 100 100 100 100 100 100 100 99 98 31 81 94 91 96 96 77 99 99 89 100 84 100 100 100 100 100 100 100 100 100 100 100 100 100 99 100 100 100 100
5 44 92 46 99 100 100 100 100 100 100 100 100 100 71 100 100 100 100 100 100 100 100 74 98 100 88 70 100 83 100 96 85 67 100 94 100 100 94 91 100 100 90 85 100 98 100 100 100 100 100 100 100 100
87 100 100 100 100 100 100 100 100 98 100 100 100 100 100 100 100 100 100 99 83 49 100 100 97 75 100 99 100 100 100 95 100 100 98 90 96 97 92 77 58 80 74 72 92 100 100 100 100 99 100 100 100 100
100 100 100 100 100 100 100 99 96 100 100 100 100 100 100 100 100 91 75 81 91 90 98 100 100 89 100 100 100 100 100 100 100 100 100 100 99 94 82 81 95 97 84 99 100 78 51 58 54 70 96 91 55 71
100 100 100 100 100 100 100 100 100 100 95 100 92 98 80 73 100 100 100 100 100 100 91 100 100 99 100 100 100 100 100 100 100 100 100 100 100 100 100 100 99 100 100 100 100 99 99 100 98 79 83 49 12 83
100 100 100 100 100 100 100 100 100 100 96 94 100 100 100 100 100 100 100 100 100 100 100 100 100 100 100 100 100 100 100 100 100 100 100 100 100 100 100 100 92 79 62 66 43 72 92 77 80 100 96 80 65 69
100 100 100 100 100 100 100 100 100 100 100 100 100 100 100 100 100 100 99 100 100 100 100 88 98 100 100 100 100 100 100 100 100 100 100 100 95 87 77 45 60 40 50 64 57 38 56 22 55 99 85 65 66 31
100 100 100 100 100 100 100 100 100 100 100 100 100 100 100 96 100 100 100 100 85 100 100 100 100 100 100 100 100 87 97 100 100 100 95 60 56 89 77 60 65 60 77 62 61 51 69 73 62 34 66 69 53 37
100 100 100 100 100 93 85 96 100 100 100 100 100 100 100 100 100 100 99 100 100 100 100 100 100 96 73 99 99 77 100 100 90 81 97 100 99 91 65 77 84 34 56 58 12 59 67 94 55 57 39 54 62 45
100 100 100 100 100 100 93 83 98 100 100 100 100 100 100 98 100 100 100 100 100 100 98 81 85 77 85 70 86 99 99 94 95 100 99 99 77 63 87 82 80 92 56 62 63 69 81 90 91 94 97 94 87 83
100 100 100 100 100 100 100 23 33 27 72 99 83 99 98 99 100 100 100 100 100 100 95 82 66 75 73 74 65 56 80 97 100 100 100 100 100 96 98 89 92 85 86 98 92 75 86 95 100 100 99 99 100 100
100 100 100 100 100 74 54 63 52 74 86 90 79 99 100 100 100 97 90 92 95 100 89 100 100 100 96 88 52 100 100 67 53 60 78 100 100 100 100 94 85 85 77 95 83 90 98 98 98 79 62 99 100 100
100 100 100 100 92 44 44 36 66 69 98 100 100 100 95 100 93 87 79 99 98 94 83 93 99 89 73 91 100 76 41 39 61 99 100 100 100 100 99 100 97 88 88 100 100 83 69 92 78 91 56 99 79 60
100 100 100 100 95 68 68 94 91 100 100 97 82 90 82 99 96 42 83 92 94 98 88 94 92 100 100 100 77 84 94 100 100 97 100 99 78 72 66 67 66 77 74 55 59 67 61 98 94 90 81 21 54 92
70 82 47 50 56 80 67 87 100 100 59 50 69 72 50 50 65 78 86 98 99 100 98 100 100 100 100 98 93 94 100 100 93 96 87 80 22 76 66 71 67 65 56 11 39 35 6 74 97 86 70 74 78 100
68 54 54 60 49 69 42 45 71 10 51 80 44 63 54 67 55 52 52 91 100 100 100 94 100 97 100 88 91 96 92 100 97 62 74 47 60 59 64 59 66 93 34 37 58 42 60 100 100 100 90 100 100 100
75 68 77 88 65 37 56 70 36 59 43 11 41 62 43 48 60 28 71 73 97 93 91 81 85 89 58 70 74 76 91 86 80 78 87 57 11 60 51 83 74 65 63 48 84 100 98 98 91 56 70 30 65 100
29 80 74 84 40 8 24 5 7 12 47 15 70 98 72 78 100 96 98 86 61 68 72 100 95 98 94 96 81 89 78 75 94 99 63 80 80 57 97 100 99 91 100 97 77 78 80 100 100 100 96 96 83 97
67 64 68 61 34 5 63 69 87 99 100 100 94 78 21 57 82 100 100 96 75 90 86 84 96 100 99 100 95 96 91 84 100 86 83 96 86 100 100 100 100 71 76 71 93 79 71 78 99 100 100 100 100 96
26 82 24 7 5 46 98 100 99 99 99 98 42 98 100 100 100 99 100 100 99 89 83 75 99 88 98 92 88 91 89 98 92 98 99 100 100 100 100 100 100 94 74 18 83 98 80 73 43 51 72 83 43 90
50 23 18 14 40 100 100 100 98 100 96 95 58 75 96 100 100 100 100 100 100 100 94 97 92 97 96 100 94 91 100 100 100 100 100 100 100 100 100 100 100 100 100 100 98 52 58 58 82 45 98 97 96 100
16 5 22 37 99 97 100 100 90 99 64 59 60 57 92 97 100 100 100 100 100 100 100 100 90 99 100 91 91 100 100 100 100 100 100 100 100 100 100 100 100 84 90 98 81 91 90 87 99 100 100 66 68 93
22 32 51 84 90 94 76 61 79 68 100 97 100 70 81 76 90 86 100 100 100 100 100 98 100 100 100 100 100 100 100 100 100 100 100 100 100 100 96 34 80 97 100 100 100 93 64 92 100 100 97 83 90 100
70 44 89 88 93 100 82 20 56 45 68 94 98 99 73 63 97 100 100 100 100 100 100 100 100 100 100 100 100 100 100 100 100 100 100 100 100 100 91 86 67 75 100 100 100 100 100 100 100 98 93 83 92 69

GFSWCAN_prec_cloud_099.txt.gz
Cloud_Cover
100 78 100 100 100 43 100 100 100 100 100 100 31 74 97 99 100 100 100 100 100 91 11 5 5 5 5 34 50 59 51 25 98 64 70 76 98 100 100 100 100 100 100 100 100 100 100 100 100 70 100 100 100 100
98 96 100 100 100 100 100 100 100 100 100 100 92 58 100 98 100 100 100 100 100 99 27 5 29 71 6 4 6 48 83 94 100 80 74 80 100 100 100 100 100 100 100 100 100 100 100 100 100 100 100 100 100 100
91 100 92 100 92 53 100 100 100 100 100 100 100 100 100 70 97 100 100 100 100 100 98 66 5 5 5 5 2 5 24 80 92 68 100 93 83 89 100 90 100 100 100 100 100 100 100 100 100 100 100 100 100 100
100 99 40 70 60 47 100 100 100 100 100 97 95 99 100 94 100 100 100 100 100 100 100 97 7 5 5 5 1 0 0 21 78 83 99 70 48 60 94 100 99 96 86 100 100 100 100 100 100 100 100 100 99 100
100 100 100 100 67 99 93 100 100 100 100 100 100 100 100 100 100 100 100 100 100 88 100 100 18 18 5 5 4 0 0 4 12 29 98 69 54 82 100 100 83 97 100 100 100 100 100 100 100 100 100 100 100 100
100 100 100 75 94 100 100 100 100 78 73 100 100 100 100 100 100 100 100 100 100 100 100 100 100 72 25 89 5 0 0 5 5 30 86 76 5 33 73 100 92 84 100 100 100 100 97 100 100 100 100 100 95 93
66 100 100 87 27 63 100 100 100 94 99 100 100 100 100 100 100 100 100 100 89 100 100 62 100 99 37 17 6 5 5 11 5 100 94 76 25 86 97 98 100 100 100 100 100 100 100 96 100 100 100 87 84 97
22 100 100 36 5 5 55 100 64 94 100 100 100 100 100 100 100 100 100 100 100 100 100 79 99 95 48 11 31 32 64 14 51 98 100 86 84 96 90 94 96 100 100 100 100 100 100 100 100 100 100 96 99 100
80 100 66 54 5 30 84 100 80 96 100 99 100 100 100 100 100 100 100 100 100 100 100 100 32 25 89 84 94 99 26 68 40 76 70 99 68 58 100 100 100 100 100 100 100 100 100 100 100 100 100 100 100 100
87 77 54 5 5 69 92 100 100 100 100 100 100 100 100 100 100 100 100 100 100 100 100 100 22 80 100 98 86 93 28 68 78 71 100 99 70 100 100 100 100 100 100 100 100 100 100 100 100 100 100 100 100 100
38 67 5 5 5 99 100 100 100 100 100 100 100 100 84 100 100 100 100 100 100 100 100 75 86 85 90 92 77 44 96 88 67 40 90 94 100 100 100 99 24 94 100 100 100 100 100 100 100 100 100 100 100 100
86 5 5 7 96 100 100 100 100 100 100 100 100 100 100 100 100 100 100 100 55 28 99 100 99 40 68 71 28 82 99 100 97 98 99 96 100 100 96 96 80 60 70 99 100 100 100 100 100 100 100 100 100 100
5 5 27 100 100 100 100 100 100 100 100 100 100 100 100 100 100 100 92 86 81 75 100 100 99 99 100 100 100 98 100 100 100 100 76 75 100 98 95 79 68 60 60 71 96 100 99 94 85 97 100 100 93 81
8 100 100 100 100 100 100 100 100 100 100 100 100 100 100 100 100 33 93 100 100 100 95 100 98 100 100 100 97 100 100 99 100 96 72 100 100 100 100 100 100 100 100 100 100 100 100 100 100 99 87 51 10 60
100 100 100 100 100 100 100 100 100 100 100 100 94 36 100 100 100 100 100 100 100 100 98 96 98 100 100 83 98 100 100 100 100 100 100 100 100 100 100 100 100 96 77 58 61 66 62 38 54 96 87 73 46 23
100 100 100 100 100 100 100 100 100 100 100 99 97 93 100 100 100 100 100 100 100 91 93 93 100 100 98 99 99 100 100 100 100 100 100 100 100 100 92 65 77 55 37 57 55 38 55 16 20 90 75 54 15 5
100 100 100 100 100 100 100 100 100 100 100 100 100 100 100 80 89 78 100 100 99 100 100 100 100 97 100 100 100 100 100 100 100 100 100 100 89 87 97 85 53 23 42 56 63 57 57 72 60 70 56 66 53 50
100 100 100 100 100 100 100 100 100 100 100 100 100 100 98 90 95 100 100 100 100 100 100 100 100 100 100 100 100 100 100 100 99 94 100 88 64 49 33 39 43 69 74 63 13 33 59 64 62 44 51 64 79 85
100 100 100 100 100 100 90 76 93 99 95 94 100 100 100 100 100 100 100 100 100 100 100 100 100 100 100 100 94 99 99 95 96 99 100 86 42 45 66 75 90 52 45 52 37 28 60 79 93 100 99 99 100 100
100 100 100 100 100 99 89 100 100 100 100 100 100 100 100 100 100 100 100 100 100 100 100 100 92 82 65 68 77 97 100 100 76 99 100 100 99 59 66 82 80 62 63 88 88 84 100 100 100 96 87 96 100 100
100 100 100 100 100 100 100 99 82 98 100 100 100 100 100 100 100 100 100 100 100 97 71 89 98 100 97 83 100 91 74 62 21 16 66 99 100 100 100 100 93 98 83 99 100 98 97 100 83 61 11 66 99 100
100 100 100 99 100 100 100 99 100 100 100 100 99 100 95 100 100 77 44 60 73 89 69 95 100 98 98 85 90 99 86 69 67 67 82 100 100 100 100 99 100 99 94 98 96 77 79 92 60 75 13 83 88 84
100 100 100 100 100 81 100 100 100 100 100 100 100 76 72 64 74 45 85 90 88 98 88 93 91 100 100 100 98 84 82 95 71 93 100 92 88 63 74 59 68 81 95 80 62 22 6 87 81 75 45 58 79 94
100 100 100 96 78 94 100 100 100 100 100 100 79 44 8 35 28 81 82 86 97 100 100 100 100 100 100 100 100 92 78 68 98 100 94 73 63 56 15 60 88 26 43 50 76 48 10 92 98 92 67 48 39 69
100 98 100 100 89 88 81 99 100 100 92 62 43 98 72 12 24 25 26 96 100 100 100 100 99 100 100 100 100 87 97 100 100 94 69 66 50 80 95 98 40 52 30 69 100 14 5 67 85 75 76 100 90 94
97 91 68 83 69 69 100 100 99 68 34 61 46 87 76 14 36 25 6 82 99 94 87 88 96 100 100 100 90 100 100 100 93 63 64 71 99 96 62 100 83 52 69 98 97 64 75 72 98 85 74 43 68 62
65 91 84 94 63 14 43 50 25 9 25 38 96 98 69 74 55 88 82 83 60 59 65 96 100 100 100 100 100 96 80 78 86 79 83 97 99 90 99 100 86 100 98 100 71 62 70 93 98 100 95 65 96 70
68 31 30 54 37 17 72 59 92 98 96 100 88 87 45 42 74 99 100 98 85 68 88 100 100 100 100 100 88 73 80 100 100 98 100 100 100 100 100 100 100 100 100 100 46 68 67 68 76 80 83 91 99 100
32 23 22 49 5 44 98 99 99 99 98 96 18 100 100 99 98 100 99 100 100 100 95 100 100 100 100 80 86 98 100 100 100 100 100 100 100 100 100 100 100 100 100 92 92 80 25 46 19 58 76 84 80 97
27 11 25 29 47 100 99 100 98 100 96 96 51 73 93 100 100 100 100 100 99 100 100 100 99 100 99 100 99 100 100 100 100 100 100 100 100 100 100 100 100 100 100 90 90 61 56 30 45 35 72 92 98 96
21 5 22 38 96 100 100 100 97 92 25 53 69 56 87 98 100 100 100 100 100 100 100 100 99 98 100 100 100 100 100 100 100 100 100 100 100 100 100 100 100 100 95 61 41 16 24 12 72 69 42 9 11 62
5 65 55 90 82 92 76 60 96 82 100 88 98 84 81 93 93 100 100 100 100 100 100 100 100 100 100 100 100 100 100 100 100 100 100 100 100 100 100 100 100 100 95 100 98 82 68 83 91 92 84 72 70 42
76 59 91 90 97 100 94 20 50 46 69 90 100 100 77 51 79 94 100 100 100 100 100 100 100 100 100 100 100 100 100 100 100 100 100 100 100 100 100 100 100 68 68 97 100 99 96 91 75 74 25 8 5 5

GFSWCAN_prec_cloud_102.txt.gz
Cloud_Cover
100 100 100 100 100 100 100 100 100 100 100 100 99 91 98 17 84 98 100 100 100 66 66 8 5 38 83 74 8 6 72 70 99 100 100 100 100 98 96 75 100 100 100 98 100 100 100 100 92 100 100 100 100 100
100 100 100 100 100 100 100 100 100 100 97 100 100 99 6 20 100 100 100 100 100 100 96 10 5 5 5 6 18 37 49 86 97 100 100 100 100 94 96 100 98 100 99 98 94 100 100 100 100 100 100 100 100 100
100 100 100 100 100 100 100 99 100 86 97 100 100 97 5 43 100 100 100 100 100 100 98 93 5 5 5 2 5 5 10 36 83 47 100 100 100 80 100 100 100 100 100 100 100 100 100 100 100 100 100 100 100 100
100 100 79 63 94 100 18 5 98 100 100 100 76 100 51 25 14 97 100 100 100 100 94 26 5 5 5 4 3 5 15 47 97 94 100 90 98 63 98 95 95 100 99 100 100 100 100 100 100 100 100 100 100 99
100 100 100 89 5 87 87 30 100 100 100 99 100 75 100 98 89 69 100 100 100 98 97 58 5 5 5 5 4 5 5 5 5 78 94 100 77 84 60 53 98 80 100 100 100 100 100 100 100 100 99 100 87 99
100 100 100 95 99 48 8 98 100 100 80 97 100 100 100 100 100 100 100 100 100 100 100 65 10 22 5 5 5 5 5 11 28 100 100 88 60 64 92 96 100 100 100 100 100 96 92 97 100 100 100 100 98 90
12 81 100 98 100 76 100 54 98 100 51 79 100 100 100 100 100 100 98 99 88 100 100 77 94 66 35 5 27 54 27 94 72 85 15 70 99 72 60 92 100 100 100 100 94 97 100 100 100 100 100 100 86 78
5 14 98 100 100 97 17 16 99 100 100 100 100 100 100 100 100 100 98 100 100 100 100 75 64 70 94 100 97 46 78 62 75 83 71 54 78 78 100 100 100 100 92 95 100 89 100 100 100 100 100 100 100 100
5 5 44 100 100 99 20 5 100 100 22 100 100 100 100 100 100 100 100 100 100 100 100 100 64 95 53 100 100 98 100 94 80 76 83 64 92 84 100 79 96 95 86 100 100 100 100 100 100 99 100 100 100 100
5 77 5 100 98 89 7 5 54 98 66 85 100 100 100 100 100 100 100 100 100 100 100 100 31 94 99 100 100 100 63 100 100 77 100 88 92 94 94 87 96 86 100 100 100 100 100 100 100 100 100 100 100 100
5 5 10 93 100 94 8 73 100 100 100 100 100 100 100 100 100 100 100 100 100 100 100 70 13 68 33 76 100 85 99 100 100 98 99 100 92 100 100 98 63 67 62 62 79 85 100 97 100 98 100 100 100 100
8 5 96 99 63 5 28 100 100 100 100 100 100 100 100 100 100 100 88 99 97 56 93 100 96 95 66 51 76 85 93 88 100 86 91 100 100 100 100 98 82 66 70 70 92 100 100 100 98 100 100 100 99 100
70 69 98 100 80 5 46 100 100 100 100 100 100 100 100 100 100 93 98 88 76 84 100 98 97 96 93 78 100 100 100 100 86 100 92 96 100 100 98 96 75 97 94 88 100 100 100 100 99 99 100 100 100 100
30 100 100 47 21 100 100 100 100 100 100 100 100 100 97 100 49 8 67 99 17 55 100 89 98 99 98 100 98 100 93 93 100 100 75 100 100 100 100 100 100 100 100 100 100 100 100 100 100 91 90 71 58 67
97 38 19 100 100 100 100 100 100 100 100 100 100 86 64 49 100 100 100 94 55 100 95 91 96 99 100 100 96 97 100 99 98 89 92 100 100 100 100 100 99 93 98 100 100 96 98 98 95 100 100 100 87 92
32 90 100 100 100 100 100 100 100 100 100 100 100 100 100 100 100 100 98 100 94 88 78 26 46 100 66 80 94 84 97 100 100 100 100 100 100 100 100 100 100 90 91 100 100 95 94 97 100 100 100 93 81 62
100 100 100 100 100 100 100 100 100 100 100 100 100 100 100 99 100 100 100 89 100 94 95 100 100 100 97 100 99 100 100 100 100 100 98 95 71 81 80 78 85 92 100 100 100 100 99 99 97 100 100 98 95 62
100 100 100 100 100 100 100 100 100 97 99 100 100 100 100 100 96 91 100 100 93 99 86 99 100 100 100 100 100 100 99 98 100 99 96 97 58 58 45 64 86 84 84 92 80 89 83 99 94 95 84 100 83 100
100 100 100 100 100 100 100 100 94 78 100 100 100 99 98 99 97 93 100 100 86 56 77 96 100 100 100 100 93 96 100 99 93 96 98 94 70 68 79 70 63 74 68 60 83 96 99 100 97 100 100 100 100 100
100 100 100 100 100 100 100 99 83 86 91 98 94 100 98 95 100 100 100 100 100 99 100 100 100 100 96 90 75 94 96 97 80 96 100 100 62 67 94 100 96 92 94 91 97 81 100 100 100 100 100 96 100 100
100 99 100 100 100 100 49 91 99 81 88 98 100 98 100 100 100 97 100 100 100 100 100 100 99 100 85 95 100 100 99 60 91 66 98 100 100 100 100 100 100 100 100 100 100 98 75 100 100 100 100 100 100 100
100 100 100 100 95 98 92 99 84 76 88 100 100 100 100 100 100 100 98 97 89 77 73 84 97 92 95 100 97 83 95 100 100 92 100 100 100 100 100 100 100 100 100 100 100 100 100 100 100 100 100 100 74 100
100 100 100 100 100 100 100 100 100 100 100 94 99 99 93 97 99 75 98 66 95 100 92 91 94 88 84 97 100 100 100 96 74 100 100 100 100 100 100 100 100 99 100 100 100 100 100 50 58 96 100 95 100 100
100 100 100 100 100 100 100 100 100 100 100 100 100 98 90 67 29 59 47 85 100 99 100 100 100 100 100 100 96 100 94 92 100 100 100 89 92 90 100 94 76 87 58 93 98 97 74 100 55 98 100 100 100 100
100 100 100 100 100 91 72 71 97 98 100 98 48 75 99 42 35 8 29 92 100 100 100 100 100 100 100 100 100 100 100 98 100 100 100 97 73 70 90 59 55 64 62 97 99 100 100 92 100 100 100 100 100 100
100 100 100 97 100 79 55 52 12 61 29 47 79 94 88 76 24 36 35 99 100 100 99 100 100 100 100 100 98 77 85 100 100 98 100 96 60 84 88 75 92 96 87 88 100 100 100 100 100 100 100 96 64 52
96 98 99 99 100 100 73 51 14 26 20 80 96 100 65 27 5 79 100 100 100 99 100 100 68 53 68 100 99 97 100 83 86 83 100 93 100 100 97 100 99 100 92 100 100 100 94 97 100 100 100 100 100 100
73 60 93 66 49 51 60 51 69 87 99 97 97 80 15 9 54 100 100 100 100 98 94 79 28 59 74 98 98 100 91 94 83 97 100 100 100 100 100 100 100 100 100 100 100 99 78 100 100 100 100 100 100 100
35 5 5 6 30 84 100 100 100 100 100 96 79 98 100 100 100 100 100 100 100 100 67 56 100 90 82 86 70 75 91 100 95 100 100 100 100 100 100 100 100 100 100 100 100 86 93 98 99 100 100 100 100 100
8 20 5 6 40 97 100 100 100 100 100 98 89 98 99 100 100 100 100 100 100 99 98 85 94 51 91 91 100 100 100 100 100 100 100 100 100 100 100 100 100 100 100 100 100 86 51 78 88 98 92 99 99 93
18 6 34 91 100 100 100 100 100 93 98 95 99 96 98 100 100 100 100 100 100 100 100 100 100 100 100 100 100 100 100 100 100 100 100 100 100 100 100 100 100 100 100 100 98 87 78 67 67 73 81 74 71 49
37 45 53 67 100 100 100 82 95 100 100 100 100 99 100 99 99 100 100 100 100 100 100 100 100 100 100 100 100 100 100 100 100 100 100 100 100 100 100 100 100 100 100 100 93 94 79 70 67 64 66 22 7 5
72 76 92 95 100 100 100 55 56 99 96 100 100 97 98 99 100 100 100 100 100 100 100 100 100 100 100 100 100 100 100 100 100 100 100 100 100 100 100 100 100 100 100 97 51 49 7 5 5 5 5 5 5 11

GFSWCAN_prec_cloud_105.txt.gz
Cloud_Cover
100 100 100 100 100 100 100 100 100 100 100 100 100 100 100 100 100 100 98 47 84 60 78 87 90 100 98 98 96 40 86 93 100 88 100 100 100 100 100 100 100 100 100 100 93 89 98 100 100 100 100 100 100 100
100 100 100 100 100 100 100 100 100 100 100 100 100 100 100 100 100 71 93 85 97 100 35 24 13 7 8 23 91 95 94 97 99 96 95 100 100 100 100 100 100 97 100 100 100 100 100 100 100 100 100 100 100 100
100 100 100 100 100 100 100 100 100 100 100 100 100 100 100 100 65 41 100 100 100 100 59 38 82 28 12 5 15 88 95 67 84 77 100 100 100 94 100 100 91 97 100 100 99 100 100 100 100 100 100 100 100 100
100 100 100 100 100 100 100 100 100 100 100 100 100 100 98 45 51 100 100 100 100 100 100 85 1 5 6 5 5 5 63 49 49 85 100 100 100 85 99 98 100 96 96 100 100 100 100 100 100 100 100 100 98 88
100 100 100 100 100 100 100 100 100 100 100 100 92 32 26 45 29 50 89 95 100 75 100 97 29 8 5 5 5 5 5 5 40 98 67 100 100 100 96 53 96 72 94 100 100 100 99 100 100 98 98 83 78 68
100 100 100 100 100 98 99 100 99 94 100 99 6 5 100 20 78 89 100 100 98 100 100 76 74 25 8 5 5 16 67 33 59 91 79 80 89 84 91 99 97 100 100 100 100 100 100 94 100 99 100 98 90 98
100 100 100 100 100 100 79 79 66 100 100 82 5 63 87 98 100 100 99 98 100 100 100 81 97 66 45 60 57 88 100 90 98 100 97 90 83 23 81 98 100 100 100 100 100 100 100 99 99 99 93 99 99 100
71 94 100 100 100 99 100 66 79 72 100 18 32 100 100 100 100 99 99 49 100 100 100 89 79 89 73 96 100 100 100 100 100 100 80 37 56 88 98 98 100 100 100 100 98 100 90 90 100 100 89 97 99 95
80 14 88 100 100 100 100 74 100 90 94 10 99 100 100 100 100 100 100 100 100 60 100 99 75 97 82 84 97 87 100 76 85 89 91 80 99 93 100 100 98 99 99 98 100 99 100 79 100 100 100 100 100 100
5 56 6 95 95 100 100 30 96 99 100 100 100 100 100 100 100 100 100 100 100 100 99 98 73 100 99 96 76 77 97 99 100 88 94 81 98 46 76 82 88 81 62 100 99 100 100 100 100 100 100 100 100 100
5 4 5 34 100 100 100 24 4 78 98 94 100 100 100 100 100 100 100 100 100 100 98 41 41 75 49 98 77 76 73 77 82 85 87 100 80 99 73 82 81 61 5 64 27 85 92 97 99 100 100 100 100 99
4 5 5 5 95 100 91 5 20 66 54 79 100 100 100 100 100 97 94 96 84 66 94 96 54 100 72 93 81 57 79 84 98 73 92 97 93 86 98 96 94 94 64 72 73 75 85 98 94 98 99 94 96 99
16 5 9 10 100 100 82 62 100 93 99 100 100 100 100 100 98 95 98 100 100 100 96 77 75 62 86 82 96 98 98 81 40 100 94 89 100 100 100 100 93 96 92 94 90 98 98 100 100 100 100 100 100 100
5 5 5 38 100 100 17 85 100 100 100 100 100 100 99 87 35 98 100 90 98 97 19 97 98 89 100 90 96 100 82 58 98 100 88 93 100 100 100 100 100 99 95 96 90 85 95 100 100 96 98 86 85 76
5 10 44 99 100 100 30 94 100 100 100 100 100 100 57 99 100 100 100 68 55 17 20 97 99 100 100 100 100 99 98 100 93 90 100 100 100 100 97 97 100 100 100 100 100 100 100 97 98 100 100 100 82 71
10 22 92 100 100 50 100 100 100 100 100 100 100 99 100 100 100 98 100 95 62 78 83 70 47 100 74 67 100 98 100 100 100 100 100 100 100 100 100 100 100 100 100 100 100 99 100 100 100 100 100 98 97 84
36 99 98 100 100 100 100 100 100 100 100 100 100 100 100 99 100 100 95 96 100 48 86 81 51 71 98 100 100 100 100 100 100 100 100 100 97 100 100 100 100 100 100 100 100 100 100 100 100 100 100 100 100 97
90 88 100 100 100 100 100 100 100 100 100 100 100 100 99 100 100 100 100 100 86 100 85 95 92 100 100 100 100 100 100 100 100 100 100 100 99 100 100 96 100 100 100 100 100 100 99 100 98 100 89 100 99 96
99 100 100 100 100 100 100 100 100 100 100 100 100 100 100 91 98 100 100 86 85 92 97 99 100 100 100 100 100 100 100 100 100 100 99 99 100 100 100 99 100 100 100 99 100 97 100 100 100 100 100 99 100 100
100 100 100 100 100 100 100 100 100 100 100 100 100 100 100 100 100 100 100 100 92 78 47 99 100 100 100 100 97 99 100 100 91 97 100 100 100 100 100 99 100 100 100 100 99 74 99 100 100 100 100 89 99 100
100 100 100 100 100 100 100 100 100 99 100 100 100 100 100 100 100 100 100 100 82 91 100 93 100 100 89 98 100 100 99 93 99 100 92 100 100 100 100 100 100 100 100 100 100 100 76 100 100 100 100 100 100 100
99 98 100 100 100 100 100 100 88 98 99 100 100 100 100 100 100 97 66 94 97 97 77 80 91 91 94 92 89 98 91 100 100 93 100 100 100 100 100 100 100 100 100 100 100 100 100 100 100 100 100 100 74 100
100 100 100 100 96 80 100 100 100 100 100 99 93 92 100 98 92 80 100 88 98 78 78 78 88 99 95 100 96 83 97 100 100 100 100 100 100 100 100 99 98 100 100 100 93 100 100 76 56 67 100 98 100 100
100 100 100 100 100 100 90 94 100 100 100 100 100 86 95 88 70 100 97 89 99 95 94 91 96 95 80 71 71 96 100 100 100 100 100 100 99 100 96 83 91 87 94 85 96 96 100 100 73 96 100 100 100 100
100 100 100 100 100 100 100 100 100 100 100 100 100 82 75 22 90 80 77 98 97 95 98 98 94 63 48 90 100 100 100 100 100 100 100 100 100 96 84 95 100 91 31 97 100 100 100 100 100 100 100 100 100 100
100 100 100 100 100 100 100 96 97 98 100 98 100 90 77 92 80 79 81 100 100 100 100 97 96 99 90 100 100 100 100 100 100 100 100 96 100 97 100 100 100 98 68 92 100 100 100 100 100 100 100 100 74 55
100 100 100 100 100 100 100 100 88 79 66 72 90 99 89 91 94 92 96 100 100 100 100 100 100 100 86 83 87 100 100 100 100 96 100 100 100 100 100 100 100 100 100 100 100 100 100 99 100 100 100 100 100 100
100 100 100 89 78 79 91 80 81 80 93 89 78 93 87 84 98 100 100 86 100 100 100 100 100 100 97 98 96 96 100 100 100 100 100 100 100 100 100 100 100 100 95 100 100 100 100 100 100 100 100 100 100 100
94 95 100 56 61 96 100 98 98 98 99 100 98 98 95 100 100 100 100 100 100 98 97 100 100 100 100 100 93 93 100 100 100 100 100 100 100 100 100 100 100 100 100 100 100 100 100 100 100 100 100 100 100 100
85 87 21 57 82 100 100 100 100 100 100 97 96 96 96 100 100 100 100 100 100 100 100 100 100 100 97 100 100 100 100 100 100 100 100 100 100 100 100 100 100 100 100 100 100 100 100 100 100 100 94 100 100 99
85 90 94 100 100 100 100 100 100 100 100 100 100 97 99 100 100 100 100 100 100 100 100 100 100 100 100 100 100 100 100 100 100 100 100 100 100 100 100 100 100 100 100 100 100 100 100 100 100 100 100 100 99 85
97 91 57 97 100 100 100 100 100 100 100 100 100 96 100 100 100 100 100 100 100 100 100 100 100 100 100 100 100 100 100 100 100 100 100 100 100 100 100 100 100 100 100 100 100 100 100 100 95 99 100 100 98 71
96 97 98 99 100 100 100 97 91 100 100 100 100 100 100 100 100 100 100 100 100 100 100 100 100 100 100 100 100 100 100 100 100 100 100 100 100 100 100 100 100 100 100 100 100 100 100 68 28 48 61 91 98 99

GFSWCAN_prec_cloud_108.txt.gz
Cloud_Cover
100 100 100 100 100 100 100 100 100 100 100 100 100 100 100 100 91 67 50 62 87 97 58 86 63 75 57 82 95 49 17 12 100 100 100 100 100 100 100 100 100 100 100 100 100 100 100 100 100 100 100 100 100 100
100 100 100 100 100 100 100 100 100 100 100 100 100 100 100 100 100 100 100 100 100 100 93 5 3 5 7 10 87 39 98 89 100 100 100 100 100 100 100 100 100 100 100 100 100 100 100 100 100 100 100 100 100 100
100 100 100 100 100 100 100 100 100 100 100 100 100 100 100 100 100 100 100 100 100 100 20 10 60 22 5 21 17 88 82 20 98 100 97 94 100 100 100 100 100 100 98 100 100 100 100 100 100 100 100 100 100 100
100 100 100 100 100 100 100 100 100 100 100 100 100 100 100 100 100 100 100 100 100 100 100 71 8 9 2 4 5 6 51 72 17 24 88 96 97 98 100 100 100 100 98 98 95 100 99 100 100 100 100 84 92 100
100 100 100 100 100 100 100 100 100 100 100 100 100 100 100 100 100 100 100 100 86 74 100 75 57 70 5 5 5 5 9 5 20 43 41 77 65 63 85 80 100 100 100 100 100 100 94 100 100 100 95 67 10 63
100 100 100 100 100 100 100 100 100 100 100 100 100 100 100 100 100 100 100 40 80 80 100 58 82 49 28 10 8 46 99 67 64 72 45 27 23 14 56 81 100 100 100 100 78 100 84 100 100 97 67 37 16 53
100 100 100 100 100 100 100 100 100 100 100 100 100 100 100 100 96 84 97 100 95 100 100 84 96 31 34 100 100 100 98 77 10 38 16 79 96 6 29 99 89 100 100 100 100 100 100 100 97 97 96 79 58 81
100 100 100 100 100 100 100 100 100 100 100 100 100 100 100 100 78 69 97 100 100 100 100 100 86 52 20 91 100 84 62 74 54 47 22 71 61 6 88 99 84 92 100 100 100 100 100 100 68 90 98 90 94 95
100 100 100 100 95 100 100 100 100 100 100 100 100 98 100 100 100 100 100 100 100 100 88 100 96 52 85 80 44 51 82 95 48 65 76 37 59 71 81 41 70 84 100 99 100 100 78 60 14 34 64 90 99 100
100 100 85 73 100 100 100 63 66 100 98 7 78 100 100 100 99 100 100 100 100 100 88 86 43 83 19 88 81 100 97 35 99 58 68 65 62 33 98 100 94 77 83 98 100 100 82 76 94 86 75 79 94 99
100 100 100 100 100 100 100 44 91 100 65 81 100 100 80 98 100 100 100 100 100 99 100 44 18 95 21 48 87 96 30 43 90 46 73 79 93 100 84 45 10 5 9 42 49 55 20 86 58 55 87 100 98 97
92 90 96 99 93 98 89 90 59 78 64 18 79 99 100 100 100 100 100 100 88 99 100 86 25 69 57 28 53 69 27 40 80 46 67 78 96 98 100 93 95 92 41 5 5 5 15 7 28 64 91 97 100 100
100 87 25 15 9 100 96 98 5 57 31 40 100 100 100 100 100 89 99 95 100 100 100 90 63 69 36 15 63 92 75 62 7 93 92 91 87 97 95 96 100 97 99 100 100 99 78 67 67 86 100 100 100 85
5 15 85 98 96 94 100 63 12 100 100 100 100 100 92 81 61 38 86 100 100 100 72 6 69 68 24 67 80 100 88 61 92 99 63 98 98 94 98 100 100 93 76 23 49 36 58 95 61 5 6 5 5 5
5 3 4 32 100 100 100 15 84 100 100 100 99 100 40 34 93 100 100 100 100 44 8 56 94 74 100 100 100 98 81 96 81 99 100 100 91 100 88 59 55 88 8 67 95 35 5 5 35 62 16 18 5 5
82 6 8 72 100 100 100 86 100 100 100 93 97 87 99 98 100 100 100 100 88 5 5 20 58 96 100 97 100 98 90 87 100 99 100 96 86 93 93 94 83 86 96 100 83 68 62 5 53 84 45 9 5 5
13 90 16 95 100 100 100 100 100 100 97 80 97 70 98 98 100 100 100 95 82 8 74 7 41 67 30 78 100 84 98 100 99 96 100 100 100 100 90 78 92 98 100 99 100 98 96 98 75 99 96 65 62 32
73 66 78 100 100 100 99 100 38 22 81 87 100 100 100 100 100 100 100 48 27 41 19 60 54 55 70 72 73 100 100 100 100 100 100 100 97 87 100 100 97 98 94 100 100 100 99 100 100 100 53 77 8 23
96 57 100 96 44 84 86 100 90 100 100 100 100 100 100 100 100 100 88 66 100 92 100 98 82 58 52 100 100 100 94 90 88 98 100 98 93 100 99 91 96 96 100 100 100 100 100 91 90 81 78 97 96 92
100 100 98 92 100 100 100 100 100 100 100 100 100 100 100 99 100 100 81 100 100 88 100 16 68 100 100 100 94 93 95 88 80 97 100 100 100 100 100 88 96 97 100 100 99 99 100 100 88 88 59 29 5 50
100 100 100 100 100 100 100 100 100 100 100 100 97 100 100 100 100 100 100 88 100 100 94 97 100 92 88 96 100 100 91 86 84 65 91 100 100 100 100 100 75 99 99 89 96 89 53 38 98 93 48 59 72 5
100 100 100 100 100 100 100 100 100 100 100 100 100 100 100 100 100 100 84 100 99 97 99 97 81 75 95 82 95 97 77 100 100 78 90 100 100 100 100 99 99 91 88 89 80 96 93 99 37 51 42 93 76 64
100 100 100 100 100 99 100 100 100 100 100 100 100 100 100 100 93 29 100 100 92 47 15 21 15 81 94 97 93 83 90 92 64 94 100 100 99 92 91 100 100 92 86 90 73 84 78 76 64 50 60 68 79 98
100 100 100 100 100 100 100 100 96 100 100 100 100 100 100 100 76 84 96 99 80 84 76 76 81 84 95 97 93 78 79 97 100 100 100 90 98 99 100 100 100 100 98 94 91 88 72 89 52 84 93 100 80 98
100 100 100 100 100 100 100 100 100 100 100 100 100 100 98 74 99 95 100 97 96 95 99 96 96 98 77 70 65 85 100 100 100 100 100 100 100 100 100 100 100 100 100 99 100 100 100 99 95 100 100 100 100 100
100 100 100 100 100 98 100 100 100 100 100 100 100 100 86 99 100 98 99 100 100 100 100 89 90 94 97 87 96 97 100 100 100 100 100 100 100 100 100 100 100 100 100 100 100 100 100 100 100 100 100 100 100 100
100 100 100 100 100 100 100 100 100 100 100 100 100 100 99 100 100 99 100 100 100 99 100 100 99 100 100 97 96 99 98 88 98 100 100 100 100 100 100 100 100 100 100 100 100 100 100 100 100 100 100 100 100 100
100 100 100 100 100 100 100 100 100 100 100 87 93 95 100 99 100 100 100 98 100 99 100 100 100 100 91 88 86 94 100 100 100 100 100 100 100 100 100 100 100 100 100 100 100 100 100 100 100 100 100 100 100 100
100 100 100 100 100 100 100 100 100 98 99 96 100 98 100 100 100 100 100 100 100 100 100 100 100 96 99 100 100 100 100 100 100 100 100 100 100 100 100 100 100 100 100 100 100 100 100 100 100 100 100 100 100 84
100 100 100 100 95 100 100 100 100 97 100 90 42 98 100 100 100 96 100 100 100 100 100 100 100 100 100 99 100 100 100 100 100 100 100 100 100 100 100 100 100 100 100 100 100 100 100 100 100 100 100 100 100 100
100 100 98 99 100 100 100 100 100 100 98 100 100 97 100 100 100 96 97 100 100 91 100 100 100 100 100 100 100 100 100 100 100 100 100 100 100 100 100 100 100 100 100 100 100 100 100 100 100 100 100 97 90 80
99 96 82 97 100 97 99 100 100 100 100 100 100 97 100 100 100 100 100 98 100 100 100 100 100 100 100 100 82 100 100 100 100 100 100 100 100 100 100 100 100 100 100 100 100 100 100 100 100 95 94 100 93 14
99 100 100 99 100 100 100 100 100 100 100 100 100 100 100 99 100 100 100 100 100 100 100 100 100 100 100 100 100 100 100 100 100 100 100 100 100 100 100 100 100 100 100 100 100 100 100 99 57 34 18 87 94 48

GFSWCAN_prec_cloud_111.txt.gz
Cloud_Cover
100 100 100 100 100 100 100 100 100 100 100 100 100 100 100 100 100 92 36 28 26 36 18 5 5 5 5 5 6 0 3 6 2 20 50 99 100 100 99 100 100 100 100 100 100 100 100 100 100 100 100 100 100 100
100 100 100 100 100 100 100 100 100 100 100 100 100 100 100 100 100 100 100 75 54 74 26 11 17 5 6 1 5 5 64 46 5 11 99 88 99 100 100 100 100 100 100 100 100 100 100 100 100 100 100 100 100 100
100 100 100 100 100 100 100 100 100 100 100 100 100 100 100 99 98 100 100 54 100 92 27 99 37 51 35 4 5 31 67 6 5 17 80 100 100 100 100 100 99 100 100 100 100 100 100 100 100 100 100 100 100 100
100 100 100 100 100 100 100 100 100 100 100 100 100 100 100 100 96 100 95 100 100 100 56 79 96 89 5 0 5 4 5 5 2 5 90 97 73 100 100 100 100 93 100 100 100 100 98 100 100 99 99 97 100 100
100 100 100 100 100 100 100 100 100 100 100 100 100 100 100 100 100 100 100 100 100 86 100 100 100 62 5 1 5 5 5 5 0 5 17 6 12 92 100 100 100 99 98 100 97 100 99 99 100 88 76 70 89 96
100 100 100 100 100 100 100 100 100 100 100 100 100 100 100 100 100 100 100 100 100 100 100 100 27 41 38 5 5 5 49 5 5 5 5 3 16 8 48 86 99 100 100 100 83 100 100 100 83 88 65 11 67 73
100 100 100 100 100 100 100 100 100 100 100 100 100 100 100 100 100 100 100 100 100 100 100 58 75 48 8 100 90 32 5 5 5 4 1 7 11 6 58 41 81 100 100 100 100 100 100 100 99 99 96 92 75 34
100 100 100 100 100 100 100 100 100 100 100 100 100 100 100 100 100 100 100 100 100 100 98 85 56 36 5 5 25 5 5 5 5 5 13 4 25 5 52 78 100 84 100 100 100 100 100 99 88 74 64 89 62 55
100 100 100 100 100 100 100 100 100 100 100 100 100 100 100 100 100 100 100 100 100 86 85 100 89 76 5 86 17 54 42 95 9 38 5 5 5 93 51 44 5 33 43 33 94 24 12 5 5 5 5 5 5 13
100 100 100 100 100 100 100 100 100 100 100 100 100 100 100 100 100 100 100 100 100 100 88 97 20 39 30 43 18 100 93 41 58 26 7 54 62 99 99 85 50 33 22 7 6 5 5 5 5 5 5 5 5 5
100 100 100 100 100 100 100 100 100 100 100 100 100 100 100 100 100 100 100 100 100 100 53 79 5 11 5 5 22 72 6 18 23 18 33 32 60 100 98 98 98 85 12 6 16 5 5 5 5 5 5 5 5 16
100 100 100 100 100 100 100 100 100 100 100 100 100 100 100 100 100 100 95 98 53 5 58 5 5 8 27 5 23 32 5 5 5 58 27 20 92 100 99 94 88 14 5 5 7 62 79 96 48 9 5 5 10 33
100 100 100 100 100 100 100 100 98 81 86 97 100 100 100 100 100 96 99 72 17 100 41 21 58 75 67 35 23 80 76 17 11 73 91 72 87 100 100 95 42 28 81 83 36 29 26 12 5 5 37 6 14 7
100 100 100 100 100 100 100 100 100 96 86 84 100 100 100 97 39 6 5 16 29 81 100 100 35 5 66 29 67 97 66 47 95 87 29 87 100 98 92 68 55 16 5 5 7 5 5 5 30 7 11 5 5 5
100 100 100 100 100 100 100 100 68 96 100 100 100 85 69 73 85 80 100 87 100 36 78 78 6 9 76 97 100 88 99 98 39 99 89 47 96 47 38 50 12 5 13 51 8 9 59 57 49 81 58 32 46 19
99 100 100 100 100 100 100 100 89 100 100 99 90 100 90 100 100 100 94 100 100 71 5 5 13 83 100 100 100 100 96 6 96 98 63 87 99 54 73 18 5 5 5 14 8 16 13 25 45 78 79 82 40 57
3 46 100 100 100 100 100 96 100 100 100 83 100 95 100 90 100 100 100 100 100 97 59 5 5 12 17 91 100 82 8 86 91 100 100 100 66 66 6 5 5 38 19 9 34 43 61 98 100 100 61 96 48 68
5 5 9 100 100 100 100 96 100 100 54 67 100 100 100 93 100 100 100 100 100 100 5 30 52 6 20 5 5 76 99 88 82 89 86 92 63 50 39 39 29 90 100 90 98 100 93 82 73 90 90 94 100 100
30 11 99 100 100 78 94 96 98 100 61 82 36 38 100 100 100 100 100 91 100 96 68 10 47 48 56 87 100 93 100 75 92 98 89 87 59 37 38 92 100 100 100 100 90 68 60 90 100 96 98 97 96 99
98 98 100 100 99 100 60 65 27 37 7 6 11 81 100 100 100 98 100 99 100 100 100 86 41 94 100 91 98 92 95 37 59 96 100 98 41 58 100 100 100 100 100 98 100 100 99 100 100 45 34 41 37 53
99 100 100 100 88 100 70 69 59 65 100 100 100 100 100 100 91 93 84 100 100 100 100 45 48 95 84 75 58 96 82 43 60 67 48 99 94 100 100 100 100 100 100 100 98 59 65 99 100 71 49 61 26 24
99 98 100 100 100 100 100 100 100 100 100 100 100 100 100 100 100 99 98 100 100 100 99 40 9 6 62 61 22 68 79 57 12 27 36 92 100 100 100 90 100 100 100 100 100 100 95 97 65 79 62 72 83 82
100 100 100 100 100 100 100 100 100 100 100 96 97 94 99 100 96 91 99 96 90 87 56 61 18 28 26 5 8 73 62 82 81 67 100 100 88 65 99 100 100 100 100 100 100 100 100 66 88 100 100 100 100 100
96 100 100 100 100 100 68 99 100 100 100 92 99 100 95 97 100 99 98 83 20 7 5 7 5 27 47 66 45 31 71 77 97 75 100 98 95 100 100 100 100 100 100 100 100 98 89 100 100 100 100 100 100 100
100 85 99 89 91 89 62 88 100 100 98 94 100 100 100 84 100 100 96 100 79 73 53 82 68 5 23 67 75 95 84 51 56 86 100 100 100 100 100 100 100 100 100 100 100 100 100 100 100 100 100 100 100 100
96 98 100 100 100 99 100 100 100 100 100 99 98 100 100 100 96 100 97 97 99 99 100 100 93 78 57 41 74 100 86 57 83 100 100 100 100 100 100 100 100 100 100 100 100 100 100 100 100 100 100 100 100 100
100 100 100 100 100 100 100 100 100 100 98 100 100 100 100 100 100 96 100 100 100 100 100 100 99 94 99 100 74 72 100 100 100 100 100 100 100 100 100 100 100 100 100 100 100 100 100 100 100 100 100 100 100 100
100 100 100 100 100 100 100 100 100 100 100 100 95 100 100 96 96 90 81 100 100 88 100 100 100 100 95 94 100 100 100 100 100 100 100 100 100 100 100 100 100 100 100 100 100 100 100 100 100 100 100 100 100 100
100 100 100 100 100 100 100 100 100 100 100 100 100 100 100 95 96 83 100 100 100 95 100 100 100 100 100 100 99 100 100 100 100 100 100 100 100 100 100 100 100 100 100 100 100 100 100 100 100 100 100 100 100 100
100 100 100 100 100 100 100 100 100 100 95 89 84 55 90 100 100 100 100 99 100 100 100 100 100 100 100 98 99 98 100 100 100 100 100 99 100 100 100 100 100 100 100 100 100 100 100 100 100 100 100 100 100 84
100 100 100 100 100 100 100 100 100 100 100 99 44 5 76 90 100 99 88 95 98 96 100 100 100 100 100 100 100 100 100 100 100 94 100 100 100 100 100 100 100 100 100 100 100 100 100 100 100 100 100 93 43 75
100 100 100 100 89 97 97 100 100 81 87 54 95 27 93 78 77 99 100 100 100 98 100 92 100 100 100 100 100 100 100 100 78 99 100 100 100 100 100 100 100 100 100 100 100 100 100 100 78 76 33 5 5 19
100 100 100 100 77 97 77 95 96 98 100 100 100 100 100 66 90 95 100 100 100 100 100 100 100 100 100 100 100 100 100 100 100 100 100 100 100 100 100 100 100 100 100 100 100 100 89 42 38 21 40 65 36 8

GFSWCAN_prec_cloud_114.txt.gz
Cloud_Cover
100 100 100 100 100 100 100 100 100 100 100 100 100 100 100 100 100 100 100 100 100 87 90 34 5 4 6 4 5 1 3 4 4 11 17 26 92 99 99 100 100 100 100 100 100 100 92 52 79 99 100 100 100 100
100 100 100 100 100 100 100 100 100 100 100 100 100 100 100 100 100 100 100 100 100 100 99 9 5 8 5 5 3 46 82 49 6 37 78 41 99 98 95 100 100 100 100 100 100 100 100 96 100 100 100 100 100 100
100 100 100 100 100 100 100 100 100 100 100 100 100 100 100 100 100 100 100 100 100 100 24 12 6 5 5 5 4 5 6 5 5 5 72 83 84 100 100 100 100 100 100 100 100 100 100 100 100 100 100 100 100 100
100 100 100 100 100 100 100 100 100 100 100 100 100 100 100 100 100 100 100 100 100 40 37 84 17 27 7 5 4 4 2 4 0 4 29 84 72 100 100 100 88 41 100 100 100 100 100 100 100 100 100 100 100 100
100 100 100 100 100 100 100 100 100 100 100 100 100 100 100 100 100 100 95 100 24 6 62 43 62 70 5 5 5 3 1 0 0 4 5 5 21 17 95 100 100 99 64 99 99 100 100 100 100 100 100 100 32 8
100 100 100 100 100 100 100 100 100 100 100 100 100 100 100 100 100 100 100 97 79 34 61 70 22 53 52 5 5 5 14 5 5 5 4 0 5 5 47 96 100 100 100 100 100 100 100 100 93 85 22 5 24 5
100 100 100 100 100 100 100 100 100 100 100 100 100 100 100 100 100 100 98 100 65 82 86 80 61 90 99 71 100 58 29 5 5 0 3 0 7 5 36 81 97 100 100 100 100 100 84 99 30 99 5 53 47 5
100 100 100 100 100 100 100 100 100 100 100 100 100 100 100 100 100 100 100 99 100 100 100 100 64 9 5 2 5 5 5 5 5 4 5 4 5 5 44 64 100 100 100 100 100 100 99 88 55 22 5 5 5 5
100 100 100 100 100 100 100 100 100 100 100 100 100 100 100 100 100 100 100 100 100 99 100 100 52 58 5 95 21 55 40 47 17 35 5 33 5 56 30 8 10 43 83 97 98 100 97 96 64 10 5 5 5 5
100 100 100 100 100 100 100 100 100 100 100 100 100 100 100 100 100 100 100 100 100 100 100 100 64 74 23 6 11 69 50 6 5 58 7 56 79 85 98 93 48 5 5 24 5 5 5 5 5 5 5 5 5 5
100 100 100 100 100 100 100 100 100 100 100 100 100 100 100 100 100 100 100 100 100 100 100 100 5 7 5 6 5 5 10 30 35 65 62 40 86 49 100 100 54 10 20 5 5 5 5 5 5 5 5 5 5 5
100 100 100 100 100 100 100 100 100 100 100 100 100 100 100 100 100 100 93 100 100 100 78 35 7 5 5 5 5 32 5 6 24 82 82 59 71 72 100 99 95 90 92 72 5 5 5 5 5 5 5 5 5 5
100 100 100 100 100 100 100 100 100 100 100 100 100 100 100 100 100 99 100 100 100 100 84 28 18 100 64 5 18 52 82 51 60 99 30 32 54 77 99 100 98 96 100 30 15 6 5 5 5 5 8 13 6 5
100 100 100 100 100 100 100 100 100 100 100 100 100 100 97 100 100 100 100 100 100 95 5 6 36 88 99 41 49 6 9 68 99 98 5 56 15 83 100 97 81 12 5 5 5 5 5 5 56 15 5 5 5 5
100 100 100 100 100 100 100 100 100 100 100 100 100 100 100 100 100 100 100 100 74 4 36 54 9 5 62 88 98 44 98 100 60 5 36 10 5 68 44 12 5 7 7 8 8 7 23 23 9 93 47 20 12 25
100 100 100 100 100 100 100 100 100 100 100 98 80 97 100 100 100 91 76 96 77 5 11 32 17 5 36 54 100 99 93 8 5 63 82 6 20 27 5 42 40 5 5 5 5 5 16 26 73 100 100 69 43 44
100 100 100 100 100 100 100 94 100 100 99 52 96 99 100 96 94 91 100 100 56 72 5 22 6 5 40 73 99 95 9 22 99 82 35 5 6 6 58 65 47 12 15 5 64 99 100 100 100 100 96 100 98 92
100 100 100 100 100 98 99 97 99 89 77 91 92 100 100 97 94 92 93 100 90 100 86 60 6 5 43 64 14 21 100 86 99 81 73 36 79 34 62 52 38 18 86 100 100 100 89 78 73 56 56 55 30 32
100 100 100 100 100 100 100 100 100 100 93 100 100 100 100 100 99 94 96 95 100 100 99 44 42 53 35 35 36 42 67 78 100 95 95 70 38 60 50 36 62 91 100 100 100 100 100 100 99 96 53 59 84 57
8 84 100 100 100 91 90 95 100 100 100 99 100 100 89 100 100 100 100 100 100 100 100 91 5 86 20 15 23 32 41 42 63 100 100 97 64 43 38 79 72 84 100 100 100 100 100 91 100 100 94 36 49 75
64 100 100 90 100 96 76 18 16 52 67 32 8 14 66 99 94 100 100 94 83 80 86 54 67 72 11 51 24 6 5 14 8 48 67 95 84 34 94 98 67 100 100 100 100 100 100 76 99 100 44 64 57 35
73 100 100 100 88 91 90 100 89 10 6 26 59 77 37 90 100 97 29 44 66 60 49 36 42 59 22 43 24 5 17 6 31 42 50 54 95 89 100 95 100 100 99 75 100 100 98 95 100 92 60 64 58 71
100 100 98 99 100 100 100 100 94 13 58 82 98 88 85 100 86 63 72 78 47 11 5 6 86 72 85 6 5 5 19 26 24 40 62 95 49 41 100 100 100 86 79 100 100 98 95 94 96 99 92 46 77 76
97 95 100 100 99 93 95 99 98 100 100 76 94 84 100 100 87 75 69 80 52 10 7 5 6 14 8 14 7 8 36 66 58 63 84 55 73 94 100 94 82 99 100 100 100 86 96 75 59 53 71 88 96 54
100 100 100 100 96 100 98 100 100 100 100 100 100 100 100 92 77 91 99 97 100 70 70 20 5 5 21 66 52 62 85 49 30 18 69 84 64 100 100 100 100 100 100 100 95 100 97 89 94 91 100 100 100 100
100 73 75 98 96 100 100 100 94 61 100 100 98 92 42 74 95 97 86 91 99 94 65 68 76 85 69 68 69 92 67 59 84 92 94 100 100 100 96 97 100 100 98 100 100 99 100 100 100 100 100 100 100 100
86 95 100 97 97 97 96 81 60 49 12 89 98 100 99 100 97 93 96 94 92 91 92 99 100 98 99 85 69 92 97 100 100 100 100 94 99 100 100 100 87 82 100 100 92 91 100 100 100 100 100 100 100 100
100 100 100 100 100 100 99 100 96 92 64 77 97 100 100 98 83 93 95 97 100 100 93 100 100 95 99 86 97 100 100 84 95 100 93 93 100 100 100 81 99 100 100 86 98 100 100 100 100 100 100 100 100 100
100 100 100 100 100 100 100 100 100 100 100 100 100 100 100 100 100 94 96 94 96 89 74 94 100 100 100 100 100 100 100 95 97 98 100 100 96 97 100 100 100 100 100 100 100 100 100 100 100 100 100 100 100 100
100 100 100 100 100 100 100 100 100 100 100 100 100 100 100 99 98 94 98 93 96 91 85 98 100 100 100 100 100 100 100 100 100 100 100 100 100 98 100 100 100 100 100 100 100 100 100 100 100 100 100 100 98 92
100 100 100 100 100 100 100 100 100 100 100 100 100 100 92 90 99 98 100 99 96 97 100 100 100 100 100 100 100 100 100 100 100 100 100 100 100 100 100 100 100 100 100 100 87 100 100 100 100 100 93 74 74 90
100 100 100 100 100 100 100 100 100 100 100 100 100 98 77 66 90 97 100 100 100 84 93 78 100 100 100 100 100 100 100 100 100 100 100 100 100 99 96 100 100 100 100 90 100 100 100 100 83 54 94 100 83 43
100 100 100 100 100 100 86 91 100 99 99 100 100 100 90 37 92 95 99 100 93 88 98 100 100 100 100 100 100 100 100 100 100 100 100 100 94 100 100 100 100 99 94 100 100 97 63 17 64 45 20 7 6 50

GFSWCAN_prec_cloud_117.txt.gz
Cloud_Cover
100 100 100 100 100 100 100 100 100 100 100 100 100 100 100 100 100 100 100 100 100 100 100 100 100 38 78 33 12 5 5 6 9 18 5 9 69 93 91 72 96 100 100 100 100 100 100 100 100 100 100 98 100 100
100 100 100 100 100 100 100 100 100 100 100 100 100 100 100 100 100 100 100 100 100 100 100 100 100 100 6 5 5 18 32 5 6 11 62 6 99 100 60 100 81 92 100 100 100 100 99 100 100 94 94 100 100 100
100 100 100 100 100 100 100 100 100 100 100 100 100 100 100 100 100 100 100 100 100 100 100 100 100 63 5 5 17 5 5 5 5 5 78 62 17 99 100 100 100 100 100 100 100 100 100 100 98 100 98 87 82 94
100 100 100 100 100 100 100 100 100 100 100 100 100 100 100 100 100 100 100 100 100 100 100 100 100 5 8 6 5 5 5 2 0 5 5 20 47 49 92 100 100 100 100 100 100 100 100 100 100 98 100 100 100 100
100 100 100 100 100 100 100 100 100 100 100 100 100 100 100 100 100 100 100 100 100 100 100 100 48 24 73 14 5 5 4 0 0 4 5 6 32 31 18 73 100 100 100 100 100 100 100 100 100 95 99 97 100 99
100 100 100 100 100 100 100 100 100 100 100 100 100 100 100 100 100 100 100 100 100 100 98 14 9 77 72 10 5 5 5 5 5 0 0 0 5 5 33 59 100 100 100 100 100 100 100 100 100 100 100 100 100 100
100 72 100 100 100 100 100 100 100 100 100 100 100 100 100 100 100 100 100 100 100 100 77 60 94 100 100 90 88 37 5 5 5 0 3 0 5 5 40 79 99 100 100 100 100 100 100 100 93 95 94 20 5 5
100 98 100 100 100 100 100 100 100 100 100 100 100 100 100 100 100 100 100 100 97 83 64 66 91 80 86 20 5 5 5 5 2 3 5 5 5 5 25 41 88 100 100 100 100 100 100 81 38 64 54 5 5 5
100 100 100 100 100 100 100 100 100 100 100 100 100 100 100 100 100 100 100 100 95 99 100 99 47 66 5 22 6 5 5 5 5 22 5 5 5 5 60 30 5 60 100 100 100 100 100 92 28 5 5 5 5 5
100 100 100 100 100 100 100 100 100 100 100 100 100 100 100 100 100 100 100 100 100 100 100 72 27 82 30 6 5 5 21 9 5 39 8 20 24 26 24 94 100 35 10 24 62 78 100 100 75 5 5 5 5 5
100 100 100 100 100 100 100 100 100 100 100 100 100 100 100 100 100 100 100 100 100 100 80 80 6 12 6 5 5 6 52 22 36 36 73 34 82 5 52 99 86 71 55 24 16 5 5 5 5 5 5 5 5 5
100 100 100 100 100 100 100 100 100 100 100 100 100 100 100 100 100 87 100 100 100 100 82 54 20 48 6 5 27 32 16 9 6 73 96 82 5 5 18 90 100 76 83 74 5 5 5 5 5 5 5 5 5 5
100 100 100 100 100 100 100 100 100 100 100 100 100 100 100 100 100 100 100 100 100 34 19 41 34 86 29 28 6 57 10 50 18 100 39 5 19 5 5 67 100 74 16 5 7 36 9 5 5 5 5 5 6 5
100 100 100 100 100 100 100 100 100 100 100 100 100 100 100 100 92 100 100 100 100 19 13 20 86 19 50 48 30 5 8 40 80 62 5 32 5 5 18 86 96 32 6 25 7 5 5 5 48 37 9 14 5 9
100 100 100 100 100 100 100 100 100 100 100 100 100 100 100 100 100 100 100 100 100 30 6 49 45 9 54 58 71 5 38 40 31 5 5 49 5 6 47 33 5 5 5 5 14 8 34 32 5 54 5 9 42 40
100 100 100 100 100 100 100 100 100 100 100 100 100 100 100 100 100 100 100 100 100 60 19 19 42 5 5 5 61 6 30 5 5 5 57 19 5 23 21 5 14 46 51 43 27 29 31 32 52 82 99 82 45 25
100 100 100 100 100 100 100 100 100 100 100 100 100 100 100 100 100 100 100 100 100 95 71 7 5 5 5 55 38 42 5 5 5 85 84 15 5 7 18 53 73 70 53 36 15 47 100 100 96 100 68 40 9 20
100 100 100 100 100 100 100 100 100 100 100 100 100 100 100 100 100 100 100 100 100 100 64 32 5 5 58 64 13 5 40 100 76 98 74 62 40 6 55 50 46 51 15 9 46 67 89 100 64 72 30 13 7 43
86 97 100 100 100 100 100 100 100 100 100 100 100 100 100 100 100 98 100 100 100 100 96 80 48 53 11 22 6 80 98 87 61 87 96 63 19 43 42 41 54 41 45 57 7 63 100 86 33 20 8 40 69 75
100 100 100 100 100 100 100 100 100 100 100 100 100 100 100 100 83 100 100 56 100 100 100 98 17 5 17 39 30 12 58 20 24 100 98 98 77 71 38 47 56 57 38 32 84 100 100 82 41 10 58 81 96 89
100 100 100 100 98 100 82 26 16 36 44 68 85 100 65 93 85 100 99 62 100 93 99 100 34 65 66 74 76 34 11 5 10 10 33 89 94 52 64 60 56 63 46 59 80 100 74 52 62 35 76 60 69 96
100 100 100 96 96 84 89 85 51 92 100 98 97 100 82 99 98 94 100 82 83 67 53 100 58 50 72 22 56 7 14 5 5 12 46 21 96 97 99 82 84 90 69 58 100 86 62 100 68 51 58 66 96 100
100 100 92 100 100 100 100 100 100 43 84 100 89 99 92 76 43 21 94 29 16 60 19 69 28 5 5 26 5 5 5 5 54 61 58 67 58 87 70 72 67 57 66 93 88 87 89 62 59 54 91 100 100 99
47 34 14 40 54 100 100 100 100 89 96 86 86 91 69 90 97 74 62 60 25 52 24 7 15 12 20 34 53 42 9 5 35 67 28 60 99 84 68 73 61 90 87 82 71 86 97 73 98 100 100 100 100 100
87 42 44 53 87 83 96 86 85 93 81 69 64 79 69 82 84 93 100 100 80 76 90 63 10 9 49 82 81 78 5 5 52 59 85 92 93 100 99 91 79 72 54 94 74 89 100 100 100 100 100 100 100 100
63 69 87 66 97 92 100 100 100 100 100 100 98 98 88 87 98 91 87 96 94 95 99 87 92 91 92 88 80 72 50 16 58 96 91 97 100 74 66 60 58 87 100 100 100 100 100 100 100 100 100 100 100 100
100 100 100 100 100 100 100 86 83 94 93 99 100 100 100 90 85 71 99 91 86 85 96 99 95 97 87 90 85 94 98 93 77 58 99 87 70 80 95 100 100 100 100 100 100 100 100 100 100 100 100 100 100 100
100 100 100 100 100 100 100 100 100 100 100 100 100 99 56 83 61 84 80 67 91 87 100 99 97 95 97 99 98 99 100 100 100 100 99 100 100 100 100 100 100 91 51 99 100 100 100 100 100 100 100 99 100 100
100 100 100 100 100 100 100 100 100 100 100 100 99 92 95 85 84 76 45 90 99 95 78 78 89 94 100 100 100 100 100 100 100 100 99 99 96 87 100 100 100 100 100 100 100 100 100 100 97 100 88 100 98 97
100 100 100 100 100 100 100 97 93 98 100 100 100 100 100 100 90 97 100 90 86 94 93 95 96 99 99 100 100 100 100 100 100 97 100 97 100 99 100 100 100 99 90 92 99 99 100 100 96 98 90 59 88 90
100 100 100 100 100 100 100 100 100 100 100 100 100 100 100 100 100 100 100 100 100 91 76 77 94 100 100 100 100 100 99 96 100 100 100 100 100 100 100 100 97 96 82 99 100 100 100 89 95 61 65 97 99 86
100 100 100 100 100 100 100 100 100 100 100 100 100 100 100 100 100 100 95 91 100 77 90 95 100 100 100 100 100 99 93 98 100 100 100 100 100 100 98 90 69 92 95 92 74 61 83 73 92 100 100 70 46 36
100 100 100 100 100 100 100 100 100 100 100 100 100 100 100 100 97 92 100 96 100 93 98 99 98 90 88 97 100 100 100 100 100 100 99 99 91 81 87 88 78 69 75 74 53 82 79 60 60 19 5 40 62 61

GFSWCAN_prec_cloud_120.txt.gz
Cloud_Cover
100 100 100 100 100 100 100 100 100 100 100 100 100 100 100 100 100 100 100 100 100 100 100 100 100 100 100 100 100 100 86 27 8 17 5 5 24 36 42 22 56 100 100 100 100 100 100 100 100 100 100 100 100 14
100 100 100 100 100 100 100 100 100 100 100 100 100 100 100 100 100 100 100 100 100 100 100 100 100 100 100 100 100 100 52 39 6 5 5 5 63 35 42 94 55 100 100 100 100 100 100 100 100 100 100 100 100 84
100 100 100 100 100 100 100 100 100 100 100 100 100 100 100 100 100 100 100 100 100 100 100 100 100 100 100 100 98 51 7 5 5 5 50 47 39 6 65 100 97 100 100 100 100 100 100 100 100 100 100 100 100 100
100 100 100 100 100 100 100 100 100 100 100 100 100 100 100 100 100 100 100 100 100 100 100 100 100 100 100 72 21 27 44 10 5 5 5 5 5 8 6 59 98 98 100 100 100 100 100 100 100 100 100 100 100 100
100 100 100 100 100 100 100 100 100 100 100 100 100 100 100 100 100 100 100 100 100 100 100 100 100 100 100 36 30 68 54 16 10 5 4 17 5 5 30 6 96 100 100 100 100 100 100 100 100 100 100 100 100 98
100 100 100 100 100 100 100 100 100 100 100 100 100 100 100 100 100 100 100 100 100 100 100 100 100 100 97 10 74 85 51 5 5 5 0 1 5 5 38 42 83 98 100 100 100 100 100 100 100 100 100 100 100 99
100 100 100 100 100 100 100 100 100 100 100 100 100 100 100 100 100 100 100 100 100 100 100 100 100 100 97 98 90 71 5 5 5 4 0 0 5 5 46 75 82 49 100 100 100 100 100 100 100 100 100 100 100 99
100 91 100 100 100 100 100 100 100 100 100 100 100 100 100 100 100 100 100 100 100 100 100 100 100 88 99 65 69 43 8 5 5 3 4 5 5 5 20 8 52 98 100 100 100 100 100 100 100 100 100 100 100 76
91 71 74 100 100 100 100 100 100 100 100 100 100 100 100 100 100 100 100 100 100 100 100 68 92 84 83 81 91 52 7 5 5 5 5 5 5 7 5 35 20 43 90 99 100 99 100 100 100 100 100 100 85 44
100 53 6 100 100 100 100 100 100 100 100 100 100 100 100 100 100 100 100 100 100 100 55 72 52 46 97 98 63 5 12 12 5 13 6 9 7 5 5 5 28 20 89 86 5 48 35 100 100 100 100 100 18 5
100 95 100 100 100 100 100 100 100 100 100 100 100 100 100 100 100 100 100 100 100 99 80 98 17 8 33 48 5 5 9 28 36 27 70 37 57 12 5 5 76 60 5 5 45 64 11 5 54 100 100 100 99 86
100 100 100 96 100 100 100 100 100 100 100 100 100 100 100 100 100 100 99 91 79 99 100 63 21 62 47 5 6 59 35 22 9 67 87 49 5 5 5 23 100 74 27 5 53 100 100 40 5 5 34 21 5 5
100 100 100 100 100 100 100 100 100 100 100 100 100 100 100 100 100 100 100 100 100 100 69 63 33 36 19 6 19 50 9 56 26 100 74 5 5 5 5 5 97 93 32 5 5 5 5 5 20 5 5 5 5 5
100 100 100 96 100 100 100 100 100 100 100 100 100 100 100 100 100 100 100 100 100 100 48 43 64 6 36 25 62 5 8 9 10 29 5 8 5 5 5 26 93 86 24 5 17 29 6 9 39 45 6 5 15 43
100 100 100 93 100 100 100 100 100 100 100 100 100 100 100 100 100 100 100 100 100 100 98 20 6 5 45 80 40 5 42 72 6 5 5 5 5 5 5 68 97 82 18 5 24 10 54 48 19 85 60 17 5 37
100 100 100 100 100 100 100 100 100 100 100 100 100 100 100 100 100 100 100 100 96 87 28 18 19 44 85 35 5 5 5 5 5 5 30 66 6 5 5 8 7 5 12 50 58 36 31 14 12 65 22 5 5 5
100 98 96 100 100 100 100 100 100 100 100 100 100 100 100 100 100 100 100 100 99 95 94 21 75 99 31 47 32 5 5 5 5 62 99 54 8 5 17 5 28 51 49 46 54 39 32 7 51 17 6 12 9 5
100 100 76 100 100 100 100 100 100 100 100 100 100 100 100 100 100 100 100 100 100 100 100 99 83 88 74 5 5 5 59 57 81 100 76 60 40 17 7 5 14 5 22 38 34 18 34 61 62 24 22 5 8 34
100 100 100 100 100 100 100 100 100 100 100 100 100 100 100 100 100 100 100 100 100 100 100 95 74 100 33 5 5 52 72 87 92 88 94 65 28 28 6 5 10 23 26 31 49 54 68 44 32 12 8 18 22 29
100 100 100 100 100 100 100 100 100 100 100 100 100 100 100 100 100 100 100 100 100 100 100 97 100 21 6 5 11 10 50 49 61 81 96 86 78 39 11 16 13 25 35 50 47 55 52 80 65 55 70 60 82 81
100 100 100 100 100 100 100 100 100 100 100 100 100 100 100 100 100 100 100 100 100 100 93 94 69 56 62 74 73 63 36 5 24 23 17 92 95 56 60 66 61 41 34 42 37 81 68 63 54 28 88 75 70 71
100 97 100 96 100 100 100 100 100 100 100 100 100 100 100 100 100 96 65 97 96 77 26 57 37 67 86 60 73 9 14 5 5 38 46 49 97 94 97 82 79 73 42 35 47 65 59 58 65 72 78 67 58 65
100 100 100 94 95 98 98 100 97 98 91 99 76 88 99 93 87 69 96 98 46 56 82 51 7 88 14 65 8 5 5 5 59 64 67 78 63 58 63 76 58 40 70 67 61 47 24 51 77 79 62 50 98 100
99 100 100 100 63 52 73 89 100 100 99 100 100 100 93 99 84 100 100 47 62 62 76 55 23 63 43 60 75 73 43 5 38 77 65 35 92 98 63 67 54 31 88 44 52 72 69 70 72 89 100 100 100 100
99 55 46 98 100 87 100 100 100 82 99 95 97 85 95 95 99 100 49 40 95 100 100 97 100 82 80 94 88 85 8 6 13 80 89 49 78 97 95 89 82 69 45 60 99 94 100 100 100 100 100 100 100 100
6 51 60 35 74 89 94 96 90 87 77 100 93 78 93 86 99 92 62 99 100 98 100 100 100 100 100 100 99 92 95 84 72 79 96 48 16 73 77 85 88 58 71 87 100 100 100 100 100 100 100 100 100 100
76 88 71 75 90 59 63 66 83 90 93 88 85 100 100 88 96 100 100 99 93 88 100 100 100 96 98 100 99 100 100 100 98 86 90 61 64 52 57 69 86 89 80 98 100 100 100 100 100 100 100 100 100 100
94 91 100 100 100 100 100 100 100 100 99 100 100 99 100 100 100 100 89 67 92 96 100 100 96 87 84 95 97 100 100 100 100 94 93 90 87 88 93 100 92 99 100 100 100 100 95 100 100 100 100 87 99 86
100 100 100 100 100 100 100 100 99 100 100 100 100 100 93 100 100 80 60 85 99 96 84 95 95 96 92 100 100 100 100 100 100 92 90 94 95 85 92 99 100 100 100 100 100 100 100 100 100 100 75 80 94 100
100 100 100 100 100 100 99 98 78 89 87 96 98 79 71 80 100 100 89 82 92 95 90 98 100 100 98 100 100 100 100 100 100 98 100 97 100 100 100 100 100 100 100 100 100 100 99 96 72 55 78 98 91 73
100 100 100 100 100 100 100 100 100 100 100 100 100 100 99 97 93 98 98 97 98 100 100 99 100 100 100 100 100 100 100 100 100 100 100 100 100 100 100 100 100 100 100 100 100 87 88 89 72 54 70 60 44 42
100 100 100 100 100 100 100 100 100 100 100 100 100 100 100 100 100 100 100 100 100 100 100 100 100 100 97 98 100 100 99 99 100 100 100 100 100 100 100 100 100 100 97 94 100 100 100 78 98 80 6 40 59 63
100 100 100 100 100 100 100 100 100 100 100 100 100 100 100 100 100 100 100 100 100 100 100 100 100 100 100 100 100 100 100 100 100 100 100 100 100 100 100 100 100 100 100 100 100 93 55 7 18 57 56 63 59 60